Wetterdaten: aktuell Dienstag, 05.05.2026 14:52
Datum Zeit Temperatur Temp 5cm Temp -10cm Temp -20cm Temp -50cm Luftfeuchte BFeucht-10cm BFeucht-20cm BFeucht-50cm Luftdruck Regen Wind Richtung Richtung Sonnenschein ET UV Solar Taupunkt Windchill Windböen Empfang
05.05.2026 14:52 23,7 °C 36,1 °C 11,7 °C 13,9 °C 16,1 °C 36 % 79 cb 52 cb 73 cb 1004,8 hPa 0,0 l/m² 4,8 km/h (1 Bft) N 360 ° 1 min 0,000 mm 3,4 UV-I 682 W/m² 7,7 °C 23,7 °C 8,0 km/h (2 Bft) 91,30 %
05.05.2026 14:51 23,7 °C 36,1 °C 11,7 °C 13,9 °C 16,1 °C 37 % 79 cb 52 cb 73 cb 1004,8 hPa 0,0 l/m² 8,0 km/h (2 Bft) N 360 ° 1 min 0,000 mm 3,4 UV-I 712 W/m² 8,1 °C 23,2 °C 9,7 km/h (2 Bft) 91,30 %
05.05.2026 14:50 23,8 °C 36,1 °C 11,7 °C 13,9 °C 16,1 °C 36 % 80 cb 52 cb 73 cb 1004,8 hPa 0,0 l/m² 9,7 km/h (2 Bft) N-NW 337 ° 1 min 0,000 mm 3,4 UV-I 663 W/m² 7,8 °C 22,9 °C 12,9 km/h (3 Bft) 91,30 %
05.05.2026 14:49 23,7 °C 35,6 °C 11,7 °C 13,9 °C 16,1 °C 40 % 80 cb 52 cb 73 cb 1004,9 hPa 0,0 l/m² 8,0 km/h (2 Bft) N 360 ° 1 min 0,000 mm 3,5 UV-I 756 W/m² 9,3 °C 23,2 °C 12,9 km/h (3 Bft) 91,30 %
05.05.2026 14:48 23,7 °C 35,6 °C 11,7 °C 13,9 °C 16,1 °C 37 % 80 cb 52 cb 73 cb 1004,8 hPa 0,0 l/m² 4,8 km/h (1 Bft) O-NO 67 ° 1 min 0,000 mm 3,2 UV-I 663 W/m² 8,1 °C 23,7 °C 8,0 km/h (2 Bft) 95,65 %
05.05.2026 14:47 23,7 °C 36,7 °C 11,7 °C 13,9 °C 16,1 °C 36 % 80 cb 52 cb 73 cb 1004,9 hPa 0,0 l/m² 6,4 km/h (2 Bft) NO 45 ° 1 min 0,000 mm 3,1 UV-I 575 W/m² 7,7 °C 23,7 °C 8,0 km/h (2 Bft) 95,65 %
05.05.2026 14:46 23,7 °C 37,2 °C 11,7 °C 13,9 °C 16,1 °C 40 % 80 cb 52 cb 73 cb 1004,8 hPa 0,0 l/m² 6,4 km/h (2 Bft) NO 45 ° 1 min 0,000 mm 3,2 UV-I 724 W/m² 9,3 °C 23,7 °C 8,0 km/h (2 Bft) 95,65 %
05.05.2026 14:45 23,7 °C 38,3 °C 11,7 °C 13,9 °C 16,1 °C 37 % 80 cb 52 cb 73 cb 1004,9 hPa 0,0 l/m² 4,8 km/h (1 Bft) N 360 ° 1 min 0,000 mm 3,6 UV-I 724 W/m² 8,1 °C 23,7 °C 6,4 km/h (2 Bft) 91,30 %
05.05.2026 14:44 23,6 °C 37,8 °C 11,7 °C 13,9 °C 16,1 °C 37 % 80 cb 52 cb 73 cb 1004,9 hPa 0,0 l/m² 4,8 km/h (1 Bft) N 360 ° 1 min 0,000 mm 3,4 UV-I 663 W/m² 8,0 °C 23,6 °C 8,0 km/h (2 Bft) 91,30 %
05.05.2026 14:43 23,6 °C 38,3 °C 11,7 °C 13,9 °C 16,1 °C 37 % 80 cb 52 cb 73 cb 1004,9 hPa 0,0 l/m² 8,0 km/h (2 Bft) N 360 ° 1 min 0,000 mm 3,6 UV-I 733 W/m² 8,0 °C 23,1 °C 9,7 km/h (2 Bft) 95,65 %
05.05.2026 14:42 23,7 °C 38,3 °C 11,7 °C 13,9 °C 16,1 °C 37 % 80 cb 52 cb 73 cb 1004,9 hPa 0,0 l/m² 11,3 km/h (2 Bft) N-NW 337 ° 1 min 0,000 mm 3,7 UV-I 763 W/m² 8,1 °C 22,4 °C 14,5 km/h (3 Bft) 91,30 %
05.05.2026 14:41 23,7 °C 38,9 °C 11,7 °C 13,9 °C 16,1 °C 40 % 80 cb 52 cb 73 cb 1005,0 hPa 0,0 l/m² 8,0 km/h (2 Bft) N 360 ° 1 min 0,000 mm 3,7 UV-I 737 W/m² 9,3 °C 23,2 °C 9,7 km/h (2 Bft) 91,30 %
05.05.2026 14:40 23,8 °C 39,4 °C 11,7 °C 13,9 °C 16,1 °C 40 % 80 cb 52 cb 73 cb 1005,0 hPa 0,0 l/m² 12,9 km/h (3 Bft) N 360 ° 1 min 0,000 mm 3,8 UV-I 766 W/m² 9,4 °C 22,2 °C 14,5 km/h (3 Bft) 95,65 %
05.05.2026 14:39 23,8 °C 40,0 °C 11,7 °C 13,9 °C 16,1 °C 42 % 80 cb 52 cb 73 cb 1005,0 hPa 0,0 l/m² 12,9 km/h (3 Bft) N 360 ° 1 min 0,000 mm 3,8 UV-I 789 W/m² 10,1 °C 22,2 °C 14,5 km/h (3 Bft) 86,96 %
05.05.2026 14:38 23,8 °C 40,0 °C 11,7 °C 13,9 °C 16,1 °C 41 % 80 cb 52 cb 73 cb 1004,9 hPa 0,0 l/m² 11,3 km/h (2 Bft) N 360 ° 1 min 0,000 mm 3,9 UV-I 780 W/m² 9,7 °C 22,6 °C 16,1 km/h (3 Bft) 86,96 %
05.05.2026 14:37 23,9 °C 40,6 °C 11,7 °C 13,9 °C 16,1 °C 43 % 80 cb 52 cb 73 cb 1005,0 hPa 0,0 l/m² 3,2 km/h (1 Bft) NO 45 ° 1 min 0,000 mm 4,0 UV-I 800 W/m² 10,5 °C 23,9 °C 4,8 km/h (1 Bft) 91,30 %
05.05.2026 14:36 23,9 °C 40,6 °C 11,7 °C 13,9 °C 16,1 °C 42 % 80 cb 52 cb 73 cb 1005,0 hPa 0,0 l/m² 3,2 km/h (1 Bft) N-NO 22 ° 1 min 0,000 mm 4,0 UV-I 816 W/m² 10,2 °C 23,9 °C 4,8 km/h (1 Bft) 86,96 %
05.05.2026 14:35 24,1 °C 42,8 °C 11,7 °C 13,9 °C 16,1 °C 41 % 80 cb 52 cb 73 cb 1005,1 hPa 0,0 l/m² 6,4 km/h (2 Bft) N-NO 22 ° 1 min 0,000 mm 4,1 UV-I 844 W/m² 10,0 °C 24,1 °C 9,7 km/h (2 Bft) 95,65 %
05.05.2026 14:34 24,3 °C 42,8 °C 11,7 °C 13,9 °C 16,1 °C 40 % 80 cb 52 cb 73 cb 1005,1 hPa 0,0 l/m² 9,7 km/h (2 Bft) N-NO 22 ° 1 min 0,000 mm 4,1 UV-I 840 W/m² 9,8 °C 23,5 °C 12,9 km/h (3 Bft) 95,65 %
05.05.2026 14:33 24,4 °C 43,3 °C 11,7 °C 13,9 °C 15,6 °C 40 % 80 cb 52 cb 72 cb 1005,1 hPa 0,0 l/m² 9,7 km/h (2 Bft) N-NW 337 ° 1 min 0,000 mm 4,1 UV-I 831 W/m² 9,9 °C 23,6 °C 12,9 km/h (3 Bft) 95,65 %
05.05.2026 14:32 24,3 °C 42,8 °C 11,7 °C 13,9 °C 15,6 °C 40 % 80 cb 52 cb 72 cb 1005,1 hPa 0,0 l/m² 4,8 km/h (1 Bft) W 270 ° 1 min 0,000 mm 4,2 UV-I 856 W/m² 9,8 °C 24,3 °C 9,7 km/h (2 Bft) 91,30 %
05.05.2026 14:31 24,3 °C 42,8 °C 11,7 °C 13,9 °C 15,6 °C 43 % 80 cb 52 cb 72 cb 1005,2 hPa 0,0 l/m² 3,2 km/h (1 Bft) N-NW 337 ° 1 min 0,000 mm 4,2 UV-I 851 W/m² 10,9 °C 24,3 °C 4,8 km/h (1 Bft) 100,00 %
05.05.2026 14:30 24,2 °C 42,8 °C 11,7 °C 13,9 °C 15,6 °C 40 % 80 cb 52 cb 72 cb 1005,2 hPa 0,0 l/m² 3,2 km/h (1 Bft) N-NW 337 ° 1 min 0,000 mm 4,2 UV-I 847 W/m² 9,7 °C 24,2 °C 6,4 km/h (2 Bft) 91,30 %
05.05.2026 14:29 24,3 °C 42,2 °C 11,7 °C 13,9 °C 15,6 °C 41 % 80 cb 52 cb 72 cb 1005,2 hPa 0,0 l/m² 3,2 km/h (1 Bft) S-SW 202 ° 1 min 0,000 mm 4,2 UV-I 847 W/m² 10,2 °C 24,3 °C 4,8 km/h (1 Bft) 95,65 %
05.05.2026 14:28 24,2 °C 41,7 °C 11,7 °C 13,9 °C 15,6 °C 44 % 80 cb 52 cb 72 cb 1005,3 hPa 0,0 l/m² 1,6 km/h (1 Bft) SO 135 ° 1 min 0,000 mm 4,2 UV-I 856 W/m² 11,2 °C 24,2 °C 3,2 km/h (1 Bft) 95,65 %
05.05.2026 14:27 23,9 °C 41,7 °C 11,7 °C 13,9 °C 15,6 °C 42 % 80 cb 52 cb 72 cb 1005,3 hPa 0,0 l/m² 3,2 km/h (1 Bft) SO 135 ° 1 min 0,000 mm 4,2 UV-I 837 W/m² 10,2 °C 23,9 °C 6,4 km/h (2 Bft) 95,65 %
05.05.2026 14:26 24,0 °C 42,8 °C 11,7 °C 13,9 °C 15,6 °C 41 % 80 cb 52 cb 72 cb 1005,2 hPa 0,0 l/m² 3,2 km/h (1 Bft) SO 135 ° 1 min 0,000 mm 4,2 UV-I 824 W/m² 9,9 °C 24,0 °C 6,4 km/h (2 Bft) 91,30 %
05.05.2026 14:25 24,1 °C 42,8 °C 11,7 °C 13,9 °C 15,6 °C 43 % 80 cb 52 cb 72 cb 1005,2 hPa 0,0 l/m² 4,8 km/h (1 Bft) SO 135 ° 1 min 0,000 mm 4,2 UV-I 812 W/m² 10,7 °C 24,1 °C 6,4 km/h (2 Bft) 95,65 %
05.05.2026 14:24 23,8 °C 41,7 °C 11,7 °C 13,9 °C 15,6 °C 42 % 80 cb 52 cb 72 cb 1005,2 hPa 0,0 l/m² 4,8 km/h (1 Bft) SW 225 ° 1 min 0,000 mm 4,3 UV-I 846 W/m² 10,1 °C 23,8 °C 8,0 km/h (2 Bft) 95,65 %
05.05.2026 14:23 23,7 °C 41,1 °C 11,7 °C 13,9 °C 15,6 °C 41 % 80 cb 52 cb 72 cb 1005,3 hPa 0,0 l/m² 1,6 km/h (1 Bft) N 360 ° 1 min 0,000 mm 4,3 UV-I 853 W/m² 9,7 °C 23,7 °C 4,8 km/h (1 Bft) 91,30 %
05.05.2026 14:22 23,7 °C 40,6 °C 11,7 °C 13,9 °C 15,6 °C 43 % 80 cb 52 cb 72 cb 1005,2 hPa 0,0 l/m² 1,6 km/h (1 Bft) N 360 ° 1 min 0,000 mm 4,3 UV-I 823 W/m² 10,4 °C 23,7 °C 4,8 km/h (1 Bft) 95,65 %
05.05.2026 14:21 23,8 °C 40,6 °C 11,7 °C 13,9 °C 15,6 °C 44 % 80 cb 52 cb 72 cb 1005,3 hPa 0,0 l/m² 6,4 km/h (2 Bft) N 360 ° 1 min 0,000 mm 4,3 UV-I 837 W/m² 10,8 °C 23,8 °C 8,0 km/h (2 Bft) 86,96 %
05.05.2026 14:20 23,8 °C 40,6 °C 11,7 °C 13,9 °C 15,6 °C 43 % 80 cb 52 cb 72 cb 1005,3 hPa 0,0 l/m² 1,6 km/h (1 Bft) O 90 ° 1 min 0,000 mm 4,4 UV-I 858 W/m² 10,5 °C 23,8 °C 3,2 km/h (1 Bft) 91,30 %
05.05.2026 14:19 23,6 °C 40,0 °C 11,7 °C 13,9 °C 15,6 °C 44 % 80 cb 52 cb 72 cb 1005,3 hPa 0,0 l/m² 1,6 km/h (1 Bft) O 90 ° 1 min 0,000 mm 4,4 UV-I 877 W/m² 10,6 °C 23,6 °C 3,2 km/h (1 Bft) 95,65 %
05.05.2026 14:18 23,6 °C 39,4 °C 11,7 °C 13,9 °C 15,6 °C 40 % 80 cb 53 cb 72 cb 1005,3 hPa 0,0 l/m² 1,6 km/h (1 Bft) O 90 ° 1 min 0,000 mm 4,4 UV-I 863 W/m² 9,2 °C 23,6 °C 4,8 km/h (1 Bft) 91,30 %
05.05.2026 14:17 23,7 °C 39,4 °C 11,7 °C 13,9 °C 15,6 °C 38 % 80 cb 53 cb 72 cb 1005,4 hPa 0,0 l/m² 4,8 km/h (1 Bft) O 90 ° 1 min 0,000 mm 4,4 UV-I 867 W/m² 8,5 °C 23,7 °C 8,0 km/h (2 Bft) 91,30 %
05.05.2026 14:16 23,6 °C 40,6 °C 11,7 °C 13,9 °C 15,6 °C 41 % 80 cb 53 cb 72 cb 1005,3 hPa 0,0 l/m² 6,4 km/h (2 Bft) O-SO 112 ° 1 min 0,000 mm 4,5 UV-I 879 W/m² 9,6 °C 23,6 °C 9,7 km/h (2 Bft) 100,00 %
05.05.2026 14:15 23,5 °C 40,0 °C 11,7 °C 13,9 °C 15,6 °C 40 % 80 cb 53 cb 72 cb 1005,4 hPa 0,0 l/m² 3,2 km/h (1 Bft) NO 45 ° 1 min 0,000 mm 4,5 UV-I 886 W/m² 9,1 °C 23,5 °C 8,0 km/h (2 Bft) 82,61 %
05.05.2026 14:14 23,3 °C 40,0 °C 11,7 °C 13,9 °C 15,6 °C 39 % 80 cb 53 cb 72 cb 1005,4 hPa 0,0 l/m² 0,0 km/h (0 Bft) NO 45 ° 1 min 0,000 mm 4,5 UV-I 877 W/m² 8,6 °C 23,3 °C 1,6 km/h (1 Bft) 86,96 %
05.05.2026 14:13 23,4 °C 38,9 °C 11,7 °C 13,9 °C 15,6 °C 43 % 80 cb 53 cb 72 cb 1005,6 hPa 0,0 l/m² 1,6 km/h (1 Bft) NO 45 ° 1 min 0,000 mm 4,4 UV-I 884 W/m² 10,1 °C 23,4 °C 3,2 km/h (1 Bft) 100,00 %
05.05.2026 14:12 23,4 °C 38,3 °C 11,7 °C 13,9 °C 15,6 °C 44 % 80 cb 53 cb 72 cb 1005,4 hPa 0,0 l/m² 6,4 km/h (2 Bft) NO 45 ° 1 min 0,000 mm 4,4 UV-I 842 W/m² 10,4 °C 23,4 °C 8,0 km/h (2 Bft) 91,30 %
05.05.2026 14:11 23,4 °C 39,4 °C 11,7 °C 13,9 °C 15,6 °C 41 % 80 cb 53 cb 72 cb 1005,6 hPa 0,0 l/m² 6,4 km/h (2 Bft) NO 45 ° 1 min 0,000 mm 4,5 UV-I 886 W/m² 9,4 °C 23,4 °C 8,0 km/h (2 Bft) 95,65 %
05.05.2026 14:10 23,5 °C 39,4 °C 11,7 °C 13,9 °C 15,6 °C 43 % 80 cb 53 cb 72 cb 1005,5 hPa 0,0 l/m² 4,8 km/h (1 Bft) NW 315 ° 1 min 0,000 mm 4,5 UV-I 877 W/m² 10,2 °C 23,5 °C 8,0 km/h (2 Bft) 95,65 %
05.05.2026 14:09 23,4 °C 38,9 °C 11,7 °C 13,9 °C 15,6 °C 42 % 80 cb 53 cb 72 cb 1005,6 hPa 0,0 l/m² 4,8 km/h (1 Bft) NW 315 ° 1 min 0,000 mm 4,4 UV-I 865 W/m² 9,7 °C 23,4 °C 6,4 km/h (2 Bft) 95,65 %
05.05.2026 14:08 23,3 °C 38,3 °C 11,7 °C 13,9 °C 15,6 °C 43 % 80 cb 53 cb 72 cb 1005,6 hPa 0,0 l/m² 8,0 km/h (2 Bft) NW 315 ° 1 min 0,000 mm 4,4 UV-I 856 W/m² 10,0 °C 22,8 °C 11,3 km/h (2 Bft) 91,30 %
05.05.2026 14:07 23,3 °C 37,8 °C 11,7 °C 13,9 °C 15,6 °C 42 % 80 cb 53 cb 72 cb 1005,7 hPa 0,0 l/m² 11,3 km/h (2 Bft) NW 315 ° 1 min 0,000 mm 4,4 UV-I 884 W/m² 9,7 °C 22,0 °C 12,9 km/h (3 Bft) 100,00 %
05.05.2026 14:06 23,2 °C 36,7 °C 11,7 °C 13,9 °C 15,6 °C 48 % 80 cb 53 cb 72 cb 1005,7 hPa 0,0 l/m² 6,4 km/h (2 Bft) N 360 ° 1 min 0,000 mm 4,1 UV-I 793 W/m² 11,6 °C 23,2 °C 12,9 km/h (3 Bft) 91,30 %
05.05.2026 14:05 23,2 °C 36,7 °C 11,7 °C 13,9 °C 15,6 °C 42 % 80 cb 53 cb 72 cb 1005,7 hPa 0,0 l/m² 6,4 km/h (2 Bft) NW 315 ° 1 min 0,000 mm 4,1 UV-I 796 W/m² 9,6 °C 23,2 °C 9,7 km/h (2 Bft) 95,65 %
05.05.2026 14:04 23,1 °C 36,7 °C 11,7 °C 13,9 °C 15,6 °C 43 % 80 cb 53 cb 72 cb 1005,7 hPa 0,0 l/m² 11,3 km/h (2 Bft) NW 315 ° 1 min 0,000 mm 4,0 UV-I 749 W/m² 9,8 °C 21,8 °C 16,1 km/h (3 Bft) 91,30 %
05.05.2026 14:03 23,0 °C 36,7 °C 11,7 °C 13,9 °C 15,6 °C 44 % 80 cb 53 cb 72 cb 1005,7 hPa 0,0 l/m² 8,0 km/h (2 Bft) NW 315 ° 1 min 0,000 mm 3,9 UV-I 715 W/m² 10,1 °C 22,5 °C 12,9 km/h (3 Bft) 86,96 %
05.05.2026 14:02 23,0 °C 36,7 °C 11,7 °C 13,9 °C 15,6 °C 48 % 80 cb 53 cb 72 cb 1005,7 hPa 0,0 l/m² 9,7 km/h (2 Bft) N-NO 22 ° 1 min 0,000 mm 3,9 UV-I 686 W/m² 11,4 °C 22,0 °C 16,1 km/h (3 Bft) 95,65 %
05.05.2026 14:01 22,9 °C 37,2 °C 11,7 °C 13,9 °C 15,6 °C 46 % 80 cb 53 cb 72 cb 1005,6 hPa 0,0 l/m² 6,4 km/h (2 Bft) N-NO 22 ° 1 min 0,000 mm 3,9 UV-I 761 W/m² 10,7 °C 22,9 °C 8,0 km/h (2 Bft) 95,65 %
05.05.2026 14:00 22,9 °C 37,2 °C 11,7 °C 13,9 °C 15,6 °C 44 % 80 cb 53 cb 72 cb 1005,6 hPa 0,0 l/m² 4,8 km/h (1 Bft) N 360 ° 1 min 0,584 mm 4,0 UV-I 756 W/m² 10,0 °C 22,9 °C 6,4 km/h (2 Bft) 91,30 %
05.05.2026 13:59 23,1 °C 37,2 °C 11,7 °C 13,9 °C 15,6 °C 48 % 80 cb 53 cb 72 cb 1005,7 hPa 0,0 l/m² 6,4 km/h (2 Bft) N 360 ° 1 min 0,000 mm 4,0 UV-I 770 W/m² 11,5 °C 23,1 °C 8,0 km/h (2 Bft) 82,61 %
05.05.2026 13:58 23,1 °C 37,2 °C 11,7 °C 13,9 °C 15,6 °C 44 % 80 cb 53 cb 72 cb 1005,7 hPa 0,0 l/m² 6,4 km/h (2 Bft) N 360 ° 1 min 0,000 mm 4,2 UV-I 779 W/m² 10,2 °C 23,1 °C 9,7 km/h (2 Bft) 100,00 %
05.05.2026 13:57 23,3 °C 37,2 °C 11,7 °C 13,9 °C 15,6 °C 46 % 80 cb 53 cb 72 cb 1005,7 hPa 0,0 l/m² 14,5 km/h (3 Bft) N 360 ° 1 min 0,000 mm 4,1 UV-I 803 W/m² 11,0 °C 21,3 °C 17,7 km/h (3 Bft) 91,30 %
05.05.2026 13:56 23,2 °C 37,2 °C 11,7 °C 13,9 °C 15,6 °C 45 % 80 cb 53 cb 72 cb 1005,8 hPa 0,0 l/m² 8,0 km/h (2 Bft) N 360 ° 1 min 0,000 mm 4,2 UV-I 784 W/m² 10,6 °C 22,7 °C 12,9 km/h (3 Bft) 95,65 %
05.05.2026 13:55 23,3 °C 37,8 °C 11,7 °C 13,9 °C 15,6 °C 43 % 80 cb 53 cb 72 cb 1005,7 hPa 0,0 l/m² 9,7 km/h (2 Bft) N 360 ° 1 min 0,000 mm 3,9 UV-I 763 W/m² 10,0 °C 22,4 °C 12,9 km/h (3 Bft) 91,30 %
05.05.2026 13:54 23,3 °C 38,3 °C 11,7 °C 13,9 °C 15,6 °C 46 % 80 cb 53 cb 72 cb 1005,7 hPa 0,0 l/m² 8,0 km/h (2 Bft) N 360 ° 1 min 0,000 mm 3,8 UV-I 631 W/m² 11,0 °C 22,8 °C 9,7 km/h (2 Bft) 100,00 %
05.05.2026 13:53 23,3 °C 38,9 °C 11,7 °C 13,9 °C 15,6 °C 41 % 80 cb 53 cb 72 cb 1005,8 hPa 0,0 l/m² 8,0 km/h (2 Bft) N 360 ° 1 min 0,000 mm 4,0 UV-I 670 W/m² 9,3 °C 22,8 °C 9,7 km/h (2 Bft) 91,30 %
05.05.2026 13:52 23,4 °C 40,0 °C 11,7 °C 13,9 °C 15,6 °C 41 % 80 cb 53 cb 72 cb 1005,8 hPa 0,0 l/m² 9,7 km/h (2 Bft) N 360 ° 1 min 0,000 mm 3,7 UV-I 851 W/m² 9,4 °C 22,5 °C 12,9 km/h (3 Bft) 91,30 %
05.05.2026 13:51 23,4 °C 40,0 °C 11,7 °C 13,9 °C 15,6 °C 44 % 80 cb 53 cb 72 cb 1005,7 hPa 0,0 l/m² 8,0 km/h (2 Bft) N 360 ° 1 min 0,000 mm 4,4 UV-I 851 W/m² 10,4 °C 22,9 °C 12,9 km/h (3 Bft) 100,00 %
05.05.2026 13:50 23,5 °C 40,0 °C 11,7 °C 13,9 °C 15,6 °C 43 % 80 cb 53 cb 72 cb 1005,8 hPa 0,0 l/m² 9,7 km/h (2 Bft) N 360 ° 1 min 0,000 mm 4,5 UV-I 840 W/m² 10,2 °C 22,6 °C 12,9 km/h (3 Bft) 91,30 %
05.05.2026 13:49 23,5 °C 40,0 °C 11,7 °C 13,9 °C 15,6 °C 44 % 80 cb 53 cb 72 cb 1005,8 hPa 0,0 l/m² 8,0 km/h (2 Bft) N 360 ° 1 min 0,000 mm 4,4 UV-I 842 W/m² 10,5 °C 23,0 °C 12,9 km/h (3 Bft) 95,65 %
05.05.2026 13:48 23,3 °C 38,9 °C 11,7 °C 13,9 °C 15,6 °C 48 % 80 cb 53 cb 72 cb 1005,8 hPa 0,0 l/m² 4,8 km/h (1 Bft) N 360 ° 1 min 0,000 mm 4,6 UV-I 856 W/m² 11,7 °C 23,3 °C 8,0 km/h (2 Bft) 91,30 %
05.05.2026 13:47 23,3 °C 37,8 °C 11,7 °C 13,9 °C 15,6 °C 43 % 80 cb 53 cb 72 cb 1005,8 hPa 0,0 l/m² 4,8 km/h (1 Bft) N 360 ° 1 min 0,000 mm 4,5 UV-I 809 W/m² 10,0 °C 23,3 °C 8,0 km/h (2 Bft) 95,65 %
05.05.2026 13:46 23,3 °C 36,7 °C 11,7 °C 13,9 °C 15,6 °C 43 % 80 cb 53 cb 72 cb 1005,8 hPa 0,0 l/m² 4,8 km/h (1 Bft) N 360 ° 1 min 0,000 mm 4,4 UV-I 809 W/m² 10,0 °C 23,3 °C 8,0 km/h (2 Bft) 86,96 %
05.05.2026 13:45 23,2 °C 36,1 °C 11,7 °C 13,9 °C 15,6 °C 43 % 80 cb 53 cb 72 cb 1005,8 hPa 0,0 l/m² 8,0 km/h (2 Bft) N 360 ° 1 min 0,000 mm 4,2 UV-I 782 W/m² 9,9 °C 22,7 °C 9,7 km/h (2 Bft) 100,00 %
05.05.2026 13:44 23,2 °C 35,6 °C 11,7 °C 13,9 °C 15,6 °C 41 % 80 cb 53 cb 72 cb 1005,8 hPa 0,0 l/m² 8,0 km/h (2 Bft) N 360 ° 1 min 0,000 mm 4,3 UV-I 788 W/m² 9,2 °C 22,7 °C 9,7 km/h (2 Bft) 91,30 %
05.05.2026 13:43 23,2 °C 35,6 °C 11,7 °C 13,9 °C 15,6 °C 40 % 80 cb 53 cb 72 cb 1005,8 hPa 0,0 l/m² 9,7 km/h (2 Bft) N 360 ° 1 min 0,000 mm 3,9 UV-I 705 W/m² 8,8 °C 22,3 °C 14,5 km/h (3 Bft) 95,65 %
05.05.2026 13:42 23,1 °C 35,0 °C 11,7 °C 13,9 °C 15,6 °C 41 % 80 cb 53 cb 72 cb 1005,8 hPa 0,0 l/m² 9,7 km/h (2 Bft) N 360 ° 1 min 0,000 mm 3,9 UV-I 693 W/m² 9,1 °C 22,1 °C 14,5 km/h (3 Bft) 91,30 %
05.05.2026 13:41 23,1 °C 35,0 °C 11,7 °C 13,9 °C 15,6 °C 41 % 80 cb 53 cb 72 cb 1005,8 hPa 0,0 l/m² 8,0 km/h (2 Bft) N 360 ° 1 min 0,000 mm 3,8 UV-I 657 W/m² 9,1 °C 22,6 °C 14,5 km/h (3 Bft) 91,30 %
05.05.2026 13:40 23,1 °C 35,0 °C 11,7 °C 13,9 °C 15,6 °C 42 % 80 cb 53 cb 72 cb 1005,8 hPa 0,0 l/m² 11,3 km/h (2 Bft) N 360 ° 1 min 0,000 mm 4,0 UV-I 573 W/m² 9,5 °C 21,8 °C 14,5 km/h (3 Bft) 95,65 %
05.05.2026 13:39 23,1 °C 35,0 °C 11,7 °C 13,9 °C 15,6 °C 42 % 80 cb 53 cb 72 cb 1005,8 hPa 0,0 l/m² 11,3 km/h (2 Bft) N 360 ° 1 min 0,000 mm 3,5 UV-I 573 W/m² 9,5 °C 21,8 °C 14,5 km/h (3 Bft) 100,00 %
05.05.2026 13:38 22,9 °C 35,0 °C 11,7 °C 13,9 °C 15,6 °C 43 % 80 cb 53 cb 72 cb 1005,7 hPa 0,0 l/m² 8,0 km/h (2 Bft) N 360 ° 1 min 0,000 mm 3,5 UV-I 592 W/m² 9,6 °C 22,4 °C 14,5 km/h (3 Bft) 95,65 %
05.05.2026 13:37 22,9 °C 34,4 °C 11,7 °C 13,9 °C 15,0 °C 43 % 80 cb 53 cb 71 cb 1005,6 hPa 0,0 l/m² 8,0 km/h (2 Bft) N 360 ° 1 min 0,000 mm 3,8 UV-I 701 W/m² 9,6 °C 22,4 °C 12,9 km/h (3 Bft) 91,30 %
05.05.2026 13:36 22,8 °C 33,9 °C 11,7 °C 13,9 °C 15,0 °C 45 % 80 cb 53 cb 71 cb 1005,7 hPa 0,0 l/m² 8,0 km/h (2 Bft) N 360 ° 1 min 0,000 mm 4,0 UV-I 722 W/m² 10,2 °C 22,3 °C 12,9 km/h (3 Bft) 95,65 %
05.05.2026 13:35 22,7 °C 33,9 °C 11,7 °C 13,9 °C 15,0 °C 50 % 80 cb 53 cb 71 cb 1005,8 hPa 0,0 l/m² 6,4 km/h (2 Bft) N 360 ° 1 min 0,000 mm 3,9 UV-I 701 W/m² 11,7 °C 22,7 °C 11,3 km/h (2 Bft) 86,96 %
05.05.2026 13:34 22,8 °C 33,9 °C 11,7 °C 13,9 °C 15,0 °C 49 % 80 cb 53 cb 71 cb 1005,8 hPa 0,0 l/m² 11,3 km/h (2 Bft) N 360 ° 1 min 0,000 mm 3,7 UV-I 610 W/m² 11,5 °C 21,4 °C 14,5 km/h (3 Bft) 91,30 %
05.05.2026 13:33 22,7 °C 33,9 °C 11,7 °C 13,9 °C 15,0 °C 48 % 80 cb 53 cb 71 cb 1005,9 hPa 0,0 l/m² 11,3 km/h (2 Bft) N 360 ° 1 min 0,000 mm 3,9 UV-I 670 W/m² 11,1 °C 21,3 °C 17,7 km/h (3 Bft) 91,30 %
05.05.2026 13:32 22,7 °C 33,9 °C 11,7 °C 13,9 °C 15,0 °C 48 % 80 cb 53 cb 71 cb 1005,8 hPa 0,0 l/m² 16,1 km/h (3 Bft) N 360 ° 1 min 0,000 mm 3,9 UV-I 703 W/m² 11,1 °C 20,3 °C 19,3 km/h (3 Bft) 95,65 %
05.05.2026 13:31 22,6 °C 34,4 °C 11,7 °C 13,9 °C 15,0 °C 50 % 80 cb 53 cb 71 cb 1005,8 hPa 0,0 l/m² 12,9 km/h (3 Bft) N 360 ° 1 min 0,000 mm 3,8 UV-I 638 W/m² 11,6 °C 20,8 °C 16,1 km/h (3 Bft) 91,30 %
05.05.2026 13:30 22,6 °C 34,4 °C 11,7 °C 13,9 °C 15,0 °C 48 % 80 cb 53 cb 71 cb 1005,9 hPa 0,0 l/m² 8,0 km/h (2 Bft) N 360 ° 1 min 0,000 mm 4,0 UV-I 664 W/m² 11,0 °C 22,1 °C 14,5 km/h (3 Bft) 95,65 %
05.05.2026 13:29 22,6 °C 33,9 °C 11,7 °C 13,3 °C 15,0 °C 48 % 80 cb 52 cb 71 cb 1005,8 hPa 0,0 l/m² 9,7 km/h (2 Bft) N 360 ° 1 min 0,000 mm 3,8 UV-I 606 W/m² 11,0 °C 21,6 °C 12,9 km/h (3 Bft) 95,65 %
05.05.2026 13:28 22,6 °C 33,3 °C 11,7 °C 13,3 °C 15,0 °C 45 % 80 cb 52 cb 71 cb 1005,8 hPa 0,0 l/m² 6,4 km/h (2 Bft) N 360 ° 1 min 0,000 mm 3,8 UV-I 606 W/m² 10,1 °C 22,6 °C 9,7 km/h (2 Bft) 91,30 %
05.05.2026 13:27 22,7 °C 33,9 °C 11,7 °C 13,3 °C 15,0 °C 47 % 80 cb 52 cb 71 cb 1005,8 hPa 0,0 l/m² 11,3 km/h (2 Bft) N 360 ° 1 min 0,000 mm 3,6 UV-I 606 W/m² 10,8 °C 21,3 °C 14,5 km/h (3 Bft) 100,00 %
05.05.2026 13:26 22,7 °C 33,9 °C 11,7 °C 13,3 °C 15,0 °C 45 % 80 cb 52 cb 71 cb 1005,8 hPa 0,0 l/m² 12,9 km/h (3 Bft) N 360 ° 1 min 0,000 mm 3,7 UV-I 643 W/m² 10,1 °C 20,9 °C 17,7 km/h (3 Bft) 91,30 %
05.05.2026 13:25 22,7 °C 33,9 °C 11,7 °C 13,3 °C 15,0 °C 46 % 80 cb 52 cb 71 cb 1005,9 hPa 0,0 l/m² 11,3 km/h (2 Bft) N 360 ° 1 min 0,000 mm 3,9 UV-I 679 W/m² 10,5 °C 21,3 °C 14,5 km/h (3 Bft) 95,65 %
05.05.2026 13:24 22,8 °C 33,9 °C 11,7 °C 13,3 °C 15,0 °C 45 % 80 cb 52 cb 71 cb 1006,0 hPa 0,0 l/m² 12,9 km/h (3 Bft) N 360 ° 1 min 0,000 mm 3,9 UV-I 663 W/m² 10,2 °C 21,1 °C 17,7 km/h (3 Bft) 95,65 %
05.05.2026 13:23 22,8 °C 33,3 °C 11,7 °C 13,3 °C 15,0 °C 47 % 80 cb 52 cb 71 cb 1005,9 hPa 0,0 l/m² 11,3 km/h (2 Bft) N 360 ° 1 min 0,000 mm 3,9 UV-I 726 W/m² 10,9 °C 21,4 °C 17,7 km/h (3 Bft) 95,65 %
05.05.2026 13:22 22,8 °C 32,8 °C 11,7 °C 13,3 °C 15,0 °C 46 % 80 cb 52 cb 71 cb 1005,9 hPa 0,0 l/m² 11,3 km/h (2 Bft) N 360 ° 1 min 0,000 mm 4,0 UV-I 745 W/m² 10,6 °C 21,4 °C 14,5 km/h (3 Bft) 91,30 %
05.05.2026 13:21 22,8 °C 32,2 °C 11,7 °C 13,3 °C 15,0 °C 46 % 80 cb 52 cb 71 cb 1006,0 hPa 0,0 l/m² 14,5 km/h (3 Bft) N 360 ° 1 min 0,000 mm 3,9 UV-I 687 W/m² 10,6 °C 20,7 °C 17,7 km/h (3 Bft) 95,65 %
05.05.2026 13:20 22,9 °C 32,8 °C 11,7 °C 13,3 °C 15,0 °C 46 % 80 cb 52 cb 71 cb 1006,0 hPa 0,0 l/m² 16,1 km/h (3 Bft) N 360 ° 1 min 0,000 mm 3,5 UV-I 624 W/m² 10,7 °C 20,6 °C 17,7 km/h (3 Bft) 91,30 %
05.05.2026 13:19 23,0 °C 33,3 °C 11,7 °C 13,3 °C 15,0 °C 46 % 80 cb 52 cb 71 cb 1006,0 hPa 0,0 l/m² 17,7 km/h (3 Bft) N 360 ° 1 min 0,000 mm 3,4 UV-I 540 W/m² 10,7 °C 20,4 °C 20,9 km/h (4 Bft) 91,30 %
05.05.2026 13:18 23,1 °C 33,9 °C 11,7 °C 13,3 °C 15,0 °C 47 % 80 cb 52 cb 71 cb 1006,0 hPa 0,0 l/m² 16,1 km/h (3 Bft) N 360 ° 1 min 0,000 mm 3,3 UV-I 515 W/m² 11,2 °C 20,8 °C 19,3 km/h (3 Bft) 95,65 %
05.05.2026 13:17 23,0 °C 35,0 °C 11,7 °C 13,3 °C 15,0 °C 49 % 80 cb 52 cb 71 cb 1006,0 hPa 0,0 l/m² 16,1 km/h (3 Bft) N 360 ° 1 min 0,000 mm 3,3 UV-I 512 W/m² 11,7 °C 20,7 °C 19,3 km/h (3 Bft) 91,30 %
05.05.2026 13:16 23,0 °C 35,6 °C 11,7 °C 13,3 °C 15,0 °C 48 % 80 cb 52 cb 71 cb 1006,0 hPa 0,0 l/m² 12,9 km/h (3 Bft) N 360 ° 1 min 0,000 mm 3,3 UV-I 529 W/m² 11,4 °C 21,3 °C 19,3 km/h (3 Bft) 91,30 %
05.05.2026 13:15 23,0 °C 35,6 °C 11,7 °C 13,3 °C 15,0 °C 48 % 80 cb 52 cb 71 cb 1006,1 hPa 0,0 l/m² 14,5 km/h (3 Bft) N 360 ° 1 min 0,000 mm 3,8 UV-I 598 W/m² 11,4 °C 21,0 °C 17,7 km/h (3 Bft) 95,65 %
05.05.2026 13:14 22,9 °C 35,6 °C 11,7 °C 13,3 °C 15,0 °C 48 % 80 cb 52 cb 71 cb 1006,0 hPa 0,0 l/m² 12,9 km/h (3 Bft) N 360 ° 1 min 0,000 mm 4,0 UV-I 696 W/m² 11,3 °C 21,2 °C 16,1 km/h (3 Bft) 95,65 %
05.05.2026 13:13 22,9 °C 35,6 °C 11,7 °C 13,3 °C 15,0 °C 47 % 80 cb 52 cb 71 cb 1006,0 hPa 0,0 l/m² 9,7 km/h (2 Bft) N 360 ° 1 min 0,000 mm 4,2 UV-I 784 W/m² 11,0 °C 21,9 °C 12,9 km/h (3 Bft) 91,30 %
05.05.2026 13:12 22,8 °C 35,0 °C 11,7 °C 13,3 °C 15,0 °C 48 % 80 cb 52 cb 71 cb 1006,0 hPa 0,0 l/m² 11,3 km/h (2 Bft) N 360 ° 1 min 0,000 mm 4,0 UV-I 735 W/m² 11,2 °C 21,4 °C 14,5 km/h (3 Bft) 100,00 %
05.05.2026 13:11 22,8 °C 34,4 °C 11,7 °C 13,3 °C 15,0 °C 48 % 80 cb 52 cb 71 cb 1006,1 hPa 0,0 l/m² 9,7 km/h (2 Bft) N 360 ° 1 min 0,000 mm 4,2 UV-I 780 W/m² 11,2 °C 21,8 °C 12,9 km/h (3 Bft) 91,30 %
05.05.2026 13:10 22,7 °C 34,4 °C 11,7 °C 13,3 °C 15,0 °C 48 % 80 cb 52 cb 71 cb 1006,1 hPa 0,0 l/m² 12,9 km/h (3 Bft) N 360 ° 1 min 0,000 mm 4,0 UV-I 735 W/m² 11,1 °C 20,9 °C 16,1 km/h (3 Bft) 95,65 %
05.05.2026 13:09 22,7 °C 33,9 °C 11,7 °C 13,3 °C 15,0 °C 49 % 80 cb 52 cb 71 cb 1006,1 hPa 0,0 l/m² 12,9 km/h (3 Bft) N 360 ° 1 min 0,000 mm 4,1 UV-I 780 W/m² 11,4 °C 20,9 °C 17,7 km/h (3 Bft) 91,30 %
05.05.2026 13:08 22,7 °C 33,9 °C 11,7 °C 13,3 °C 15,0 °C 49 % 80 cb 52 cb 71 cb 1006,1 hPa 0,0 l/m² 14,5 km/h (3 Bft) N 360 ° 1 min 0,000 mm 3,9 UV-I 707 W/m² 11,4 °C 20,6 °C 17,7 km/h (3 Bft) 95,65 %
05.05.2026 13:07 22,7 °C 34,4 °C 11,7 °C 13,3 °C 15,0 °C 48 % 80 cb 52 cb 71 cb 1006,1 hPa 0,0 l/m² 16,1 km/h (3 Bft) N 360 ° 1 min 0,000 mm 3,7 UV-I 670 W/m² 11,1 °C 20,3 °C 19,3 km/h (3 Bft) 95,65 %
05.05.2026 13:06 22,7 °C 35,0 °C 11,7 °C 13,3 °C 15,0 °C 48 % 80 cb 52 cb 71 cb 1006,1 hPa 0,0 l/m² 14,5 km/h (3 Bft) N 360 ° 1 min 0,000 mm 3,8 UV-I 659 W/m² 11,1 °C 20,6 °C 17,7 km/h (3 Bft) 86,96 %
05.05.2026 13:05 22,8 °C 35,0 °C 11,7 °C 13,3 °C 15,0 °C 50 % 80 cb 52 cb 71 cb 1006,1 hPa 0,0 l/m² 12,9 km/h (3 Bft) N 360 ° 1 min 0,000 mm 3,7 UV-I 635 W/m² 11,8 °C 21,1 °C 16,1 km/h (3 Bft) 100,00 %
05.05.2026 13:04 22,7 °C 35,6 °C 11,7 °C 13,3 °C 15,0 °C 49 % 80 cb 52 cb 71 cb 1006,2 hPa 0,0 l/m² 11,3 km/h (2 Bft) N 360 ° 1 min 0,000 mm 3,8 UV-I 680 W/m² 11,4 °C 21,3 °C 16,1 km/h (3 Bft) 91,30 %
05.05.2026 13:03 22,7 °C 35,6 °C 11,7 °C 13,3 °C 15,0 °C 51 % 80 cb 52 cb 71 cb 1006,2 hPa 0,0 l/m² 9,7 km/h (2 Bft) N 360 ° 1 min 0,000 mm 3,5 UV-I 647 W/m² 12,0 °C 21,7 °C 12,9 km/h (3 Bft) 95,65 %
05.05.2026 13:02 22,6 °C 35,6 °C 11,7 °C 13,3 °C 15,0 °C 56 % 80 cb 52 cb 71 cb 1006,2 hPa 0,0 l/m² 6,4 km/h (2 Bft) N 360 ° 1 min 0,000 mm 4,0 UV-I 635 W/m² 13,4 °C 22,6 °C 8,0 km/h (2 Bft) 95,65 %
05.05.2026 13:01 22,7 °C 35,6 °C 11,7 °C 13,3 °C 15,0 °C 51 % 80 cb 52 cb 71 cb 1006,2 hPa 0,0 l/m² 12,9 km/h (3 Bft) N 360 ° 1 min 0,000 mm 4,3 UV-I 861 W/m² 12,0 °C 20,9 °C 17,7 km/h (3 Bft) 91,30 %
05.05.2026 13:00 22,7 °C 35,6 °C 11,7 °C 13,3 °C 15,0 °C 51 % 80 cb 52 cb 71 cb 1006,2 hPa 0,0 l/m² 8,0 km/h (2 Bft) N 360 ° 1 min 0,635 mm 4,5 UV-I 633 W/m² 12,0 °C 22,2 °C 12,9 km/h (3 Bft) 86,96 %
05.05.2026 12:59 22,7 °C 36,1 °C 11,7 °C 13,3 °C 15,0 °C 54 % 80 cb 52 cb 71 cb 1006,2 hPa 0,0 l/m² 12,9 km/h (3 Bft) N 360 ° 1 min 0,000 mm 3,6 UV-I 633 W/m² 12,9 °C 20,9 °C 16,1 km/h (3 Bft) 100,00 %
05.05.2026 12:58 22,6 °C 36,7 °C 11,7 °C 13,3 °C 15,0 °C 51 % 80 cb 52 cb 71 cb 1006,3 hPa 0,0 l/m² 11,3 km/h (2 Bft) N 360 ° 1 min 0,000 mm 3,5 UV-I 596 W/m² 11,9 °C 21,2 °C 14,5 km/h (3 Bft) 91,30 %
05.05.2026 12:57 22,6 °C 37,2 °C 11,7 °C 13,3 °C 15,0 °C 54 % 80 cb 52 cb 71 cb 1006,2 hPa 0,0 l/m² 9,7 km/h (2 Bft) N 360 ° 1 min 0,000 mm 3,7 UV-I 561 W/m² 12,8 °C 21,6 °C 14,5 km/h (3 Bft) 95,65 %
05.05.2026 12:56 22,6 °C 37,2 °C 11,7 °C 13,3 °C 15,0 °C 57 % 80 cb 52 cb 71 cb 1006,2 hPa 0,0 l/m² 6,4 km/h (2 Bft) N 360 ° 1 min 0,000 mm 4,1 UV-I 752 W/m² 13,6 °C 22,6 °C 9,7 km/h (2 Bft) 95,65 %
05.05.2026 12:55 22,4 °C 37,2 °C 11,7 °C 13,3 °C 15,0 °C 53 % 80 cb 52 cb 71 cb 1006,3 hPa 0,0 l/m² 4,8 km/h (1 Bft) N 360 ° 1 min 0,000 mm 4,2 UV-I 765 W/m² 12,3 °C 22,4 °C 6,4 km/h (2 Bft) 91,30 %
05.05.2026 12:54 22,4 °C 36,7 °C 11,7 °C 13,3 °C 15,0 °C 53 % 80 cb 52 cb 71 cb 1006,3 hPa 0,0 l/m² 4,8 km/h (1 Bft) N 360 ° 1 min 0,000 mm 4,3 UV-I 795 W/m² 12,3 °C 22,4 °C 6,4 km/h (2 Bft) 95,65 %
05.05.2026 12:53 22,3 °C 36,7 °C 11,7 °C 13,3 °C 15,0 °C 53 % 80 cb 52 cb 71 cb 1006,3 hPa 0,0 l/m² 8,0 km/h (2 Bft) N 360 ° 1 min 0,000 mm 4,4 UV-I 840 W/m² 12,2 °C 21,8 °C 9,7 km/h (2 Bft) 95,65 %
05.05.2026 12:52 22,2 °C 36,1 °C 11,7 °C 13,3 °C 15,0 °C 52 % 80 cb 52 cb 71 cb 1006,3 hPa 0,0 l/m² 8,0 km/h (2 Bft) N 360 ° 1 min 0,000 mm 4,6 UV-I 877 W/m² 11,9 °C 21,7 °C 12,9 km/h (3 Bft) 95,65 %
05.05.2026 12:51 22,3 °C 35,6 °C 11,7 °C 13,3 °C 15,0 °C 52 % 80 cb 52 cb 71 cb 1006,2 hPa 0,0 l/m² 12,9 km/h (3 Bft) N 360 ° 1 min 0,000 mm 4,7 UV-I 884 W/m² 12,0 °C 20,5 °C 16,1 km/h (3 Bft) 91,30 %
05.05.2026 12:50 22,3 °C 36,1 °C 11,7 °C 13,3 °C 15,0 °C 53 % 80 cb 52 cb 71 cb 1006,3 hPa 0,0 l/m² 17,7 km/h (3 Bft) N 360 ° 1 min 0,000 mm 4,7 UV-I 889 W/m² 12,2 °C 19,5 °C 22,5 km/h (4 Bft) 100,00 %
05.05.2026 12:49 22,3 °C 36,7 °C 11,7 °C 13,3 °C 15,0 °C 54 % 80 cb 52 cb 71 cb 1006,3 hPa 0,0 l/m² 12,9 km/h (3 Bft) N 360 ° 1 min 0,000 mm 4,6 UV-I 881 W/m² 12,5 °C 20,5 °C 20,9 km/h (4 Bft) 91,30 %
05.05.2026 12:48 22,2 °C 36,7 °C 11,7 °C 13,3 °C 15,0 °C 52 % 80 cb 52 cb 71 cb 1006,3 hPa 0,0 l/m² 11,3 km/h (2 Bft) N 360 ° 1 min 0,000 mm 4,7 UV-I 893 W/m² 11,9 °C 20,7 °C 16,1 km/h (3 Bft) 95,65 %
05.05.2026 12:47 22,2 °C 36,1 °C 11,7 °C 13,3 °C 15,0 °C 52 % 80 cb 52 cb 71 cb 1006,3 hPa 0,0 l/m² 6,4 km/h (2 Bft) N 360 ° 1 min 0,000 mm 4,8 UV-I 895 W/m² 11,9 °C 22,2 °C 12,9 km/h (3 Bft) 95,65 %
05.05.2026 12:46 22,2 °C 36,1 °C 11,7 °C 13,3 °C 15,0 °C 54 % 81 cb 52 cb 71 cb 1006,2 hPa 0,0 l/m² 8,0 km/h (2 Bft) N 360 ° 1 min 0,000 mm 4,8 UV-I 896 W/m² 12,4 °C 21,7 °C 12,9 km/h (3 Bft) 95,65 %
05.05.2026 12:45 22,1 °C 36,1 °C 11,7 °C 13,3 °C 15,0 °C 60 % 81 cb 52 cb 71 cb 1006,4 hPa 0,0 l/m² 9,7 km/h (2 Bft) N 360 ° 1 min 0,000 mm 4,8 UV-I 898 W/m² 14,0 °C 21,0 °C 12,9 km/h (3 Bft) 91,30 %
05.05.2026 12:44 22,0 °C 36,1 °C 11,7 °C 13,3 °C 15,0 °C 53 % 81 cb 52 cb 71 cb 1006,4 hPa 0,0 l/m² 11,3 km/h (2 Bft) N 360 ° 1 min 0,000 mm 4,8 UV-I 891 W/m² 12,0 °C 20,5 °C 16,1 km/h (3 Bft) 91,30 %
05.05.2026 12:43 22,1 °C 36,1 °C 11,7 °C 13,3 °C 15,0 °C 54 % 81 cb 52 cb 71 cb 1006,4 hPa 0,0 l/m² 9,7 km/h (2 Bft) N 360 ° 1 min 0,000 mm 4,8 UV-I 896 W/m² 12,3 °C 21,0 °C 12,9 km/h (3 Bft) 95,65 %
05.05.2026 12:42 22,2 °C 37,2 °C 11,7 °C 13,3 °C 15,0 °C 54 % 81 cb 52 cb 71 cb 1006,5 hPa 0,0 l/m² 14,5 km/h (3 Bft) N 360 ° 1 min 0,000 mm 4,8 UV-I 895 W/m² 12,4 °C 20,0 °C 17,7 km/h (3 Bft) 91,30 %
05.05.2026 12:41 22,4 °C 38,3 °C 11,7 °C 13,3 °C 15,0 °C 54 % 81 cb 52 cb 71 cb 1006,4 hPa 0,0 l/m² 16,1 km/h (3 Bft) N 360 ° 1 min 0,000 mm 4,8 UV-I 884 W/m² 12,6 °C 20,0 °C 19,3 km/h (3 Bft) 95,65 %
05.05.2026 12:40 22,4 °C 38,3 °C 11,7 °C 13,3 °C 15,0 °C 56 % 81 cb 52 cb 71 cb 1006,4 hPa 0,0 l/m² 9,7 km/h (2 Bft) N 360 ° 1 min 0,000 mm 4,8 UV-I 893 W/m² 13,2 °C 21,4 °C 16,1 km/h (3 Bft) 91,30 %
05.05.2026 12:39 22,3 °C 37,8 °C 11,7 °C 13,3 °C 15,0 °C 53 % 81 cb 52 cb 71 cb 1006,5 hPa 0,0 l/m² 6,4 km/h (2 Bft) N 360 ° 1 min 0,000 mm 4,8 UV-I 893 W/m² 12,2 °C 22,3 °C 9,7 km/h (2 Bft) 91,30 %
05.05.2026 12:38 22,4 °C 37,8 °C 11,7 °C 13,3 °C 15,0 °C 53 % 81 cb 52 cb 71 cb 1006,5 hPa 0,0 l/m² 9,7 km/h (2 Bft) N 360 ° 1 min 0,000 mm 4,8 UV-I 891 W/m² 12,3 °C 21,4 °C 14,5 km/h (3 Bft) 91,30 %
05.05.2026 12:37 22,4 °C 38,3 °C 11,7 °C 13,3 °C 15,0 °C 53 % 81 cb 52 cb 71 cb 1006,5 hPa 0,0 l/m² 12,9 km/h (3 Bft) N 360 ° 1 min 0,000 mm 4,8 UV-I 889 W/m² 12,3 °C 20,6 °C 16,1 km/h (3 Bft) 86,96 %
05.05.2026 12:36 22,4 °C 38,3 °C 11,7 °C 13,3 °C 15,0 °C 53 % 81 cb 52 cb 71 cb 1006,6 hPa 0,0 l/m² 11,3 km/h (2 Bft) N 360 ° 1 min 0,000 mm 4,8 UV-I 884 W/m² 12,3 °C 21,0 °C 16,1 km/h (3 Bft) 91,30 %
05.05.2026 12:35 22,4 °C 39,4 °C 11,7 °C 13,3 °C 15,0 °C 52 % 81 cb 52 cb 71 cb 1006,6 hPa 0,0 l/m² 12,9 km/h (3 Bft) N 360 ° 1 min 0,000 mm 4,8 UV-I 888 W/m² 12,1 °C 20,6 °C 16,1 km/h (3 Bft) 100,00 %
05.05.2026 12:34 22,4 °C 39,4 °C 11,7 °C 13,3 °C 14,4 °C 51 % 81 cb 52 cb 70 cb 1006,5 hPa 0,0 l/m² 14,5 km/h (3 Bft) N 360 ° 1 min 0,000 mm 4,8 UV-I 886 W/m² 11,8 °C 20,3 °C 17,7 km/h (3 Bft) 86,96 %
05.05.2026 12:33 22,3 °C 39,4 °C 11,7 °C 13,3 °C 14,4 °C 53 % 81 cb 52 cb 70 cb 1006,6 hPa 0,0 l/m² 14,5 km/h (3 Bft) N 360 ° 1 min 0,000 mm 4,8 UV-I 884 W/m² 12,2 °C 20,1 °C 17,7 km/h (3 Bft) 86,96 %
05.05.2026 12:32 22,1 °C 39,4 °C 11,7 °C 13,3 °C 14,4 °C 54 % 81 cb 52 cb 70 cb 1006,5 hPa 0,0 l/m² 6,4 km/h (2 Bft) N 360 ° 1 min 0,000 mm 4,8 UV-I 872 W/m² 12,3 °C 22,1 °C 9,7 km/h (2 Bft) 95,65 %
05.05.2026 12:31 21,9 °C 38,9 °C 11,7 °C 13,3 °C 14,4 °C 53 % 81 cb 52 cb 70 cb 1006,5 hPa 0,0 l/m² 4,8 km/h (1 Bft) N 360 ° 1 min 0,000 mm 4,8 UV-I 879 W/m² 11,9 °C 21,9 °C 8,0 km/h (2 Bft) 86,96 %
05.05.2026 12:30 21,8 °C 38,3 °C 11,7 °C 13,3 °C 14,4 °C 53 % 81 cb 52 cb 70 cb 1006,6 hPa 0,0 l/m² 3,2 km/h (1 Bft) N 360 ° 1 min 0,000 mm 4,8 UV-I 882 W/m² 11,8 °C 21,8 °C 4,8 km/h (1 Bft) 95,65 %
05.05.2026 12:29 21,9 °C 37,8 °C 11,7 °C 13,3 °C 14,4 °C 53 % 81 cb 52 cb 70 cb 1006,6 hPa 0,0 l/m² 6,4 km/h (2 Bft) N 360 ° 1 min 0,000 mm 4,8 UV-I 879 W/m² 11,9 °C 21,9 °C 12,9 km/h (3 Bft) 95,65 %
05.05.2026 12:28 21,9 °C 37,2 °C 11,7 °C 13,3 °C 14,4 °C 52 % 81 cb 52 cb 70 cb 1006,6 hPa 0,0 l/m² 8,0 km/h (2 Bft) N 360 ° 1 min 0,000 mm 4,7 UV-I 858 W/m² 11,6 °C 21,3 °C 9,7 km/h (2 Bft) 95,65 %
05.05.2026 12:27 21,9 °C 37,2 °C 11,7 °C 13,3 °C 14,4 °C 52 % 81 cb 52 cb 70 cb 1006,6 hPa 0,0 l/m² 14,5 km/h (3 Bft) N 360 ° 1 min 0,000 mm 4,7 UV-I 872 W/m² 11,6 °C 19,7 °C 17,7 km/h (3 Bft) 86,96 %
05.05.2026 12:26 21,9 °C 37,2 °C 11,7 °C 13,3 °C 14,4 °C 52 % 81 cb 52 cb 70 cb 1006,6 hPa 0,0 l/m² 14,5 km/h (3 Bft) N 360 ° 1 min 0,000 mm 4,7 UV-I 853 W/m² 11,6 °C 19,7 °C 17,7 km/h (3 Bft) 95,65 %
05.05.2026 12:25 21,9 °C 36,7 °C 11,7 °C 13,3 °C 14,4 °C 52 % 81 cb 52 cb 70 cb 1006,6 hPa 0,0 l/m² 11,3 km/h (2 Bft) N 360 ° 1 min 0,000 mm 4,7 UV-I 851 W/m² 11,6 °C 20,4 °C 17,7 km/h (3 Bft) 82,61 %
05.05.2026 12:24 21,8 °C 36,7 °C 11,7 °C 13,3 °C 14,4 °C 55 % 81 cb 52 cb 70 cb 1006,7 hPa 0,0 l/m² 8,0 km/h (2 Bft) N 360 ° 1 min 0,000 mm 4,6 UV-I 856 W/m² 12,4 °C 21,2 °C 12,9 km/h (3 Bft) 95,65 %
05.05.2026 12:23 21,8 °C 36,1 °C 11,7 °C 13,3 °C 14,4 °C 55 % 81 cb 52 cb 70 cb 1006,7 hPa 0,0 l/m² 8,0 km/h (2 Bft) N 360 ° 1 min 0,000 mm 4,6 UV-I 860 W/m² 12,4 °C 21,2 °C 12,9 km/h (3 Bft) 91,30 %
05.05.2026 12:22 21,8 °C 36,7 °C 11,7 °C 13,3 °C 14,4 °C 56 % 81 cb 52 cb 70 cb 1006,7 hPa 0,0 l/m² 9,7 km/h (2 Bft) N 360 ° 1 min 0,000 mm 4,6 UV-I 840 W/m² 12,6 °C 20,7 °C 14,5 km/h (3 Bft) 91,30 %
05.05.2026 12:21 21,9 °C 37,2 °C 11,7 °C 13,3 °C 14,4 °C 56 % 81 cb 52 cb 70 cb 1006,7 hPa 0,0 l/m² 16,1 km/h (3 Bft) N 360 ° 1 min 0,000 mm 4,6 UV-I 867 W/m² 12,7 °C 19,3 °C 17,7 km/h (3 Bft) 95,65 %
05.05.2026 12:20 21,8 °C 37,8 °C 11,7 °C 13,3 °C 14,4 °C 55 % 81 cb 52 cb 70 cb 1006,8 hPa 0,0 l/m² 16,1 km/h (3 Bft) N 360 ° 1 min 0,000 mm 4,6 UV-I 858 W/m² 12,4 °C 19,2 °C 19,3 km/h (3 Bft) 82,61 %
05.05.2026 12:19 21,8 °C 38,3 °C 11,7 °C 13,3 °C 14,4 °C 56 % 81 cb 52 cb 70 cb 1006,7 hPa 0,0 l/m² 12,9 km/h (3 Bft) N 360 ° 1 min 0,000 mm 4,6 UV-I 823 W/m² 12,6 °C 19,9 °C 14,5 km/h (3 Bft) 95,65 %
05.05.2026 12:18 21,8 °C 39,4 °C 11,7 °C 13,3 °C 14,4 °C 56 % 81 cb 52 cb 70 cb 1006,8 hPa 0,0 l/m² 12,9 km/h (3 Bft) N 360 ° 1 min 0,000 mm 4,5 UV-I 826 W/m² 12,6 °C 19,9 °C 14,5 km/h (3 Bft) 86,96 %
05.05.2026 12:17 21,8 °C 39,4 °C 11,7 °C 13,3 °C 14,4 °C 57 % 81 cb 52 cb 70 cb 1006,8 hPa 0,0 l/m² 12,9 km/h (3 Bft) N 360 ° 1 min 0,000 mm 4,6 UV-I 840 W/m² 12,9 °C 19,9 °C 16,1 km/h (3 Bft) 95,65 %
05.05.2026 12:16 21,8 °C 39,4 °C 11,7 °C 13,3 °C 14,4 °C 57 % 81 cb 52 cb 70 cb 1006,8 hPa 0,0 l/m² 6,4 km/h (2 Bft) N 360 ° 1 min 0,000 mm 4,7 UV-I 856 W/m² 12,9 °C 21,8 °C 8,0 km/h (2 Bft) 91,30 %
05.05.2026 12:15 21,9 °C 39,4 °C 11,7 °C 13,3 °C 14,4 °C 56 % 81 cb 52 cb 70 cb 1006,8 hPa 0,0 l/m² 8,0 km/h (2 Bft) N 360 ° 1 min 0,000 mm 4,6 UV-I 865 W/m² 12,7 °C 21,3 °C 9,7 km/h (2 Bft) 95,65 %
05.05.2026 12:14 21,9 °C 39,4 °C 11,7 °C 13,3 °C 14,4 °C 57 % 81 cb 52 cb 70 cb 1006,8 hPa 0,0 l/m² 9,7 km/h (2 Bft) N 360 ° 1 min 0,000 mm 4,6 UV-I 860 W/m² 13,0 °C 20,8 °C 12,9 km/h (3 Bft) 73,91 %
05.05.2026 12:13 21,8 °C 40,0 °C 11,7 °C 13,3 °C 14,4 °C 56 % 81 cb 52 cb 70 cb 1006,8 hPa 0,0 l/m² 9,7 km/h (2 Bft) N 360 ° 1 min 0,000 mm 4,6 UV-I 846 W/m² 12,6 °C 20,7 °C 14,5 km/h (3 Bft) 95,65 %
05.05.2026 12:12 21,6 °C 39,4 °C 11,7 °C 13,3 °C 14,4 °C 57 % 81 cb 52 cb 70 cb 1006,8 hPa 0,0 l/m² 8,0 km/h (2 Bft) N 360 ° 1 min 0,000 mm 4,6 UV-I 838 W/m² 12,7 °C 21,0 °C 12,9 km/h (3 Bft) 86,96 %
05.05.2026 12:11 21,3 °C 39,4 °C 11,7 °C 13,3 °C 14,4 °C 58 % 81 cb 52 cb 70 cb 1006,8 hPa 0,0 l/m² 9,7 km/h (2 Bft) N 360 ° 1 min 0,000 mm 4,6 UV-I 844 W/m² 12,7 °C 20,2 °C 12,9 km/h (3 Bft) 91,30 %
05.05.2026 12:10 21,3 °C 39,4 °C 11,7 °C 13,3 °C 14,4 °C 57 % 81 cb 52 cb 70 cb 1006,7 hPa 0,0 l/m² 9,7 km/h (2 Bft) N 360 ° 1 min 0,000 mm 4,5 UV-I 842 W/m² 12,4 °C 20,2 °C 14,5 km/h (3 Bft) 95,65 %
05.05.2026 12:09 21,2 °C 39,4 °C 11,7 °C 13,3 °C 14,4 °C 60 % 81 cb 52 cb 70 cb 1006,7 hPa 0,0 l/m² 6,4 km/h (2 Bft) N 360 ° 1 min 0,000 mm 4,6 UV-I 844 W/m² 13,1 °C 21,2 °C 12,9 km/h (3 Bft) 86,96 %
05.05.2026 12:08 21,1 °C 38,3 °C 11,7 °C 13,3 °C 14,4 °C 58 % 81 cb 52 cb 70 cb 1006,8 hPa 0,0 l/m² 3,2 km/h (1 Bft) N 360 ° 1 min 0,000 mm 4,5 UV-I 816 W/m² 12,5 °C 21,1 °C 6,4 km/h (2 Bft) 86,96 %
05.05.2026 12:07 21,1 °C 37,8 °C 11,7 °C 13,3 °C 14,4 °C 58 % 81 cb 52 cb 70 cb 1006,8 hPa 0,0 l/m² 3,2 km/h (1 Bft) N 360 ° 1 min 0,000 mm 4,3 UV-I 791 W/m² 12,5 °C 21,1 °C 6,4 km/h (2 Bft) 91,30 %
05.05.2026 12:06 21,1 °C 37,2 °C 11,7 °C 13,3 °C 14,4 °C 57 % 81 cb 52 cb 70 cb 1006,8 hPa 0,0 l/m² 8,0 km/h (2 Bft) N 360 ° 1 min 0,000 mm 4,4 UV-I 816 W/m² 12,2 °C 20,5 °C 12,9 km/h (3 Bft) 95,65 %
05.05.2026 12:05 21,2 °C 38,3 °C 11,7 °C 13,3 °C 14,4 °C 56 % 81 cb 52 cb 70 cb 1006,8 hPa 0,0 l/m² 12,9 km/h (3 Bft) N 360 ° 1 min 0,000 mm 4,2 UV-I 763 W/m² 12,1 °C 19,2 °C 14,5 km/h (3 Bft) 86,96 %
05.05.2026 12:04 21,3 °C 38,9 °C 11,7 °C 13,3 °C 14,4 °C 55 % 81 cb 52 cb 70 cb 1006,8 hPa 0,0 l/m² 9,7 km/h (2 Bft) N 360 ° 1 min 0,000 mm 4,1 UV-I 749 W/m² 11,9 °C 20,2 °C 12,9 km/h (3 Bft) 100,00 %
05.05.2026 12:03 21,4 °C 39,4 °C 11,7 °C 13,3 °C 14,4 °C 56 % 81 cb 52 cb 70 cb 1006,8 hPa 0,0 l/m² 11,3 km/h (2 Bft) N 360 ° 1 min 0,000 mm 4,3 UV-I 788 W/m² 12,3 °C 19,8 °C 14,5 km/h (3 Bft) 86,96 %
05.05.2026 12:02 21,3 °C 38,9 °C 11,7 °C 13,3 °C 14,4 °C 57 % 81 cb 52 cb 70 cb 1006,8 hPa 0,0 l/m² 8,0 km/h (2 Bft) N 360 ° 1 min 0,000 mm 4,3 UV-I 763 W/m² 12,4 °C 20,7 °C 14,5 km/h (3 Bft) 95,65 %
05.05.2026 12:01 21,3 °C 38,3 °C 11,7 °C 13,3 °C 14,4 °C 54 % 81 cb 52 cb 70 cb 1006,8 hPa 0,0 l/m² 9,7 km/h (2 Bft) N 360 ° 1 min 0,000 mm 4,2 UV-I 770 W/m² 11,6 °C 20,2 °C 16,1 km/h (3 Bft) 86,96 %
05.05.2026 12:00 21,2 °C 37,8 °C 11,7 °C 13,3 °C 14,4 °C 56 % 81 cb 52 cb 70 cb 1006,8 hPa 0,0 l/m² 4,8 km/h (1 Bft) N 360 ° 1 min 0,559 mm 4,3 UV-I 798 W/m² 12,1 °C 21,2 °C 9,7 km/h (2 Bft) 91,30 %
05.05.2026 11:59 21,3 °C 37,8 °C 11,7 °C 13,3 °C 14,4 °C 57 % 81 cb 52 cb 70 cb 1006,9 hPa 0,0 l/m² 11,3 km/h (2 Bft) N 360 ° 1 min 0,000 mm 4,2 UV-I 749 W/m² 12,4 °C 19,7 °C 16,1 km/h (3 Bft) 91,30 %
05.05.2026 11:58 21,3 °C 37,8 °C 11,7 °C 13,3 °C 14,4 °C 57 % 81 cb 52 cb 70 cb 1006,9 hPa 0,0 l/m² 8,0 km/h (2 Bft) N 360 ° 1 min 0,000 mm 4,0 UV-I 719 W/m² 12,4 °C 20,7 °C 14,5 km/h (3 Bft) 95,65 %
05.05.2026 11:57 21,4 °C 38,3 °C 11,7 °C 13,3 °C 14,4 °C 57 % 81 cb 52 cb 70 cb 1006,8 hPa 0,0 l/m² 14,5 km/h (3 Bft) N 360 ° 1 min 0,000 mm 4,0 UV-I 707 W/m² 12,5 °C 19,1 °C 16,1 km/h (3 Bft) 86,96 %
05.05.2026 11:56 21,4 °C 38,9 °C 11,7 °C 13,3 °C 14,4 °C 61 % 81 cb 52 cb 70 cb 1006,9 hPa 0,0 l/m² 11,3 km/h (2 Bft) N 360 ° 1 min 0,000 mm 4,0 UV-I 715 W/m² 13,6 °C 19,8 °C 16,1 km/h (3 Bft) 91,30 %
05.05.2026 11:55 21,3 °C 38,9 °C 11,7 °C 13,3 °C 14,4 °C 61 % 81 cb 52 cb 69 cb 1006,9 hPa 0,0 l/m² 6,4 km/h (2 Bft) N 360 ° 1 min 0,000 mm 4,1 UV-I 737 W/m² 13,5 °C 21,3 °C 9,7 km/h (2 Bft) 95,65 %
05.05.2026 11:54 21,2 °C 38,9 °C 11,7 °C 13,3 °C 14,4 °C 59 % 81 cb 52 cb 69 cb 1007,0 hPa 0,0 l/m² 9,7 km/h (2 Bft) N 360 ° 1 min 0,000 mm 4,0 UV-I 719 W/m² 12,9 °C 20,1 °C 12,9 km/h (3 Bft) 86,96 %
05.05.2026 11:53 21,1 °C 38,9 °C 11,7 °C 13,3 °C 14,4 °C 60 % 82 cb 52 cb 69 cb 1006,9 hPa 0,0 l/m² 12,9 km/h (3 Bft) N 360 ° 1 min 0,000 mm 4,1 UV-I 740 W/m² 13,0 °C 19,1 °C 16,1 km/h (3 Bft) 86,96 %
05.05.2026 11:52 20,9 °C 38,9 °C 11,7 °C 13,3 °C 14,4 °C 61 % 82 cb 52 cb 69 cb 1006,8 hPa 0,0 l/m² 8,0 km/h (2 Bft) N 360 ° 1 min 0,000 mm 4,2 UV-I 786 W/m² 13,1 °C 20,3 °C 12,9 km/h (3 Bft) 86,96 %
05.05.2026 11:51 20,8 °C 39,4 °C 11,7 °C 13,3 °C 14,4 °C 60 % 82 cb 52 cb 69 cb 1007,0 hPa 0,0 l/m² 6,4 km/h (2 Bft) N 360 ° 1 min 0,000 mm 4,2 UV-I 795 W/m² 12,7 °C 20,8 °C 8,0 km/h (2 Bft) 95,65 %
05.05.2026 11:50 20,8 °C 39,4 °C 11,7 °C 13,3 °C 14,4 °C 61 % 82 cb 52 cb 69 cb 1007,0 hPa 0,0 l/m² 9,7 km/h (2 Bft) N 360 ° 1 min 0,000 mm 4,3 UV-I 800 W/m² 13,0 °C 19,6 °C 12,9 km/h (3 Bft) 86,96 %
05.05.2026 11:49 20,8 °C 38,9 °C 11,7 °C 13,3 °C 14,4 °C 62 % 82 cb 52 cb 69 cb 1007,0 hPa 0,0 l/m² 6,4 km/h (2 Bft) N 360 ° 1 min 0,000 mm 4,2 UV-I 775 W/m² 13,2 °C 20,8 °C 9,7 km/h (2 Bft) 95,65 %
05.05.2026 11:48 20,8 °C 38,3 °C 11,7 °C 13,3 °C 14,4 °C 61 % 82 cb 52 cb 69 cb 1007,0 hPa 0,0 l/m² 4,8 km/h (1 Bft) N 360 ° 1 min 0,000 mm 4,2 UV-I 759 W/m² 13,0 °C 20,8 °C 4,8 km/h (1 Bft) 91,30 %
05.05.2026 11:47 21,0 °C 38,3 °C 11,7 °C 13,3 °C 14,4 °C 59 % 82 cb 52 cb 69 cb 1007,0 hPa 0,0 l/m² 6,4 km/h (2 Bft) N 360 ° 1 min 0,000 mm 4,2 UV-I 789 W/m² 12,7 °C 21,0 °C 9,7 km/h (2 Bft) 91,30 %
05.05.2026 11:46 21,0 °C 37,8 °C 11,7 °C 13,3 °C 14,4 °C 60 % 82 cb 52 cb 69 cb 1007,0 hPa 0,0 l/m² 8,0 km/h (2 Bft) N 360 ° 1 min 0,000 mm 4,2 UV-I 795 W/m² 12,9 °C 20,4 °C 14,5 km/h (3 Bft) 91,30 %
05.05.2026 11:45 21,0 °C 37,2 °C 11,7 °C 13,3 °C 14,4 °C 60 % 82 cb 52 cb 69 cb 1007,0 hPa 0,0 l/m² 14,5 km/h (3 Bft) N 360 ° 1 min 0,000 mm 4,2 UV-I 784 W/m² 12,9 °C 18,6 °C 17,7 km/h (3 Bft) 86,96 %
05.05.2026 11:44 20,9 °C 37,2 °C 11,7 °C 13,3 °C 14,4 °C 60 % 82 cb 52 cb 69 cb 1007,0 hPa 0,0 l/m² 16,1 km/h (3 Bft) N 360 ° 1 min 0,000 mm 4,2 UV-I 807 W/m² 12,8 °C 18,1 °C 19,3 km/h (3 Bft) 91,30 %
05.05.2026 11:43 20,8 °C 37,2 °C 11,7 °C 13,3 °C 14,4 °C 61 % 82 cb 52 cb 69 cb 1007,1 hPa 0,0 l/m² 12,9 km/h (3 Bft) N 360 ° 1 min 0,000 mm 4,3 UV-I 812 W/m² 13,0 °C 18,7 °C 17,7 km/h (3 Bft) 95,65 %
05.05.2026 11:42 20,8 °C 37,2 °C 11,7 °C 13,3 °C 14,4 °C 60 % 82 cb 52 cb 69 cb 1007,1 hPa 0,0 l/m² 12,9 km/h (3 Bft) N 360 ° 1 min 0,000 mm 4,3 UV-I 821 W/m² 12,7 °C 18,7 °C 22,5 km/h (4 Bft) 91,30 %
05.05.2026 11:41 20,9 °C 37,8 °C 11,7 °C 13,3 °C 14,4 °C 61 % 82 cb 52 cb 69 cb 1007,1 hPa 0,0 l/m² 14,5 km/h (3 Bft) N 360 ° 1 min 0,000 mm 4,3 UV-I 835 W/m² 13,1 °C 18,5 °C 19,3 km/h (3 Bft) 86,96 %
05.05.2026 11:40 20,8 °C 37,8 °C 11,7 °C 13,3 °C 14,4 °C 60 % 82 cb 52 cb 69 cb 1007,1 hPa 0,0 l/m² 12,9 km/h (3 Bft) N 360 ° 1 min 0,000 mm 4,3 UV-I 844 W/m² 12,7 °C 18,7 °C 16,1 km/h (3 Bft) 95,65 %
05.05.2026 11:39 20,9 °C 37,8 °C 11,7 °C 13,3 °C 14,4 °C 62 % 82 cb 52 cb 69 cb 1007,1 hPa 0,0 l/m² 11,3 km/h (2 Bft) N 360 ° 1 min 0,000 mm 4,2 UV-I 803 W/m² 13,3 °C 19,3 °C 14,5 km/h (3 Bft) 91,30 %
05.05.2026 11:38 20,9 °C 38,3 °C 11,7 °C 13,3 °C 14,4 °C 60 % 82 cb 52 cb 69 cb 1007,0 hPa 0,0 l/m² 12,9 km/h (3 Bft) N 360 ° 1 min 0,000 mm 4,2 UV-I 821 W/m² 12,8 °C 18,8 °C 16,1 km/h (3 Bft) 82,61 %
05.05.2026 11:37 21,1 °C 38,9 °C 11,7 °C 13,3 °C 14,4 °C 60 % 82 cb 52 cb 69 cb 1007,1 hPa 0,0 l/m² 12,9 km/h (3 Bft) N 360 ° 1 min 0,000 mm 4,2 UV-I 798 W/m² 13,0 °C 19,1 °C 17,7 km/h (3 Bft) 100,00 %
05.05.2026 11:36 21,1 °C 38,9 °C 11,7 °C 13,3 °C 13,9 °C 62 % 82 cb 52 cb 69 cb 1007,0 hPa 0,0 l/m² 8,0 km/h (2 Bft) N 360 ° 1 min 0,000 mm 4,3 UV-I 809 W/m² 13,5 °C 20,5 °C 12,9 km/h (3 Bft) 86,96 %
05.05.2026 11:35 20,9 °C 38,3 °C 11,7 °C 13,3 °C 13,9 °C 60 % 82 cb 52 cb 69 cb 1007,1 hPa 0,0 l/m² 11,3 km/h (2 Bft) N 360 ° 1 min 0,000 mm 4,3 UV-I 821 W/m² 12,8 °C 19,3 °C 14,5 km/h (3 Bft) 86,96 %
05.05.2026 11:34 20,8 °C 37,8 °C 11,7 °C 13,3 °C 13,9 °C 60 % 82 cb 52 cb 69 cb 1007,1 hPa 0,0 l/m² 6,4 km/h (2 Bft) N 360 ° 1 min 0,000 mm 4,2 UV-I 821 W/m² 12,7 °C 20,8 °C 12,9 km/h (3 Bft) 91,30 %
05.05.2026 11:33 20,8 °C 37,2 °C 11,7 °C 13,3 °C 13,9 °C 61 % 82 cb 52 cb 69 cb 1007,1 hPa 0,0 l/m² 6,4 km/h (2 Bft) N 360 ° 1 min 0,000 mm 4,2 UV-I 796 W/m² 13,0 °C 20,8 °C 9,7 km/h (2 Bft) 91,30 %
05.05.2026 11:32 20,6 °C 36,7 °C 11,7 °C 13,3 °C 13,9 °C 61 % 82 cb 52 cb 69 cb 1007,1 hPa 0,0 l/m² 4,8 km/h (1 Bft) N 360 ° 1 min 0,000 mm 4,1 UV-I 775 W/m² 12,8 °C 20,6 °C 8,0 km/h (2 Bft) 91,30 %
05.05.2026 11:31 20,7 °C 36,1 °C 11,7 °C 13,3 °C 13,9 °C 62 % 82 cb 52 cb 69 cb 1007,2 hPa 0,0 l/m² 4,8 km/h (1 Bft) N 360 ° 1 min 0,000 mm 4,0 UV-I 752 W/m² 13,2 °C 20,7 °C 6,4 km/h (2 Bft) 91,30 %
05.05.2026 11:30 20,7 °C 35,6 °C 11,7 °C 13,3 °C 13,9 °C 60 % 82 cb 52 cb 69 cb 1007,2 hPa 0,0 l/m² 6,4 km/h (2 Bft) N 360 ° 1 min 0,000 mm 3,9 UV-I 737 W/m² 12,7 °C 20,7 °C 8,0 km/h (2 Bft) 95,65 %
05.05.2026 11:29 20,7 °C 35,6 °C 11,7 °C 13,3 °C 13,9 °C 59 % 82 cb 52 cb 69 cb 1007,2 hPa 0,0 l/m² 6,4 km/h (2 Bft) N 360 ° 1 min 0,000 mm 3,7 UV-I 719 W/m² 12,4 °C 20,7 °C 12,9 km/h (3 Bft) 82,61 %
05.05.2026 11:28 20,8 °C 35,6 °C 11,7 °C 13,3 °C 13,9 °C 59 % 82 cb 52 cb 69 cb 1007,3 hPa 0,0 l/m² 11,3 km/h (2 Bft) N 360 ° 1 min 0,000 mm 3,6 UV-I 640 W/m² 12,5 °C 19,1 °C 14,5 km/h (3 Bft) 86,96 %
05.05.2026 11:27 20,7 °C 36,1 °C 11,7 °C 13,3 °C 13,9 °C 60 % 82 cb 52 cb 69 cb 1007,2 hPa 0,0 l/m² 12,9 km/h (3 Bft) N 360 ° 1 min 0,000 mm 3,7 UV-I 708 W/m² 12,7 °C 18,6 °C 16,1 km/h (3 Bft) 91,30 %
05.05.2026 11:26 20,8 °C 36,7 °C 11,7 °C 13,3 °C 13,9 °C 59 % 82 cb 52 cb 69 cb 1007,2 hPa 0,0 l/m² 12,9 km/h (3 Bft) N 360 ° 1 min 0,000 mm 3,8 UV-I 724 W/m² 12,5 °C 18,7 °C 16,1 km/h (3 Bft) 95,65 %
05.05.2026 11:25 20,7 °C 36,7 °C 11,7 °C 13,3 °C 13,9 °C 59 % 82 cb 52 cb 69 cb 1007,3 hPa 0,0 l/m² 11,3 km/h (2 Bft) N 360 ° 1 min 0,000 mm 3,4 UV-I 680 W/m² 12,4 °C 19,0 °C 16,1 km/h (3 Bft) 82,61 %
05.05.2026 11:24 20,6 °C 36,7 °C 11,7 °C 13,3 °C 13,9 °C 59 % 82 cb 52 cb 69 cb 1007,2 hPa 0,0 l/m² 6,4 km/h (2 Bft) N 360 ° 1 min 0,000 mm 3,8 UV-I 715 W/m² 12,3 °C 20,6 °C 9,7 km/h (2 Bft) 100,00 %
05.05.2026 11:23 20,7 °C 36,7 °C 11,7 °C 13,3 °C 13,9 °C 61 % 82 cb 52 cb 69 cb 1007,2 hPa 0,0 l/m² 8,0 km/h (2 Bft) N 360 ° 1 min 0,000 mm 3,9 UV-I 766 W/m² 12,9 °C 20,1 °C 9,7 km/h (2 Bft) 86,96 %
05.05.2026 11:22 20,7 °C 36,7 °C 11,7 °C 13,3 °C 13,9 °C 60 % 82 cb 52 cb 69 cb 1007,3 hPa 0,0 l/m² 11,3 km/h (2 Bft) N 360 ° 1 min 0,000 mm 4,0 UV-I 775 W/m² 12,7 °C 19,0 °C 16,1 km/h (3 Bft) 91,30 %
05.05.2026 11:21 20,6 °C 36,7 °C 11,7 °C 13,3 °C 13,9 °C 64 % 82 cb 52 cb 69 cb 1007,2 hPa 0,0 l/m² 8,0 km/h (2 Bft) N 360 ° 1 min 0,000 mm 4,0 UV-I 791 W/m² 13,5 °C 20,0 °C 14,5 km/h (3 Bft) 86,96 %
05.05.2026 11:20 20,6 °C 36,7 °C 11,7 °C 13,3 °C 13,9 °C 63 % 82 cb 52 cb 69 cb 1007,3 hPa 0,0 l/m² 9,7 km/h (2 Bft) N 360 ° 1 min 0,000 mm 4,0 UV-I 795 W/m² 13,3 °C 19,4 °C 12,9 km/h (3 Bft) 91,30 %
05.05.2026 11:19 20,4 °C 36,7 °C 11,7 °C 13,3 °C 13,9 °C 61 % 82 cb 52 cb 69 cb 1007,2 hPa 0,0 l/m² 11,3 km/h (2 Bft) N 360 ° 1 min 0,000 mm 4,0 UV-I 791 W/m² 12,6 °C 18,7 °C 14,5 km/h (3 Bft) 91,30 %
05.05.2026 11:18 20,4 °C 36,7 °C 11,7 °C 13,3 °C 13,9 °C 65 % 82 cb 52 cb 69 cb 1007,2 hPa 0,0 l/m² 12,9 km/h (3 Bft) N 360 ° 1 min 0,000 mm 4,0 UV-I 789 W/m² 13,6 °C 18,2 °C 17,7 km/h (3 Bft) 95,65 %
05.05.2026 11:17 20,3 °C 36,7 °C 11,7 °C 13,3 °C 13,9 °C 62 % 82 cb 52 cb 69 cb 1007,3 hPa 0,0 l/m² 9,7 km/h (2 Bft) N 360 ° 1 min 0,000 mm 4,0 UV-I 789 W/m² 12,8 °C 19,1 °C 12,9 km/h (3 Bft) 91,30 %
05.05.2026 11:16 20,2 °C 36,1 °C 11,7 °C 13,3 °C 13,9 °C 64 % 82 cb 52 cb 69 cb 1007,1 hPa 0,0 l/m² 6,4 km/h (2 Bft) N 360 ° 1 min 0,000 mm 4,0 UV-I 800 W/m² 13,2 °C 20,2 °C 9,7 km/h (2 Bft) 86,96 %
05.05.2026 11:15 20,2 °C 35,6 °C 11,7 °C 13,3 °C 13,9 °C 62 % 82 cb 52 cb 68 cb 1007,2 hPa 0,0 l/m² 6,4 km/h (2 Bft) N 360 ° 1 min 0,000 mm 4,0 UV-I 796 W/m² 12,7 °C 20,2 °C 9,7 km/h (2 Bft) 95,65 %
05.05.2026 11:14 20,4 °C 35,6 °C 11,7 °C 13,3 °C 13,9 °C 63 % 82 cb 52 cb 68 cb 1007,2 hPa 0,0 l/m² 12,9 km/h (3 Bft) N 360 ° 1 min 0,000 mm 4,0 UV-I 791 W/m² 13,1 °C 18,2 °C 14,5 km/h (3 Bft) 86,96 %
05.05.2026 11:13 20,4 °C 36,1 °C 11,7 °C 13,3 °C 13,9 °C 62 % 82 cb 52 cb 68 cb 1007,3 hPa 0,0 l/m² 11,3 km/h (2 Bft) N 360 ° 1 min 0,000 mm 3,9 UV-I 784 W/m² 12,9 °C 18,7 °C 14,5 km/h (3 Bft) 95,65 %
05.05.2026 11:12 20,4 °C 36,7 °C 11,7 °C 13,3 °C 13,9 °C 61 % 82 cb 52 cb 68 cb 1007,2 hPa 0,0 l/m² 12,9 km/h (3 Bft) N 360 ° 1 min 0,000 mm 3,9 UV-I 780 W/m² 12,6 °C 18,2 °C 16,1 km/h (3 Bft) 91,30 %
05.05.2026 11:11 20,4 °C 36,7 °C 11,7 °C 13,3 °C 13,9 °C 62 % 82 cb 52 cb 68 cb 1007,2 hPa 0,0 l/m² 12,9 km/h (3 Bft) N 360 ° 1 min 0,000 mm 3,9 UV-I 780 W/m² 12,9 °C 18,2 °C 16,1 km/h (3 Bft) 95,65 %
05.05.2026 11:10 20,3 °C 37,2 °C 11,7 °C 13,3 °C 13,9 °C 64 % 82 cb 52 cb 68 cb 1007,2 hPa 0,0 l/m² 11,3 km/h (2 Bft) N 360 ° 1 min 0,000 mm 3,9 UV-I 772 W/m² 13,3 °C 18,6 °C 16,1 km/h (3 Bft) 86,96 %
05.05.2026 11:09 20,1 °C 36,7 °C 11,7 °C 13,3 °C 13,9 °C 64 % 82 cb 52 cb 68 cb 1007,3 hPa 0,0 l/m² 4,8 km/h (1 Bft) N 360 ° 1 min 0,000 mm 3,9 UV-I 770 W/m² 13,1 °C 20,1 °C 9,7 km/h (2 Bft) 95,65 %
05.05.2026 11:08 20,1 °C 36,7 °C 11,7 °C 13,3 °C 13,9 °C 61 % 82 cb 52 cb 68 cb 1007,4 hPa 0,0 l/m² 6,4 km/h (2 Bft) N 360 ° 1 min 0,000 mm 3,8 UV-I 758 W/m² 12,3 °C 20,1 °C 6,4 km/h (2 Bft) 86,96 %
05.05.2026 11:07 20,2 °C 36,7 °C 11,7 °C 13,3 °C 13,9 °C 62 % 82 cb 52 cb 68 cb 1007,4 hPa 0,0 l/m² 6,4 km/h (2 Bft) N 360 ° 1 min 0,000 mm 3,9 UV-I 763 W/m² 12,7 °C 20,2 °C 9,7 km/h (2 Bft) 95,65 %
05.05.2026 11:06 20,3 °C 36,7 °C 11,7 °C 13,3 °C 13,9 °C 62 % 82 cb 52 cb 68 cb 1007,4 hPa 0,0 l/m² 8,0 km/h (2 Bft) N 360 ° 1 min 0,000 mm 3,9 UV-I 765 W/m² 12,8 °C 19,7 °C 12,9 km/h (3 Bft) 91,30 %
05.05.2026 11:05 20,3 °C 36,7 °C 11,7 °C 13,3 °C 13,9 °C 61 % 82 cb 52 cb 68 cb 1007,3 hPa 0,0 l/m² 8,0 km/h (2 Bft) N 360 ° 1 min 0,000 mm 3,9 UV-I 765 W/m² 12,5 °C 19,7 °C 12,9 km/h (3 Bft) 91,30 %
05.05.2026 11:04 20,3 °C 36,1 °C 11,7 °C 13,3 °C 13,9 °C 61 % 82 cb 52 cb 68 cb 1007,4 hPa 0,0 l/m² 3,2 km/h (1 Bft) N 360 ° 1 min 0,000 mm 3,8 UV-I 761 W/m² 12,5 °C 20,3 °C 4,8 km/h (1 Bft) 91,30 %
05.05.2026 11:03 20,2 °C 35,6 °C 11,7 °C 13,3 °C 13,9 °C 62 % 82 cb 52 cb 68 cb 1007,4 hPa 0,0 l/m² 3,2 km/h (1 Bft) N 360 ° 1 min 0,000 mm 3,8 UV-I 772 W/m² 12,7 °C 20,2 °C 4,8 km/h (1 Bft) 91,30 %
05.05.2026 11:02 20,2 °C 35,0 °C 11,7 °C 13,3 °C 13,9 °C 62 % 82 cb 52 cb 68 cb 1007,4 hPa 0,0 l/m² 6,4 km/h (2 Bft) N 360 ° 1 min 0,000 mm 3,8 UV-I 768 W/m² 12,7 °C 20,2 °C 9,7 km/h (2 Bft) 95,65 %
05.05.2026 11:01 20,3 °C 34,4 °C 11,7 °C 13,3 °C 13,9 °C 60 % 82 cb 52 cb 68 cb 1007,3 hPa 0,0 l/m² 6,4 km/h (2 Bft) N 360 ° 1 min 0,000 mm 3,8 UV-I 756 W/m² 12,3 °C 20,3 °C 9,7 km/h (2 Bft) 82,61 %
05.05.2026 11:00 20,3 °C 34,4 °C 11,7 °C 13,3 °C 13,9 °C 59 % 82 cb 52 cb 68 cb 1007,4 hPa 0,0 l/m² 6,4 km/h (2 Bft) N 360 ° 1 min 0,432 mm 3,7 UV-I 740 W/m² 12,0 °C 20,3 °C 12,9 km/h (3 Bft) 95,65 %
05.05.2026 10:59 20,3 °C 33,9 °C 11,7 °C 13,3 °C 13,9 °C 59 % 82 cb 52 cb 68 cb 1007,4 hPa 0,0 l/m² 6,4 km/h (2 Bft) N 360 ° 1 min 0,000 mm 3,6 UV-I 740 W/m² 12,0 °C 20,3 °C 9,7 km/h (2 Bft) 86,96 %
05.05.2026 10:58 20,3 °C 33,9 °C 11,7 °C 13,3 °C 13,9 °C 59 % 82 cb 52 cb 68 cb 1007,5 hPa 0,0 l/m² 9,7 km/h (2 Bft) N 360 ° 1 min 0,000 mm 3,6 UV-I 712 W/m² 12,0 °C 19,1 °C 12,9 km/h (3 Bft) 95,65 %
05.05.2026 10:57 20,3 °C 33,9 °C 11,7 °C 13,3 °C 13,9 °C 62 % 82 cb 52 cb 68 cb 1007,4 hPa 0,0 l/m² 11,3 km/h (2 Bft) N 360 ° 1 min 0,000 mm 3,6 UV-I 698 W/m² 12,8 °C 18,6 °C 14,5 km/h (3 Bft) 86,96 %
05.05.2026 10:56 20,1 °C 33,3 °C 11,7 °C 13,3 °C 13,9 °C 62 % 82 cb 52 cb 68 cb 1007,4 hPa 0,0 l/m² 4,8 km/h (1 Bft) N 360 ° 1 min 0,000 mm 3,6 UV-I 701 W/m² 12,6 °C 20,1 °C 8,0 km/h (2 Bft) 95,65 %
05.05.2026 10:55 19,9 °C 32,8 °C 11,7 °C 13,3 °C 13,9 °C 62 % 82 cb 52 cb 68 cb 1007,5 hPa 0,0 l/m² 3,2 km/h (1 Bft) N 360 ° 1 min 0,000 mm 3,6 UV-I 724 W/m² 12,4 °C 19,9 °C 4,8 km/h (1 Bft) 86,96 %
05.05.2026 10:54 19,9 °C 32,2 °C 11,7 °C 13,3 °C 13,9 °C 61 % 82 cb 52 cb 68 cb 1007,6 hPa 0,0 l/m² 1,6 km/h (1 Bft) N 360 ° 1 min 0,000 mm 3,6 UV-I 717 W/m² 12,2 °C 19,9 °C 1,6 km/h (1 Bft) 100,00 %
05.05.2026 10:53 19,9 °C 32,2 °C 11,7 °C 13,3 °C 13,9 °C 61 % 83 cb 52 cb 68 cb 1007,5 hPa 0,0 l/m² 4,8 km/h (1 Bft) N 360 ° 1 min 0,000 mm 3,5 UV-I 708 W/m² 12,2 °C 19,9 °C 9,7 km/h (2 Bft) 82,61 %
05.05.2026 10:52 19,9 °C 32,2 °C 11,7 °C 13,3 °C 13,9 °C 61 % 83 cb 52 cb 68 cb 1007,5 hPa 0,0 l/m² 4,8 km/h (1 Bft) N 360 ° 1 min 0,000 mm 3,5 UV-I 705 W/m² 12,2 °C 19,9 °C 8,0 km/h (2 Bft) 91,30 %
05.05.2026 10:51 20,0 °C 31,7 °C 11,7 °C 13,3 °C 13,9 °C 61 % 83 cb 52 cb 68 cb 1007,6 hPa 0,0 l/m² 9,7 km/h (2 Bft) N 360 ° 1 min 0,000 mm 3,5 UV-I 712 W/m² 12,2 °C 18,7 °C 12,9 km/h (3 Bft) 91,30 %
05.05.2026 10:50 20,1 °C 31,7 °C 11,7 °C 13,3 °C 13,9 °C 60 % 83 cb 52 cb 68 cb 1007,6 hPa 0,0 l/m² 8,0 km/h (2 Bft) N 360 ° 1 min 0,000 mm 3,5 UV-I 717 W/m² 12,1 °C 19,5 °C 9,7 km/h (2 Bft) 91,30 %
05.05.2026 10:49 20,1 °C 31,7 °C 11,7 °C 13,3 °C 13,9 °C 60 % 83 cb 52 cb 68 cb 1007,5 hPa 0,0 l/m² 9,7 km/h (2 Bft) N 360 ° 1 min 0,000 mm 3,5 UV-I 708 W/m² 12,1 °C 18,8 °C 12,9 km/h (3 Bft) 91,30 %
05.05.2026 10:48 20,2 °C 32,2 °C 11,7 °C 13,3 °C 13,9 °C 60 % 83 cb 52 cb 68 cb 1007,6 hPa 0,0 l/m² 11,3 km/h (2 Bft) N 360 ° 1 min 0,000 mm 3,5 UV-I 717 W/m² 12,2 °C 18,5 °C 14,5 km/h (3 Bft) 91,30 %
05.05.2026 10:47 20,2 °C 32,2 °C 11,7 °C 13,3 °C 13,9 °C 61 % 83 cb 52 cb 68 cb 1007,5 hPa 0,0 l/m² 11,3 km/h (2 Bft) N 360 ° 1 min 0,000 mm 3,5 UV-I 715 W/m² 12,4 °C 18,5 °C 12,9 km/h (3 Bft) 95,65 %
05.05.2026 10:46 20,0 °C 32,2 °C 11,7 °C 13,3 °C 13,9 °C 62 % 83 cb 52 cb 68 cb 1007,5 hPa 0,0 l/m² 6,4 km/h (2 Bft) N 360 ° 1 min 0,000 mm 3,5 UV-I 703 W/m² 12,5 °C 20,0 °C 9,7 km/h (2 Bft) 82,61 %
05.05.2026 10:45 19,9 °C 32,2 °C 11,7 °C 13,3 °C 13,9 °C 62 % 83 cb 52 cb 68 cb 1007,5 hPa 0,0 l/m² 6,4 km/h (2 Bft) N 360 ° 1 min 0,000 mm 3,4 UV-I 705 W/m² 12,4 °C 19,9 °C 8,0 km/h (2 Bft) 100,00 %
05.05.2026 10:44 20,0 °C 31,7 °C 11,7 °C 13,3 °C 13,9 °C 60 % 83 cb 52 cb 68 cb 1007,6 hPa 0,0 l/m² 3,2 km/h (1 Bft) N 360 ° 1 min 0,000 mm 3,4 UV-I 694 W/m² 12,0 °C 20,0 °C 6,4 km/h (2 Bft) 82,61 %
05.05.2026 10:43 20,0 °C 31,7 °C 11,7 °C 13,3 °C 13,9 °C 62 % 83 cb 52 cb 68 cb 1007,5 hPa 0,0 l/m² 6,4 km/h (2 Bft) N 360 ° 1 min 0,000 mm 3,4 UV-I 694 W/m² 12,5 °C 20,0 °C 9,7 km/h (2 Bft) 95,65 %
05.05.2026 10:42 20,0 °C 31,7 °C 11,7 °C 13,3 °C 13,9 °C 62 % 83 cb 52 cb 68 cb 1007,6 hPa 0,0 l/m² 4,8 km/h (1 Bft) N 360 ° 1 min 0,000 mm 3,4 UV-I 698 W/m² 12,5 °C 20,0 °C 8,0 km/h (2 Bft) 86,96 %
05.05.2026 10:41 20,1 °C 31,7 °C 11,7 °C 13,3 °C 13,9 °C 61 % 83 cb 52 cb 68 cb 1007,5 hPa 0,0 l/m² 6,4 km/h (2 Bft) N 360 ° 1 min 0,000 mm 3,4 UV-I 708 W/m² 12,3 °C 20,1 °C 12,9 km/h (3 Bft) 91,30 %
05.05.2026 10:40 20,1 °C 31,7 °C 11,7 °C 13,3 °C 13,9 °C 61 % 83 cb 52 cb 68 cb 1007,5 hPa 0,0 l/m² 6,4 km/h (2 Bft) N 360 ° 1 min 0,000 mm 3,4 UV-I 707 W/m² 12,3 °C 20,1 °C 9,7 km/h (2 Bft) 91,30 %
05.05.2026 10:39 19,9 °C 31,7 °C 11,7 °C 13,3 °C 13,9 °C 62 % 83 cb 52 cb 68 cb 1007,4 hPa 0,0 l/m² 4,8 km/h (1 Bft) N 360 ° 1 min 0,000 mm 3,4 UV-I 701 W/m² 12,4 °C 19,9 °C 8,0 km/h (2 Bft) 86,96 %
05.05.2026 10:38 19,8 °C 31,7 °C 11,7 °C 13,3 °C 13,9 °C 63 % 83 cb 52 cb 68 cb 1007,4 hPa 0,0 l/m² 4,8 km/h (1 Bft) N 360 ° 1 min 0,000 mm 3,3 UV-I 701 W/m² 12,5 °C 19,8 °C 6,4 km/h (2 Bft) 95,65 %
05.05.2026 10:37 19,7 °C 31,7 °C 11,7 °C 13,3 °C 13,9 °C 61 % 83 cb 52 cb 68 cb 1007,5 hPa 0,0 l/m² 1,6 km/h (1 Bft) N 360 ° 1 min 0,000 mm 3,3 UV-I 700 W/m² 12,0 °C 19,7 °C 4,8 km/h (1 Bft) 91,30 %
05.05.2026 10:36 19,8 °C 31,1 °C 11,7 °C 13,3 °C 13,9 °C 61 % 83 cb 52 cb 68 cb 1007,4 hPa 0,0 l/m² 4,8 km/h (1 Bft) N 360 ° 1 min 0,000 mm 3,3 UV-I 696 W/m² 12,1 °C 19,8 °C 6,4 km/h (2 Bft) 91,30 %
05.05.2026 10:35 19,7 °C 31,1 °C 11,7 °C 13,3 °C 13,9 °C 61 % 83 cb 52 cb 68 cb 1007,4 hPa 0,0 l/m² 4,8 km/h (1 Bft) N 360 ° 1 min 0,000 mm 3,3 UV-I 689 W/m² 12,0 °C 19,7 °C 6,4 km/h (2 Bft) 95,65 %
05.05.2026 10:34 19,7 °C 31,1 °C 11,7 °C 13,3 °C 13,9 °C 62 % 83 cb 52 cb 68 cb 1007,4 hPa 0,0 l/m² 8,0 km/h (2 Bft) N 360 ° 1 min 0,000 mm 3,3 UV-I 689 W/m² 12,2 °C 19,0 °C 9,7 km/h (2 Bft) 86,96 %
05.05.2026 10:33 19,7 °C 31,1 °C 11,7 °C 13,3 °C 13,9 °C 62 % 83 cb 52 cb 68 cb 1007,4 hPa 0,0 l/m² 6,4 km/h (2 Bft) N 360 ° 1 min 0,000 mm 3,2 UV-I 686 W/m² 12,2 °C 19,7 °C 8,0 km/h (2 Bft) 91,30 %
05.05.2026 10:32 19,7 °C 31,1 °C 11,7 °C 13,3 °C 13,9 °C 60 % 83 cb 52 cb 68 cb 1007,4 hPa 0,0 l/m² 4,8 km/h (1 Bft) N 360 ° 1 min 0,000 mm 3,2 UV-I 686 W/m² 11,7 °C 19,7 °C 6,4 km/h (2 Bft) 95,65 %
05.05.2026 10:31 19,8 °C 31,1 °C 11,7 °C 13,3 °C 13,9 °C 60 % 83 cb 52 cb 68 cb 1007,4 hPa 0,0 l/m² 8,0 km/h (2 Bft) N 360 ° 1 min 0,000 mm 3,2 UV-I 686 W/m² 11,8 °C 19,1 °C 8,0 km/h (2 Bft) 86,96 %
05.05.2026 10:30 19,7 °C 31,1 °C 11,7 °C 13,3 °C 13,9 °C 61 % 83 cb 52 cb 68 cb 1007,3 hPa 0,0 l/m² 8,0 km/h (2 Bft) N 360 ° 1 min 0,000 mm 3,2 UV-I 679 W/m² 12,0 °C 19,0 °C 12,9 km/h (3 Bft) 91,30 %
05.05.2026 10:29 19,6 °C 31,1 °C 11,7 °C 13,3 °C 13,9 °C 62 % 83 cb 52 cb 68 cb 1007,4 hPa 0,0 l/m² 9,7 km/h (2 Bft) N 360 ° 1 min 0,000 mm 3,2 UV-I 679 W/m² 12,1 °C 18,3 °C 12,9 km/h (3 Bft) 95,65 %
05.05.2026 10:28 19,4 °C 30,6 °C 11,7 °C 13,3 °C 13,9 °C 62 % 83 cb 52 cb 68 cb 1007,2 hPa 0,0 l/m² 1,6 km/h (1 Bft) N 360 ° 1 min 0,000 mm 3,2 UV-I 673 W/m² 11,9 °C 19,4 °C 8,0 km/h (2 Bft) 91,30 %
05.05.2026 10:27 19,4 °C 30,6 °C 11,7 °C 13,3 °C 13,9 °C 64 % 83 cb 52 cb 68 cb 1007,2 hPa 0,0 l/m² 1,6 km/h (1 Bft) N 360 ° 1 min 0,000 mm 3,1 UV-I 673 W/m² 12,4 °C 19,4 °C 3,2 km/h (1 Bft) 86,96 %
05.05.2026 10:26 19,3 °C 30,6 °C 11,7 °C 13,3 °C 13,9 °C 65 % 83 cb 52 cb 68 cb 1007,3 hPa 0,0 l/m² 1,6 km/h (1 Bft) N 360 ° 1 min 0,000 mm 3,1 UV-I 675 W/m² 12,6 °C 19,3 °C 3,2 km/h (1 Bft) 95,65 %
05.05.2026 10:25 19,2 °C 30,6 °C 11,7 °C 13,3 °C 13,9 °C 62 % 83 cb 52 cb 68 cb 1007,4 hPa 0,0 l/m² 3,2 km/h (1 Bft) N 360 ° 1 min 0,000 mm 3,1 UV-I 675 W/m² 11,7 °C 19,2 °C 4,8 km/h (1 Bft) 91,30 %
05.05.2026 10:24 19,3 °C 30,6 °C 11,7 °C 13,3 °C 13,9 °C 63 % 83 cb 52 cb 68 cb 1007,3 hPa 0,0 l/m² 3,2 km/h (1 Bft) N 360 ° 1 min 0,000 mm 3,1 UV-I 671 W/m² 12,1 °C 19,3 °C 4,8 km/h (1 Bft) 86,96 %
05.05.2026 10:23 19,3 °C 30,6 °C 11,7 °C 13,3 °C 13,9 °C 62 % 83 cb 52 cb 68 cb 1007,3 hPa 0,0 l/m² 1,6 km/h (1 Bft) N 360 ° 1 min 0,000 mm 3,1 UV-I 668 W/m² 11,8 °C 19,3 °C 3,2 km/h (1 Bft) 95,65 %
05.05.2026 10:22 19,3 °C 30,6 °C 11,7 °C 13,3 °C 13,9 °C 62 % 83 cb 52 cb 68 cb 1007,4 hPa 0,0 l/m² 4,8 km/h (1 Bft) N 360 ° 1 min 0,000 mm 3,1 UV-I 668 W/m² 11,8 °C 19,3 °C 8,0 km/h (2 Bft) 91,30 %
05.05.2026 10:21 19,4 °C 30,6 °C 11,7 °C 13,3 °C 13,9 °C 61 % 83 cb 52 cb 68 cb 1007,3 hPa 0,0 l/m² 4,8 km/h (1 Bft) N 360 ° 1 min 0,000 mm 3,1 UV-I 664 W/m² 11,7 °C 19,4 °C 6,4 km/h (2 Bft) 91,30 %
05.05.2026 10:20 19,5 °C 30,6 °C 11,7 °C 13,3 °C 13,9 °C 63 % 83 cb 52 cb 68 cb 1007,3 hPa 0,0 l/m² 6,4 km/h (2 Bft) N 360 ° 1 min 0,000 mm 3,1 UV-I 664 W/m² 12,3 °C 19,5 °C 12,9 km/h (3 Bft) 100,00 %
05.05.2026 10:19 19,4 °C 30,0 °C 11,7 °C 13,3 °C 13,9 °C 62 % 83 cb 52 cb 68 cb 1007,3 hPa 0,0 l/m² 3,2 km/h (1 Bft) N 360 ° 1 min 0,000 mm 3,0 UV-I 663 W/m² 11,9 °C 19,4 °C 4,8 km/h (1 Bft) 86,96 %
05.05.2026 10:18 19,5 °C 30,0 °C 11,7 °C 13,3 °C 13,9 °C 61 % 83 cb 52 cb 68 cb 1007,3 hPa 0,0 l/m² 4,8 km/h (1 Bft) N 360 ° 1 min 0,000 mm 3,0 UV-I 661 W/m² 11,8 °C 19,5 °C 6,4 km/h (2 Bft) 95,65 %
05.05.2026 10:17 19,5 °C 29,4 °C 11,7 °C 13,3 °C 13,9 °C 62 % 83 cb 52 cb 68 cb 1007,4 hPa 0,0 l/m² 4,8 km/h (1 Bft) N 360 ° 1 min 0,000 mm 3,0 UV-I 654 W/m² 12,0 °C 19,5 °C 6,4 km/h (2 Bft) 86,96 %
05.05.2026 10:16 19,5 °C 28,9 °C 11,7 °C 13,3 °C 13,9 °C 61 % 83 cb 52 cb 68 cb 1007,3 hPa 0,0 l/m² 6,4 km/h (2 Bft) N 360 ° 1 min 0,000 mm 3,0 UV-I 654 W/m² 11,8 °C 19,5 °C 8,0 km/h (2 Bft) 91,30 %
05.05.2026 10:15 19,4 °C 28,9 °C 11,7 °C 13,3 °C 13,9 °C 60 % 83 cb 52 cb 68 cb 1007,3 hPa 0,0 l/m² 6,4 km/h (2 Bft) N 360 ° 1 min 0,000 mm 3,0 UV-I 652 W/m² 11,4 °C 19,4 °C 9,7 km/h (2 Bft) 95,65 %
05.05.2026 10:14 19,3 °C 28,3 °C 11,7 °C 13,3 °C 13,9 °C 60 % 83 cb 52 cb 68 cb 1007,4 hPa 0,0 l/m² 8,0 km/h (2 Bft) N 360 ° 1 min 0,000 mm 2,9 UV-I 649 W/m² 11,3 °C 18,6 °C 9,7 km/h (2 Bft) 95,65 %
05.05.2026 10:13 19,3 °C 28,3 °C 11,7 °C 13,3 °C 13,9 °C 62 % 83 cb 52 cb 68 cb 1007,4 hPa 0,0 l/m² 8,0 km/h (2 Bft) N 360 ° 1 min 0,000 mm 2,9 UV-I 647 W/m² 11,8 °C 18,6 °C 9,7 km/h (2 Bft) 95,65 %
05.05.2026 10:12 19,3 °C 28,3 °C 11,7 °C 13,3 °C 13,9 °C 61 % 83 cb 52 cb 68 cb 1007,4 hPa 0,0 l/m² 11,3 km/h (2 Bft) N 360 ° 1 min 0,000 mm 2,9 UV-I 647 W/m² 11,6 °C 17,4 °C 16,1 km/h (3 Bft) 82,61 %
05.05.2026 10:11 19,3 °C 27,8 °C 11,7 °C 13,3 °C 13,9 °C 61 % 83 cb 52 cb 68 cb 1007,5 hPa 0,0 l/m² 6,4 km/h (2 Bft) N 360 ° 1 min 0,000 mm 2,9 UV-I 645 W/m² 11,6 °C 19,3 °C 9,7 km/h (2 Bft) 100,00 %
05.05.2026 10:10 19,3 °C 27,8 °C 11,7 °C 13,3 °C 13,9 °C 60 % 83 cb 52 cb 68 cb 1007,5 hPa 0,0 l/m² 11,3 km/h (2 Bft) N 360 ° 1 min 0,000 mm 2,9 UV-I 642 W/m² 11,3 °C 17,4 °C 14,5 km/h (3 Bft) 91,30 %
05.05.2026 10:09 19,2 °C 27,8 °C 11,7 °C 13,3 °C 13,9 °C 62 % 83 cb 52 cb 68 cb 1007,5 hPa 0,0 l/m² 9,7 km/h (2 Bft) N 360 ° 1 min 0,000 mm 2,9 UV-I 640 W/m² 11,7 °C 17,9 °C 14,5 km/h (3 Bft) 86,96 %
05.05.2026 10:08 19,1 °C 27,8 °C 11,7 °C 13,3 °C 13,9 °C 64 % 83 cb 52 cb 68 cb 1007,6 hPa 0,0 l/m² 6,4 km/h (2 Bft) N 360 ° 1 min 0,000 mm 2,8 UV-I 635 W/m² 12,1 °C 19,1 °C 9,7 km/h (2 Bft) 95,65 %
05.05.2026 10:07 19,1 °C 27,8 °C 11,7 °C 13,3 °C 13,9 °C 63 % 83 cb 52 cb 68 cb 1007,7 hPa 0,0 l/m² 4,8 km/h (1 Bft) N 360 ° 1 min 0,000 mm 2,8 UV-I 635 W/m² 11,9 °C 19,1 °C 8,0 km/h (2 Bft) 95,65 %
05.05.2026 10:06 18,9 °C 27,8 °C 11,7 °C 13,3 °C 13,9 °C 65 % 83 cb 52 cb 68 cb 1007,7 hPa 0,0 l/m² 0,0 km/h (0 Bft) N 360 ° 1 min 0,000 mm 2,8 UV-I 629 W/m² 12,2 °C 18,9 °C 1,6 km/h (1 Bft) 91,30 %
05.05.2026 10:05 18,9 °C 27,8 °C 11,7 °C 13,3 °C 13,9 °C 65 % 83 cb 52 cb 68 cb 1007,6 hPa 0,0 l/m² 1,6 km/h (1 Bft) N 360 ° 1 min 0,000 mm 2,7 UV-I 628 W/m² 12,2 °C 18,9 °C 1,6 km/h (1 Bft) 100,00 %
05.05.2026 10:04 18,9 °C 27,8 °C 11,7 °C 13,3 °C 13,9 °C 64 % 83 cb 52 cb 68 cb 1007,7 hPa 0,0 l/m² 1,6 km/h (1 Bft) N 360 ° 1 min 0,000 mm 2,7 UV-I 622 W/m² 11,9 °C 18,9 °C 3,2 km/h (1 Bft) 91,30 %
05.05.2026 10:03 18,8 °C 27,8 °C 11,7 °C 13,3 °C 13,9 °C 66 % 83 cb 52 cb 68 cb 1007,7 hPa 0,0 l/m² 1,6 km/h (1 Bft) N 360 ° 1 min 0,000 mm 2,7 UV-I 622 W/m² 12,3 °C 18,8 °C 1,6 km/h (1 Bft) 91,30 %
05.05.2026 10:02 18,7 °C 27,2 °C 11,7 °C 13,3 °C 13,9 °C 64 % 84 cb 52 cb 68 cb 1007,7 hPa 0,0 l/m² 3,2 km/h (1 Bft) N 360 ° 1 min 0,000 mm 2,7 UV-I 621 W/m² 11,7 °C 18,7 °C 4,8 km/h (1 Bft) 91,30 %
05.05.2026 10:01 18,8 °C 27,2 °C 11,7 °C 13,3 °C 13,9 °C 64 % 84 cb 52 cb 68 cb 1007,8 hPa 0,0 l/m² 3,2 km/h (1 Bft) N 360 ° 1 min 0,000 mm 2,7 UV-I 621 W/m² 11,8 °C 18,8 °C 4,8 km/h (1 Bft) 86,96 %
05.05.2026 10:00 18,7 °C 27,2 °C 11,7 °C 13,3 °C 13,9 °C 64 % 84 cb 52 cb 68 cb 1007,8 hPa 0,0 l/m² 8,0 km/h (2 Bft) N 360 ° 1 min 0,305 mm 2,7 UV-I 613 W/m² 11,7 °C 18,0 °C 9,7 km/h (2 Bft) 91,30 %
05.05.2026 09:59 18,7 °C 26,7 °C 11,7 °C 13,3 °C 13,9 °C 64 % 84 cb 52 cb 68 cb 1007,7 hPa 0,0 l/m² 6,4 km/h (2 Bft) N 360 ° 1 min 0,000 mm 2,6 UV-I 612 W/m² 11,7 °C 18,7 °C 9,7 km/h (2 Bft) 91,30 %
05.05.2026 09:58 18,8 °C 26,7 °C 11,7 °C 13,3 °C 13,9 °C 63 % 84 cb 52 cb 68 cb 1007,7 hPa 0,0 l/m² 8,0 km/h (2 Bft) N 360 ° 1 min 0,000 mm 2,6 UV-I 610 W/m² 11,6 °C 18,1 °C 9,7 km/h (2 Bft) 95,65 %
05.05.2026 09:57 18,8 °C 26,7 °C 11,7 °C 13,3 °C 13,9 °C 65 % 84 cb 52 cb 68 cb 1007,7 hPa 0,0 l/m² 4,8 km/h (1 Bft) N 360 ° 1 min 0,000 mm 2,6 UV-I 612 W/m² 12,1 °C 18,8 °C 9,7 km/h (2 Bft) 91,30 %
05.05.2026 09:56 18,8 °C 27,2 °C 11,7 °C 13,3 °C 13,9 °C 64 % 84 cb 52 cb 68 cb 1007,7 hPa 0,0 l/m² 6,4 km/h (2 Bft) N 360 ° 1 min 0,000 mm 2,6 UV-I 606 W/m² 11,8 °C 18,8 °C 8,0 km/h (2 Bft) 100,00 %
05.05.2026 09:55 18,7 °C 26,7 °C 11,7 °C 13,3 °C 13,9 °C 64 % 84 cb 52 cb 68 cb 1007,7 hPa 0,0 l/m² 6,4 km/h (2 Bft) N 360 ° 1 min 0,000 mm 2,6 UV-I 608 W/m² 11,7 °C 18,7 °C 8,0 km/h (2 Bft) 91,30 %
05.05.2026 09:54 18,8 °C 26,7 °C 11,7 °C 13,3 °C 13,9 °C 64 % 84 cb 52 cb 68 cb 1007,7 hPa 0,0 l/m² 8,0 km/h (2 Bft) N 360 ° 1 min 0,000 mm 2,5 UV-I 596 W/m² 11,8 °C 18,1 °C 9,7 km/h (2 Bft) 95,65 %
05.05.2026 09:53 18,7 °C 26,7 °C 11,7 °C 13,3 °C 13,9 °C 67 % 84 cb 52 cb 69 cb 1007,7 hPa 0,0 l/m² 4,8 km/h (1 Bft) N 360 ° 1 min 0,000 mm 2,5 UV-I 596 W/m² 12,4 °C 18,7 °C 9,7 km/h (2 Bft) 91,30 %
05.05.2026 09:52 18,6 °C 26,7 °C 11,7 °C 13,3 °C 13,9 °C 67 % 84 cb 52 cb 68 cb 1007,6 hPa 0,0 l/m² 3,2 km/h (1 Bft) N 360 ° 1 min 0,000 mm 2,5 UV-I 596 W/m² 12,3 °C 18,6 °C 4,8 km/h (1 Bft) 100,00 %
05.05.2026 09:51 18,6 °C 26,7 °C 11,7 °C 13,3 °C 13,9 °C 64 % 84 cb 52 cb 68 cb 1007,7 hPa 0,0 l/m² 6,4 km/h (2 Bft) N 360 ° 1 min 0,000 mm 2,5 UV-I 592 W/m² 11,7 °C 18,6 °C 12,9 km/h (3 Bft) 82,61 %
05.05.2026 09:50 18,5 °C 26,7 °C 11,7 °C 13,3 °C 13,9 °C 65 % 84 cb 52 cb 68 cb 1007,6 hPa 0,0 l/m² 4,8 km/h (1 Bft) N 360 ° 1 min 0,000 mm 2,5 UV-I 591 W/m² 11,8 °C 18,5 °C 8,0 km/h (2 Bft) 95,65 %
05.05.2026 09:49 18,4 °C 26,7 °C 11,7 °C 13,3 °C 13,9 °C 64 % 84 cb 52 cb 69 cb 1007,6 hPa 0,0 l/m² 4,8 km/h (1 Bft) N 360 ° 1 min 0,000 mm 2,4 UV-I 585 W/m² 11,5 °C 18,4 °C 6,4 km/h (2 Bft) 95,65 %
05.05.2026 09:48 18,4 °C 26,1 °C 11,7 °C 13,3 °C 13,9 °C 64 % 84 cb 52 cb 68 cb 1007,7 hPa 0,0 l/m² 6,4 km/h (2 Bft) N 360 ° 1 min 0,000 mm 2,4 UV-I 577 W/m² 11,5 °C 18,4 °C 8,0 km/h (2 Bft) 95,65 %
05.05.2026 09:47 18,5 °C 26,7 °C 11,7 °C 13,3 °C 13,9 °C 64 % 84 cb 52 cb 69 cb 1007,7 hPa 0,0 l/m² 8,0 km/h (2 Bft) N 360 ° 1 min 0,000 mm 2,4 UV-I 571 W/m² 11,6 °C 17,8 °C 9,7 km/h (2 Bft) 91,30 %
05.05.2026 09:46 18,4 °C 26,1 °C 11,7 °C 13,3 °C 13,9 °C 63 % 84 cb 52 cb 68 cb 1007,7 hPa 0,0 l/m² 6,4 km/h (2 Bft) N 360 ° 1 min 0,000 mm 2,4 UV-I 568 W/m² 11,2 °C 18,4 °C 9,7 km/h (2 Bft) 95,65 %
05.05.2026 09:45 18,4 °C 26,1 °C 11,7 °C 13,3 °C 13,9 °C 63 % 84 cb 52 cb 68 cb 1007,6 hPa 0,0 l/m² 4,8 km/h (1 Bft) N 360 ° 1 min 0,000 mm 2,4 UV-I 568 W/m² 11,2 °C 18,4 °C 6,4 km/h (2 Bft) 91,30 %
05.05.2026 09:44 18,5 °C 26,1 °C 11,7 °C 13,3 °C 13,9 °C 63 % 84 cb 52 cb 69 cb 1007,6 hPa 0,0 l/m² 8,0 km/h (2 Bft) N 360 ° 1 min 0,000 mm 2,4 UV-I 561 W/m² 11,3 °C 17,8 °C 12,9 km/h (3 Bft) 86,96 %
05.05.2026 09:43 18,5 °C 26,1 °C 11,7 °C 13,3 °C 13,9 °C 63 % 84 cb 52 cb 68 cb 1007,7 hPa 0,0 l/m² 8,0 km/h (2 Bft) N 360 ° 1 min 0,000 mm 2,3 UV-I 557 W/m² 11,3 °C 17,8 °C 12,9 km/h (3 Bft) 100,00 %
05.05.2026 09:42 18,5 °C 26,1 °C 11,7 °C 13,3 °C 13,9 °C 64 % 84 cb 52 cb 68 cb 1007,6 hPa 0,0 l/m² 8,0 km/h (2 Bft) N 360 ° 1 min 0,000 mm 2,3 UV-I 541 W/m² 11,6 °C 17,8 °C 12,9 km/h (3 Bft) 82,61 %
05.05.2026 09:41 18,4 °C 25,6 °C 11,7 °C 13,3 °C 13,9 °C 64 % 84 cb 52 cb 68 cb 1007,7 hPa 0,0 l/m² 9,7 km/h (2 Bft) N 360 ° 1 min 0,000 mm 2,3 UV-I 529 W/m² 11,5 °C 17,0 °C 12,9 km/h (3 Bft) 91,30 %
05.05.2026 09:40 18,3 °C 25,6 °C 11,7 °C 13,3 °C 13,9 °C 63 % 84 cb 52 cb 68 cb 1007,7 hPa 0,0 l/m² 8,0 km/h (2 Bft) N 360 ° 1 min 0,000 mm 2,3 UV-I 524 W/m² 11,1 °C 17,6 °C 9,7 km/h (2 Bft) 95,65 %
05.05.2026 09:39 18,4 °C 25,6 °C 11,7 °C 13,3 °C 13,9 °C 63 % 84 cb 52 cb 69 cb 1007,7 hPa 0,0 l/m² 8,0 km/h (2 Bft) N 360 ° 1 min 0,000 mm 2,3 UV-I 513 W/m² 11,2 °C 17,7 °C 9,7 km/h (2 Bft) 95,65 %
05.05.2026 09:38 18,3 °C 25,6 °C 11,7 °C 13,3 °C 13,9 °C 63 % 84 cb 52 cb 68 cb 1007,7 hPa 0,0 l/m² 6,4 km/h (2 Bft) N 360 ° 1 min 0,000 mm 2,3 UV-I 506 W/m² 11,1 °C 18,3 °C 8,0 km/h (2 Bft) 95,65 %
05.05.2026 09:37 18,4 °C 25,6 °C 11,7 °C 13,3 °C 13,9 °C 63 % 84 cb 52 cb 68 cb 1007,8 hPa 0,0 l/m² 11,3 km/h (2 Bft) N 360 ° 1 min 0,000 mm 2,2 UV-I 503 W/m² 11,2 °C 16,4 °C 14,5 km/h (3 Bft) 100,00 %
05.05.2026 09:36 18,3 °C 25,6 °C 11,7 °C 13,3 °C 13,9 °C 64 % 84 cb 52 cb 68 cb 1007,6 hPa 0,0 l/m² 9,7 km/h (2 Bft) N 360 ° 1 min 0,000 mm 2,2 UV-I 489 W/m² 11,4 °C 16,9 °C 14,5 km/h (3 Bft) 86,96 %
05.05.2026 09:35 18,3 °C 25,6 °C 11,7 °C 13,3 °C 13,9 °C 65 % 84 cb 52 cb 68 cb 1007,6 hPa 0,0 l/m² 12,9 km/h (3 Bft) N 360 ° 1 min 0,000 mm 2,2 UV-I 483 W/m² 11,6 °C 15,8 °C 16,1 km/h (3 Bft) 95,65 %
05.05.2026 09:34 18,2 °C 25,6 °C 11,7 °C 13,3 °C 13,9 °C 66 % 84 cb 52 cb 68 cb 1007,7 hPa 0,0 l/m² 8,0 km/h (2 Bft) N 360 ° 1 min 0,000 mm 2,2 UV-I 476 W/m² 11,7 °C 17,5 °C 12,9 km/h (3 Bft) 100,00 %
05.05.2026 09:33 18,1 °C 25,0 °C 11,7 °C 13,3 °C 13,9 °C 66 % 84 cb 52 cb 68 cb 1007,9 hPa 0,0 l/m² 6,4 km/h (2 Bft) N 360 ° 1 min 0,000 mm 2,2 UV-I 468 W/m² 11,6 °C 18,1 °C 12,9 km/h (3 Bft) 91,30 %
05.05.2026 09:32 18,0 °C 25,0 °C 11,7 °C 13,3 °C 13,9 °C 66 % 84 cb 52 cb 68 cb 1007,7 hPa 0,0 l/m² 8,0 km/h (2 Bft) N 360 ° 1 min 0,000 mm 2,2 UV-I 454 W/m² 11,6 °C 17,3 °C 12,9 km/h (3 Bft) 95,65 %
05.05.2026 09:31 18,0 °C 25,0 °C 11,7 °C 13,3 °C 13,9 °C 66 % 84 cb 52 cb 68 cb 1007,7 hPa 0,0 l/m² 11,3 km/h (2 Bft) N 360 ° 1 min 0,000 mm 2,1 UV-I 429 W/m² 11,6 °C 16,0 °C 14,5 km/h (3 Bft) 100,00 %
05.05.2026 09:30 17,9 °C 25,0 °C 11,7 °C 13,3 °C 13,9 °C 67 % 84 cb 52 cb 68 cb 1007,8 hPa 0,0 l/m² 9,7 km/h (2 Bft) N 360 ° 1 min 0,000 mm 2,1 UV-I 415 W/m² 11,7 °C 16,4 °C 12,9 km/h (3 Bft) 95,65 %
05.05.2026 09:29 17,9 °C 24,4 °C 11,7 °C 13,3 °C 13,9 °C 67 % 84 cb 52 cb 68 cb 1007,8 hPa 0,0 l/m² 6,4 km/h (2 Bft) N 360 ° 1 min 0,000 mm 2,1 UV-I 397 W/m² 11,7 °C 17,9 °C 8,0 km/h (2 Bft) 95,65 %
05.05.2026 09:28 17,9 °C 24,4 °C 11,7 °C 13,3 °C 13,9 °C 67 % 84 cb 52 cb 68 cb 1007,8 hPa 0,0 l/m² 11,3 km/h (2 Bft) N 360 ° 1 min 0,000 mm 2,1 UV-I 381 W/m² 11,7 °C 15,8 °C 14,5 km/h (3 Bft) 95,65 %
05.05.2026 09:27 17,8 °C 24,4 °C 11,7 °C 13,3 °C 13,9 °C 67 % 84 cb 52 cb 68 cb 1007,7 hPa 0,0 l/m² 9,7 km/h (2 Bft) N 360 ° 1 min 0,000 mm 2,1 UV-I 367 W/m² 11,6 °C 16,3 °C 14,5 km/h (3 Bft) 86,96 %
05.05.2026 09:26 17,7 °C 23,9 °C 11,7 °C 13,3 °C 13,9 °C 68 % 84 cb 52 cb 68 cb 1007,7 hPa 0,0 l/m² 6,4 km/h (2 Bft) N 360 ° 1 min 0,000 mm 2,1 UV-I 350 W/m² 11,7 °C 17,7 °C 9,7 km/h (2 Bft) 91,30 %
05.05.2026 09:25 17,7 °C 23,9 °C 11,7 °C 13,3 °C 13,9 °C 68 % 84 cb 52 cb 68 cb 1007,8 hPa 0,0 l/m² 6,4 km/h (2 Bft) N 360 ° 1 min 0,000 mm 2,0 UV-I 332 W/m² 11,7 °C 17,7 °C 9,7 km/h (2 Bft) 95,65 %
05.05.2026 09:24 17,7 °C 23,3 °C 11,7 °C 13,3 °C 13,9 °C 68 % 84 cb 52 cb 68 cb 1007,7 hPa 0,0 l/m² 6,4 km/h (2 Bft) N 360 ° 1 min 0,000 mm 2,0 UV-I 322 W/m² 11,7 °C 17,7 °C 8,0 km/h (2 Bft) 95,65 %
05.05.2026 09:23 17,6 °C 23,3 °C 11,7 °C 13,3 °C 13,9 °C 68 % 84 cb 52 cb 68 cb 1007,8 hPa 0,0 l/m² 4,8 km/h (1 Bft) N 360 ° 1 min 0,000 mm 2,0 UV-I 316 W/m² 11,6 °C 17,6 °C 8,0 km/h (2 Bft) 86,96 %
05.05.2026 09:22 17,6 °C 23,3 °C 11,7 °C 13,3 °C 13,9 °C 68 % 84 cb 52 cb 68 cb 1007,8 hPa 0,0 l/m² 9,7 km/h (2 Bft) N 360 ° 1 min 0,000 mm 2,0 UV-I 315 W/m² 11,6 °C 16,1 °C 12,9 km/h (3 Bft) 95,65 %
05.05.2026 09:21 17,5 °C 22,8 °C 11,7 °C 13,3 °C 13,9 °C 68 % 84 cb 52 cb 68 cb 1007,8 hPa 0,0 l/m² 8,0 km/h (2 Bft) N 360 ° 1 min 0,000 mm 2,0 UV-I 316 W/m² 11,5 °C 16,7 °C 9,7 km/h (2 Bft) 86,96 %
05.05.2026 09:20 17,4 °C 22,8 °C 11,7 °C 13,3 °C 13,9 °C 68 % 84 cb 52 cb 68 cb 1007,8 hPa 0,0 l/m² 3,2 km/h (1 Bft) N 360 ° 1 min 0,000 mm 2,0 UV-I 320 W/m² 11,4 °C 17,4 °C 8,0 km/h (2 Bft) 95,65 %
05.05.2026 09:19 17,4 °C 22,8 °C 11,7 °C 13,3 °C 13,9 °C 68 % 84 cb 52 cb 68 cb 1007,8 hPa 0,0 l/m² 6,4 km/h (2 Bft) N 360 ° 1 min 0,000 mm 1,9 UV-I 322 W/m² 11,4 °C 17,4 °C 8,0 km/h (2 Bft) 100,00 %
05.05.2026 09:18 17,4 °C 22,2 °C 11,7 °C 13,3 °C 13,9 °C 68 % 84 cb 52 cb 68 cb 1007,8 hPa 0,0 l/m² 8,0 km/h (2 Bft) N 360 ° 1 min 0,000 mm 1,9 UV-I 325 W/m² 11,4 °C 16,6 °C 9,7 km/h (2 Bft) 91,30 %
05.05.2026 09:17 17,4 °C 22,2 °C 11,7 °C 13,3 °C 13,9 °C 68 % 84 cb 52 cb 68 cb 1007,8 hPa 0,0 l/m² 9,7 km/h (2 Bft) N 360 ° 1 min 0,000 mm 1,9 UV-I 329 W/m² 11,4 °C 15,9 °C 12,9 km/h (3 Bft) 86,96 %
05.05.2026 09:16 17,4 °C 22,2 °C 11,7 °C 13,3 °C 13,9 °C 68 % 84 cb 52 cb 68 cb 1007,8 hPa 0,0 l/m² 8,0 km/h (2 Bft) N 360 ° 1 min 0,000 mm 1,9 UV-I 339 W/m² 11,4 °C 16,6 °C 9,7 km/h (2 Bft) 100,00 %
05.05.2026 09:15 17,4 °C 22,2 °C 11,7 °C 13,3 °C 13,9 °C 68 % 84 cb 52 cb 68 cb 1007,9 hPa 0,0 l/m² 9,7 km/h (2 Bft) N 360 ° 1 min 0,000 mm 1,9 UV-I 339 W/m² 11,4 °C 15,9 °C 14,5 km/h (3 Bft) 95,65 %
05.05.2026 09:14 17,4 °C 22,8 °C 11,7 °C 13,3 °C 13,9 °C 67 % 84 cb 52 cb 68 cb 1007,9 hPa 0,0 l/m² 11,3 km/h (2 Bft) N 360 ° 1 min 0,000 mm 1,9 UV-I 350 W/m² 11,2 °C 15,3 °C 12,9 km/h (3 Bft) 91,30 %
05.05.2026 09:13 17,4 °C 22,8 °C 11,7 °C 13,3 °C 13,9 °C 68 % 84 cb 52 cb 68 cb 1007,9 hPa 0,0 l/m² 12,9 km/h (3 Bft) N 360 ° 1 min 0,000 mm 1,8 UV-I 357 W/m² 11,4 °C 14,7 °C 14,5 km/h (3 Bft) 100,00 %
05.05.2026 09:12 17,4 °C 22,8 °C 11,7 °C 13,3 °C 13,9 °C 68 % 84 cb 52 cb 68 cb 1007,8 hPa 0,0 l/m² 9,7 km/h (2 Bft) N 360 ° 1 min 0,000 mm 1,8 UV-I 366 W/m² 11,4 °C 15,9 °C 14,5 km/h (3 Bft) 91,30 %
05.05.2026 09:11 17,4 °C 22,8 °C 11,7 °C 13,3 °C 13,9 °C 68 % 84 cb 52 cb 68 cb 1008,0 hPa 0,0 l/m² 4,8 km/h (1 Bft) N 360 ° 1 min 0,000 mm 1,8 UV-I 371 W/m² 11,4 °C 17,4 °C 8,0 km/h (2 Bft) 91,30 %
05.05.2026 09:10 17,3 °C 22,8 °C 11,7 °C 13,3 °C 13,9 °C 68 % 84 cb 52 cb 68 cb 1007,9 hPa 0,0 l/m² 8,0 km/h (2 Bft) N 360 ° 1 min 0,000 mm 1,8 UV-I 378 W/m² 11,3 °C 16,5 °C 12,9 km/h (3 Bft) 100,00 %
05.05.2026 09:09 17,3 °C 22,2 °C 11,7 °C 13,3 °C 13,9 °C 68 % 84 cb 52 cb 68 cb 1007,9 hPa 0,0 l/m² 6,4 km/h (2 Bft) N 360 ° 1 min 0,000 mm 1,8 UV-I 385 W/m² 11,3 °C 17,3 °C 12,9 km/h (3 Bft) 95,65 %
05.05.2026 09:08 17,2 °C 22,2 °C 11,7 °C 13,3 °C 13,9 °C 68 % 84 cb 52 cb 68 cb 1007,9 hPa 0,0 l/m² 4,8 km/h (1 Bft) N 360 ° 1 min 0,000 mm 1,7 UV-I 388 W/m² 11,2 °C 17,2 °C 8,0 km/h (2 Bft) 91,30 %
05.05.2026 09:07 17,2 °C 22,2 °C 11,7 °C 13,3 °C 13,9 °C 68 % 84 cb 52 cb 68 cb 1007,9 hPa 0,0 l/m² 4,8 km/h (1 Bft) N 360 ° 1 min 0,000 mm 1,7 UV-I 390 W/m² 11,2 °C 17,2 °C 6,4 km/h (2 Bft) 91,30 %
05.05.2026 09:06 17,2 °C 22,2 °C 11,7 °C 13,3 °C 13,9 °C 68 % 84 cb 52 cb 68 cb 1008,0 hPa 0,0 l/m² 6,4 km/h (2 Bft) N 360 ° 1 min 0,000 mm 1,7 UV-I 392 W/m² 11,2 °C 17,2 °C 8,0 km/h (2 Bft) 100,00 %
05.05.2026 09:05 17,2 °C 22,2 °C 11,7 °C 13,3 °C 13,9 °C 68 % 84 cb 52 cb 68 cb 1007,9 hPa 0,0 l/m² 6,4 km/h (2 Bft) N 360 ° 1 min 0,000 mm 1,7 UV-I 394 W/m² 11,2 °C 17,2 °C 8,0 km/h (2 Bft) 86,96 %
05.05.2026 09:04 17,2 °C 22,2 °C 11,7 °C 13,3 °C 13,9 °C 68 % 84 cb 52 cb 68 cb 1007,9 hPa 0,0 l/m² 8,0 km/h (2 Bft) N 360 ° 1 min 0,000 mm 1,7 UV-I 385 W/m² 11,2 °C 16,4 °C 9,7 km/h (2 Bft) 95,65 %
05.05.2026 09:03 17,2 °C 22,2 °C 11,7 °C 13,3 °C 13,9 °C 68 % 84 cb 52 cb 68 cb 1007,9 hPa 0,0 l/m² 4,8 km/h (1 Bft) N 360 ° 1 min 0,000 mm 1,7 UV-I 392 W/m² 11,2 °C 17,2 °C 6,4 km/h (2 Bft) 100,00 %
05.05.2026 09:02 17,2 °C 22,2 °C 11,7 °C 13,3 °C 13,9 °C 68 % 84 cb 52 cb 68 cb 1007,9 hPa 0,0 l/m² 6,4 km/h (2 Bft) N 360 ° 1 min 0,000 mm 1,6 UV-I 396 W/m² 11,2 °C 17,2 °C 8,0 km/h (2 Bft) 86,96 %
05.05.2026 09:01 17,2 °C 22,2 °C 11,7 °C 13,3 °C 13,9 °C 68 % 84 cb 52 cb 68 cb 1007,9 hPa 0,0 l/m² 4,8 km/h (1 Bft) N 360 ° 1 min 0,000 mm 1,6 UV-I 392 W/m² 11,2 °C 17,2 °C 6,4 km/h (2 Bft) 91,30 %
05.05.2026 09:00 17,1 °C 21,7 °C 11,7 °C 13,3 °C 13,9 °C 68 % 84 cb 52 cb 68 cb 1007,9 hPa 0,0 l/m² 4,8 km/h (1 Bft) N 360 ° 1 min 0,203 mm 1,6 UV-I 388 W/m² 11,1 °C 17,1 °C 6,4 km/h (2 Bft) 95,65 %
05.05.2026 08:59 17,1 °C 21,7 °C 11,7 °C 13,3 °C 13,9 °C 67 % 84 cb 52 cb 68 cb 1007,9 hPa 0,0 l/m² 4,8 km/h (1 Bft) N 360 ° 1 min 0,000 mm 1,6 UV-I 385 W/m² 10,9 °C 17,1 °C 6,4 km/h (2 Bft) 95,65 %
05.05.2026 08:58 17,2 °C 21,7 °C 11,7 °C 13,3 °C 13,9 °C 67 % 84 cb 52 cb 68 cb 1007,9 hPa 0,0 l/m² 6,4 km/h (2 Bft) N 360 ° 1 min 0,000 mm 1,6 UV-I 381 W/m² 11,0 °C 17,2 °C 8,0 km/h (2 Bft) 91,30 %
05.05.2026 08:57 17,2 °C 21,7 °C 11,7 °C 13,3 °C 13,9 °C 68 % 84 cb 52 cb 68 cb 1007,9 hPa 0,0 l/m² 6,4 km/h (2 Bft) N 360 ° 1 min 0,000 mm 1,6 UV-I 376 W/m² 11,2 °C 17,2 °C 9,7 km/h (2 Bft) 95,65 %
05.05.2026 08:56 17,1 °C 21,1 °C 11,7 °C 13,3 °C 13,9 °C 68 % 84 cb 52 cb 68 cb 1008,0 hPa 0,0 l/m² 4,8 km/h (1 Bft) N 360 ° 1 min 0,000 mm 1,5 UV-I 369 W/m² 11,1 °C 17,1 °C 6,4 km/h (2 Bft) 91,30 %
05.05.2026 08:55 17,1 °C 21,1 °C 11,7 °C 13,3 °C 13,9 °C 68 % 84 cb 52 cb 68 cb 1008,0 hPa 0,0 l/m² 6,4 km/h (2 Bft) N 360 ° 1 min 0,000 mm 1,5 UV-I 353 W/m² 11,1 °C 17,1 °C 9,7 km/h (2 Bft) 95,65 %
05.05.2026 08:54 17,0 °C 21,1 °C 11,7 °C 13,3 °C 13,9 °C 68 % 84 cb 52 cb 68 cb 1007,9 hPa 0,0 l/m² 8,0 km/h (2 Bft) N 360 ° 1 min 0,000 mm 1,5 UV-I 348 W/m² 11,0 °C 16,2 °C 9,7 km/h (2 Bft) 100,00 %
05.05.2026 08:53 17,0 °C 21,1 °C 11,7 °C 13,3 °C 13,9 °C 68 % 84 cb 52 cb 68 cb 1007,9 hPa 0,0 l/m² 4,8 km/h (1 Bft) N 360 ° 1 min 0,000 mm 1,5 UV-I 345 W/m² 11,0 °C 17,0 °C 6,4 km/h (2 Bft) 91,30 %
05.05.2026 08:52 17,1 °C 21,1 °C 11,7 °C 13,3 °C 13,9 °C 67 % 84 cb 52 cb 68 cb 1008,0 hPa 0,0 l/m² 4,8 km/h (1 Bft) N 360 ° 1 min 0,000 mm 1,5 UV-I 343 W/m² 10,9 °C 17,1 °C 8,0 km/h (2 Bft) 91,30 %
05.05.2026 08:51 17,1 °C 21,1 °C 11,7 °C 13,3 °C 13,9 °C 69 % 84 cb 52 cb 68 cb 1007,9 hPa 0,0 l/m² 4,8 km/h (1 Bft) N 360 ° 1 min 0,000 mm 1,5 UV-I 352 W/m² 11,4 °C 17,1 °C 6,4 km/h (2 Bft) 95,65 %
05.05.2026 08:50 17,1 °C 21,1 °C 11,7 °C 13,3 °C 13,9 °C 68 % 84 cb 52 cb 68 cb 1007,9 hPa 0,0 l/m² 3,2 km/h (1 Bft) N 360 ° 1 min 0,000 mm 1,5 UV-I 359 W/m² 11,1 °C 17,1 °C 4,8 km/h (1 Bft) 95,65 %
05.05.2026 08:49 17,1 °C 21,1 °C 11,7 °C 13,3 °C 13,9 °C 68 % 84 cb 52 cb 68 cb 1007,9 hPa 0,0 l/m² 4,8 km/h (1 Bft) N 360 ° 1 min 0,000 mm 1,4 UV-I 367 W/m² 11,1 °C 17,1 °C 4,8 km/h (1 Bft) 82,61 %
05.05.2026 08:48 17,1 °C 20,6 °C 11,7 °C 13,3 °C 13,9 °C 68 % 84 cb 52 cb 68 cb 1007,9 hPa 0,0 l/m² 6,4 km/h (2 Bft) N 360 ° 1 min 0,000 mm 1,4 UV-I 376 W/m² 11,1 °C 17,1 °C 9,7 km/h (2 Bft) 95,65 %
05.05.2026 08:47 17,2 °C 20,6 °C 11,7 °C 13,3 °C 13,9 °C 68 % 84 cb 52 cb 68 cb 1008,0 hPa 0,0 l/m² 6,4 km/h (2 Bft) N 360 ° 1 min 0,000 mm 1,4 UV-I 385 W/m² 11,2 °C 17,2 °C 8,0 km/h (2 Bft) 91,30 %
05.05.2026 08:46 17,1 °C 20,6 °C 11,7 °C 13,3 °C 13,9 °C 70 % 84 cb 52 cb 68 cb 1008,1 hPa 0,0 l/m² 4,8 km/h (1 Bft) N 360 ° 1 min 0,000 mm 1,4 UV-I 392 W/m² 11,6 °C 17,1 °C 9,7 km/h (2 Bft) 95,65 %
05.05.2026 08:45 17,1 °C 20,6 °C 11,7 °C 13,3 °C 13,9 °C 69 % 84 cb 52 cb 68 cb 1008,0 hPa 0,0 l/m² 3,2 km/h (1 Bft) N 360 ° 1 min 0,000 mm 1,4 UV-I 404 W/m² 11,4 °C 17,1 °C 6,4 km/h (2 Bft) 95,65 %
05.05.2026 08:44 17,0 °C 20,6 °C 11,7 °C 13,3 °C 13,9 °C 69 % 84 cb 52 cb 68 cb 1008,1 hPa 0,0 l/m² 3,2 km/h (1 Bft) N 360 ° 1 min 0,000 mm 1,4 UV-I 408 W/m² 11,3 °C 17,0 °C 6,4 km/h (2 Bft) 95,65 %
05.05.2026 08:43 17,0 °C 20,0 °C 11,7 °C 13,3 °C 13,9 °C 69 % 84 cb 52 cb 68 cb 1008,2 hPa 0,0 l/m² 3,2 km/h (1 Bft) N 360 ° 1 min 0,000 mm 1,3 UV-I 410 W/m² 11,3 °C 17,0 °C 4,8 km/h (1 Bft) 95,65 %
05.05.2026 08:42 16,9 °C 20,0 °C 11,7 °C 13,3 °C 13,9 °C 69 % 84 cb 52 cb 68 cb 1008,1 hPa 0,0 l/m² 3,2 km/h (1 Bft) N 360 ° 1 min 0,000 mm 1,3 UV-I 408 W/m² 11,2 °C 16,9 °C 8,0 km/h (2 Bft) 95,65 %
05.05.2026 08:41 16,9 °C 20,0 °C 11,7 °C 13,3 °C 13,9 °C 68 % 84 cb 52 cb 68 cb 1008,0 hPa 0,0 l/m² 3,2 km/h (1 Bft) N 360 ° 1 min 0,000 mm 1,3 UV-I 408 W/m² 11,0 °C 16,9 °C 4,8 km/h (1 Bft) 95,65 %
05.05.2026 08:40 17,0 °C 20,0 °C 11,7 °C 13,3 °C 13,9 °C 68 % 84 cb 52 cb 68 cb 1008,1 hPa 0,0 l/m² 6,4 km/h (2 Bft) N 360 ° 1 min 0,000 mm 1,3 UV-I 406 W/m² 11,0 °C 17,0 °C 9,7 km/h (2 Bft) 95,65 %
05.05.2026 08:39 17,1 °C 20,0 °C 11,7 °C 13,3 °C 13,9 °C 68 % 84 cb 52 cb 68 cb 1008,1 hPa 0,0 l/m² 6,4 km/h (2 Bft) N 360 ° 1 min 0,000 mm 1,3 UV-I 401 W/m² 11,1 °C 17,1 °C 9,7 km/h (2 Bft) 95,65 %
05.05.2026 08:38 17,1 °C 20,0 °C 11,7 °C 13,3 °C 13,9 °C 68 % 84 cb 52 cb 68 cb 1008,1 hPa 0,0 l/m² 8,0 km/h (2 Bft) N 360 ° 1 min 0,000 mm 1,3 UV-I 397 W/m² 11,1 °C 16,3 °C 9,7 km/h (2 Bft) 86,96 %
05.05.2026 08:37 17,1 °C 20,0 °C 11,7 °C 13,3 °C 13,9 °C 69 % 84 cb 52 cb 68 cb 1008,2 hPa 0,0 l/m² 4,8 km/h (1 Bft) N 360 ° 1 min 0,000 mm 1,3 UV-I 394 W/m² 11,4 °C 17,1 °C 8,0 km/h (2 Bft) 95,65 %
05.05.2026 08:36 16,9 °C 20,0 °C 11,7 °C 13,3 °C 13,9 °C 69 % 84 cb 52 cb 68 cb 1008,1 hPa 0,0 l/m² 4,8 km/h (1 Bft) N 360 ° 1 min 0,000 mm 1,3 UV-I 392 W/m² 11,2 °C 16,9 °C 9,7 km/h (2 Bft) 100,00 %
05.05.2026 08:35 16,8 °C 20,0 °C 11,7 °C 13,3 °C 13,9 °C 69 % 84 cb 52 cb 68 cb 1008,0 hPa 0,0 l/m² 6,4 km/h (2 Bft) N 360 ° 1 min 0,000 mm 1,2 UV-I 392 W/m² 11,1 °C 16,8 °C 9,7 km/h (2 Bft) 95,65 %
05.05.2026 08:34 16,8 °C 20,0 °C 11,7 °C 13,3 °C 13,9 °C 69 % 84 cb 52 cb 68 cb 1008,1 hPa 0,0 l/m² 8,0 km/h (2 Bft) N 360 ° 1 min 0,000 mm 1,2 UV-I 388 W/m² 11,1 °C 16,0 °C 14,5 km/h (3 Bft) 95,65 %
05.05.2026 08:33 16,8 °C 19,4 °C 11,7 °C 13,3 °C 13,9 °C 69 % 84 cb 52 cb 68 cb 1008,0 hPa 0,0 l/m² 4,8 km/h (1 Bft) N 360 ° 1 min 0,000 mm 1,2 UV-I 387 W/m² 11,1 °C 16,8 °C 6,4 km/h (2 Bft) 91,30 %
05.05.2026 08:32 16,8 °C 19,4 °C 11,7 °C 13,3 °C 13,9 °C 69 % 84 cb 52 cb 68 cb 1008,0 hPa 0,0 l/m² 3,2 km/h (1 Bft) N 360 ° 1 min 0,000 mm 1,2 UV-I 381 W/m² 11,1 °C 16,8 °C 4,8 km/h (1 Bft) 95,65 %
05.05.2026 08:31 16,7 °C 19,4 °C 11,7 °C 13,3 °C 13,9 °C 70 % 84 cb 52 cb 68 cb 1008,1 hPa 0,0 l/m² 4,8 km/h (1 Bft) N 360 ° 1 min 0,000 mm 1,2 UV-I 381 W/m² 11,2 °C 16,7 °C 6,4 km/h (2 Bft) 95,65 %
05.05.2026 08:30 16,6 °C 18,9 °C 11,7 °C 13,3 °C 13,9 °C 69 % 84 cb 52 cb 68 cb 1008,1 hPa 0,0 l/m² 8,0 km/h (2 Bft) N 360 ° 1 min 0,000 mm 1,2 UV-I 380 W/m² 10,9 °C 15,8 °C 12,9 km/h (3 Bft) 100,00 %
05.05.2026 08:29 16,6 °C 18,9 °C 11,7 °C 13,3 °C 13,9 °C 69 % 84 cb 52 cb 68 cb 1008,1 hPa 0,0 l/m² 8,0 km/h (2 Bft) N 360 ° 1 min 0,000 mm 1,2 UV-I 376 W/m² 10,9 °C 15,8 °C 9,7 km/h (2 Bft) 91,30 %
05.05.2026 08:28 16,6 °C 18,9 °C 11,7 °C 13,3 °C 13,9 °C 68 % 84 cb 52 cb 68 cb 1008,0 hPa 0,0 l/m² 6,4 km/h (2 Bft) N 360 ° 1 min 0,000 mm 1,2 UV-I 374 W/m² 10,7 °C 16,6 °C 8,0 km/h (2 Bft) 91,30 %
05.05.2026 08:27 16,6 °C 18,9 °C 11,7 °C 13,3 °C 13,9 °C 69 % 84 cb 52 cb 68 cb 1008,1 hPa 0,0 l/m² 6,4 km/h (2 Bft) N 360 ° 1 min 0,000 mm 1,1 UV-I 371 W/m² 10,9 °C 16,6 °C 8,0 km/h (2 Bft) 95,65 %
05.05.2026 08:26 16,5 °C 18,9 °C 11,7 °C 13,3 °C 13,9 °C 69 % 84 cb 52 cb 68 cb 1008,1 hPa 0,0 l/m² 8,0 km/h (2 Bft) N 360 ° 1 min 0,000 mm 1,1 UV-I 364 W/m² 10,8 °C 15,7 °C 9,7 km/h (2 Bft) 95,65 %
05.05.2026 08:25 16,4 °C 18,9 °C 11,7 °C 13,3 °C 13,9 °C 70 % 84 cb 52 cb 68 cb 1008,1 hPa 0,0 l/m² 6,4 km/h (2 Bft) N 360 ° 1 min 0,000 mm 1,1 UV-I 362 W/m² 10,9 °C 16,4 °C 8,0 km/h (2 Bft) 95,65 %
05.05.2026 08:24 16,4 °C 18,9 °C 11,7 °C 13,3 °C 13,9 °C 69 % 84 cb 52 cb 68 cb 1008,2 hPa 0,0 l/m² 4,8 km/h (1 Bft) N 360 ° 1 min 0,000 mm 1,1 UV-I 359 W/m² 10,7 °C 16,4 °C 6,4 km/h (2 Bft) 100,00 %
05.05.2026 08:23 16,3 °C 18,9 °C 11,7 °C 13,3 °C 13,9 °C 69 % 84 cb 52 cb 68 cb 1008,2 hPa 0,0 l/m² 6,4 km/h (2 Bft) N 360 ° 1 min 0,000 mm 1,1 UV-I 352 W/m² 10,6 °C 16,3 °C 8,0 km/h (2 Bft) 95,65 %
05.05.2026 08:22 16,3 °C 18,9 °C 11,7 °C 13,3 °C 13,9 °C 68 % 84 cb 52 cb 68 cb 1008,2 hPa 0,0 l/m² 6,4 km/h (2 Bft) N 360 ° 1 min 0,000 mm 1,1 UV-I 352 W/m² 10,4 °C 16,3 °C 9,7 km/h (2 Bft) 91,30 %
05.05.2026 08:21 16,3 °C 18,9 °C 11,7 °C 13,3 °C 13,9 °C 69 % 84 cb 52 cb 68 cb 1008,0 hPa 0,0 l/m² 6,4 km/h (2 Bft) N 360 ° 1 min 0,000 mm 1,0 UV-I 350 W/m² 10,6 °C 16,3 °C 6,4 km/h (2 Bft) 100,00 %
05.05.2026 08:20 16,3 °C 18,9 °C 11,7 °C 13,3 °C 13,9 °C 69 % 84 cb 52 cb 68 cb 1008,2 hPa 0,0 l/m² 6,4 km/h (2 Bft) N 360 ° 1 min 0,000 mm 1,0 UV-I 348 W/m² 10,6 °C 16,3 °C 8,0 km/h (2 Bft) 95,65 %
05.05.2026 08:19 16,3 °C 18,9 °C 11,7 °C 13,3 °C 13,9 °C 69 % 85 cb 52 cb 68 cb 1008,2 hPa 0,0 l/m² 6,4 km/h (2 Bft) N 360 ° 1 min 0,000 mm 1,0 UV-I 346 W/m² 10,6 °C 16,3 °C 8,0 km/h (2 Bft) 91,30 %
05.05.2026 08:18 16,3 °C 18,9 °C 11,7 °C 13,3 °C 13,9 °C 68 % 85 cb 52 cb 68 cb 1008,2 hPa 0,0 l/m² 4,8 km/h (1 Bft) N 360 ° 1 min 0,000 mm 1,0 UV-I 345 W/m² 10,4 °C 16,3 °C 6,4 km/h (2 Bft) 95,65 %
05.05.2026 08:17 16,4 °C 18,9 °C 11,7 °C 13,3 °C 13,9 °C 69 % 84 cb 52 cb 68 cb 1008,2 hPa 0,0 l/m² 6,4 km/h (2 Bft) N 360 ° 1 min 0,000 mm 1,0 UV-I 339 W/m² 10,7 °C 16,4 °C 8,0 km/h (2 Bft) 100,00 %
05.05.2026 08:16 16,4 °C 18,9 °C 11,7 °C 13,3 °C 13,9 °C 69 % 85 cb 52 cb 68 cb 1008,1 hPa 0,0 l/m² 4,8 km/h (1 Bft) N 360 ° 1 min 0,000 mm 1,0 UV-I 334 W/m² 10,7 °C 16,4 °C 6,4 km/h (2 Bft) 95,65 %
05.05.2026 08:15 16,4 °C 18,3 °C 11,7 °C 13,3 °C 13,9 °C 69 % 84 cb 52 cb 68 cb 1008,1 hPa 0,0 l/m² 6,4 km/h (2 Bft) N 360 ° 1 min 0,000 mm 1,0 UV-I 325 W/m² 10,7 °C 16,4 °C 9,7 km/h (2 Bft) 95,65 %
05.05.2026 08:14 16,4 °C 18,3 °C 11,7 °C 13,3 °C 13,9 °C 69 % 85 cb 52 cb 68 cb 1008,2 hPa 0,0 l/m² 6,4 km/h (2 Bft) N 360 ° 1 min 0,000 mm 1,0 UV-I 304 W/m² 10,7 °C 16,4 °C 8,0 km/h (2 Bft) 95,65 %
05.05.2026 08:13 16,4 °C 18,3 °C 11,7 °C 13,3 °C 13,9 °C 69 % 84 cb 52 cb 68 cb 1008,2 hPa 0,0 l/m² 6,4 km/h (2 Bft) N 360 ° 1 min 0,000 mm 0,9 UV-I 302 W/m² 10,7 °C 16,4 °C 8,0 km/h (2 Bft) 95,65 %
05.05.2026 08:12 16,4 °C 18,3 °C 11,7 °C 13,3 °C 13,9 °C 69 % 84 cb 52 cb 68 cb 1008,2 hPa 0,0 l/m² 6,4 km/h (2 Bft) N 360 ° 1 min 0,000 mm 0,9 UV-I 295 W/m² 10,7 °C 16,4 °C 8,0 km/h (2 Bft) 95,65 %
05.05.2026 08:11 16,4 °C 18,3 °C 11,7 °C 13,3 °C 13,9 °C 70 % 85 cb 52 cb 68 cb 1008,2 hPa 0,0 l/m² 6,4 km/h (2 Bft) N 360 ° 1 min 0,000 mm 0,9 UV-I 288 W/m² 10,9 °C 16,4 °C 8,0 km/h (2 Bft) 100,00 %
05.05.2026 08:10 16,4 °C 18,3 °C 11,7 °C 13,3 °C 13,9 °C 69 % 85 cb 52 cb 68 cb 1008,2 hPa 0,0 l/m² 4,8 km/h (1 Bft) N 360 ° 1 min 0,000 mm 0,9 UV-I 283 W/m² 10,7 °C 16,4 °C 8,0 km/h (2 Bft) 95,65 %
05.05.2026 08:09 16,3 °C 18,3 °C 11,7 °C 13,3 °C 13,9 °C 69 % 85 cb 52 cb 68 cb 1008,2 hPa 0,0 l/m² 6,4 km/h (2 Bft) N 360 ° 1 min 0,000 mm 0,9 UV-I 271 W/m² 10,6 °C 16,3 °C 9,7 km/h (2 Bft) 86,96 %
05.05.2026 08:08 16,3 °C 18,3 °C 11,7 °C 13,3 °C 13,9 °C 70 % 85 cb 52 cb 68 cb 1008,3 hPa 0,0 l/m² 4,8 km/h (1 Bft) N 360 ° 1 min 0,000 mm 0,9 UV-I 265 W/m² 10,8 °C 16,3 °C 6,4 km/h (2 Bft) 100,00 %
05.05.2026 08:07 16,2 °C 17,8 °C 11,7 °C 13,3 °C 13,9 °C 70 % 85 cb 52 cb 68 cb 1008,2 hPa 0,0 l/m² 4,8 km/h (1 Bft) N 360 ° 1 min 0,000 mm 0,9 UV-I 262 W/m² 10,7 °C 16,2 °C 6,4 km/h (2 Bft) 95,65 %
05.05.2026 08:06 16,2 °C 17,8 °C 11,7 °C 13,3 °C 13,9 °C 72 % 85 cb 52 cb 68 cb 1008,3 hPa 0,0 l/m² 3,2 km/h (1 Bft) N 360 ° 1 min 0,000 mm 0,9 UV-I 258 W/m² 11,1 °C 16,2 °C 4,8 km/h (1 Bft) 95,65 %
05.05.2026 08:05 16,1 °C 17,8 °C 11,7 °C 13,3 °C 13,9 °C 71 % 85 cb 52 cb 68 cb 1008,2 hPa 0,0 l/m² 1,6 km/h (1 Bft) N 360 ° 1 min 0,000 mm 0,9 UV-I 258 W/m² 10,8 °C 16,1 °C 3,2 km/h (1 Bft) 100,00 %
05.05.2026 08:04 16,0 °C 17,8 °C 11,7 °C 13,3 °C 13,9 °C 73 % 85 cb 52 cb 68 cb 1008,2 hPa 0,0 l/m² 1,6 km/h (1 Bft) N 360 ° 1 min 0,000 mm 0,8 UV-I 260 W/m² 11,2 °C 16,0 °C 3,2 km/h (1 Bft) 91,30 %
05.05.2026 08:03 15,9 °C 17,8 °C 11,7 °C 13,3 °C 13,9 °C 73 % 85 cb 52 cb 68 cb 1008,2 hPa 0,0 l/m² 3,2 km/h (1 Bft) N 360 ° 1 min 0,000 mm 0,8 UV-I 267 W/m² 11,1 °C 15,9 °C 3,2 km/h (1 Bft) 95,65 %
05.05.2026 08:02 15,9 °C 17,8 °C 11,7 °C 13,3 °C 13,9 °C 73 % 85 cb 52 cb 68 cb 1008,2 hPa 0,0 l/m² 1,6 km/h (1 Bft) N 360 ° 1 min 0,000 mm 0,8 UV-I 267 W/m² 11,1 °C 15,9 °C 3,2 km/h (1 Bft) 100,00 %
05.05.2026 08:01 15,8 °C 17,2 °C 11,7 °C 13,3 °C 13,9 °C 72 % 85 cb 52 cb 68 cb 1008,3 hPa 0,0 l/m² 3,2 km/h (1 Bft) N 360 ° 1 min 0,000 mm 0,8 UV-I 267 W/m² 10,8 °C 15,8 °C 4,8 km/h (1 Bft) 95,65 %
05.05.2026 08:00 15,8 °C 17,2 °C 11,7 °C 13,3 °C 13,9 °C 73 % 85 cb 52 cb 68 cb 1008,2 hPa 0,0 l/m² 3,2 km/h (1 Bft) N 360 ° 1 min 0,076 mm 0,8 UV-I 274 W/m² 11,0 °C 15,8 °C 4,8 km/h (1 Bft) 95,65 %
05.05.2026 07:59 15,8 °C 17,2 °C 11,7 °C 13,3 °C 13,9 °C 73 % 85 cb 52 cb 68 cb 1008,2 hPa 0,0 l/m² 4,8 km/h (1 Bft) N 360 ° 1 min 0,000 mm 0,8 UV-I 278 W/m² 11,0 °C 15,8 °C 6,4 km/h (2 Bft) 100,00 %
05.05.2026 07:58 15,7 °C 17,2 °C 11,7 °C 13,3 °C 13,9 °C 72 % 85 cb 52 cb 68 cb 1008,2 hPa 0,0 l/m² 4,8 km/h (1 Bft) N 360 ° 1 min 0,000 mm 0,7 UV-I 279 W/m² 10,7 °C 15,7 °C 4,8 km/h (1 Bft) 95,65 %
05.05.2026 07:57 15,7 °C 17,2 °C 11,7 °C 13,3 °C 13,9 °C 72 % 85 cb 52 cb 68 cb 1008,2 hPa 0,0 l/m² 3,2 km/h (1 Bft) N 360 ° 1 min 0,000 mm 0,7 UV-I 274 W/m² 10,7 °C 15,7 °C 4,8 km/h (1 Bft) 95,65 %
05.05.2026 07:56 15,7 °C 16,7 °C 11,7 °C 13,3 °C 13,9 °C 72 % 85 cb 52 cb 68 cb 1008,2 hPa 0,0 l/m² 6,4 km/h (2 Bft) N 360 ° 1 min 0,000 mm 0,7 UV-I 227 W/m² 10,7 °C 15,7 °C 6,4 km/h (2 Bft) 100,00 %
05.05.2026 07:55 15,7 °C 16,7 °C 11,7 °C 13,3 °C 13,9 °C 72 % 85 cb 52 cb 68 cb 1008,2 hPa 0,0 l/m² 3,2 km/h (1 Bft) N 360 ° 1 min 0,000 mm 0,7 UV-I 288 W/m² 10,7 °C 15,7 °C 4,8 km/h (1 Bft) 95,65 %
05.05.2026 07:54 15,7 °C 16,7 °C 11,7 °C 13,3 °C 13,9 °C 74 % 85 cb 52 cb 68 cb 1008,2 hPa 0,0 l/m² 4,8 km/h (1 Bft) N 360 ° 1 min 0,000 mm 0,7 UV-I 272 W/m² 11,1 °C 15,7 °C 4,8 km/h (1 Bft) 95,65 %
05.05.2026 07:53 15,6 °C 16,7 °C 11,7 °C 13,3 °C 13,9 °C 73 % 85 cb 52 cb 68 cb 1008,2 hPa 0,0 l/m² 3,2 km/h (1 Bft) N 360 ° 1 min 0,000 mm 0,7 UV-I 302 W/m² 10,8 °C 15,6 °C 4,8 km/h (1 Bft) 100,00 %
05.05.2026 07:52 15,6 °C 16,7 °C 11,7 °C 13,3 °C 13,9 °C 72 % 85 cb 52 cb 68 cb 1008,2 hPa 0,0 l/m² 4,8 km/h (1 Bft) N 360 ° 1 min 0,000 mm 0,7 UV-I 309 W/m² 10,6 °C 15,6 °C 6,4 km/h (2 Bft) 86,96 %
05.05.2026 07:51 15,6 °C 16,1 °C 11,7 °C 13,3 °C 13,9 °C 73 % 85 cb 52 cb 68 cb 1008,0 hPa 0,0 l/m² 4,8 km/h (1 Bft) N 360 ° 1 min 0,000 mm 0,7 UV-I 306 W/m² 10,8 °C 15,6 °C 6,4 km/h (2 Bft) 95,65 %
05.05.2026 07:50 15,6 °C 16,1 °C 11,7 °C 13,3 °C 13,9 °C 72 % 85 cb 52 cb 68 cb 1008,1 hPa 0,0 l/m² 4,8 km/h (1 Bft) N 360 ° 1 min 0,000 mm 0,7 UV-I 299 W/m² 10,6 °C 15,6 °C 6,4 km/h (2 Bft) 95,65 %
05.05.2026 07:49 15,5 °C 16,1 °C 11,7 °C 13,3 °C 13,9 °C 74 % 85 cb 52 cb 68 cb 1008,1 hPa 0,0 l/m² 3,2 km/h (1 Bft) N 360 ° 1 min 0,000 mm 0,6 UV-I 200 W/m² 10,9 °C 15,5 °C 6,4 km/h (2 Bft) 95,65 %
05.05.2026 07:48 15,5 °C 16,1 °C 11,7 °C 13,3 °C 13,9 °C 73 % 85 cb 52 cb 68 cb 1008,1 hPa 0,0 l/m² 3,2 km/h (1 Bft) N 360 ° 1 min 0,000 mm 0,6 UV-I 294 W/m² 10,7 °C 15,5 °C 4,8 km/h (1 Bft) 95,65 %
05.05.2026 07:47 15,4 °C 15,6 °C 11,7 °C 13,3 °C 13,9 °C 71 % 85 cb 52 cb 68 cb 1008,2 hPa 0,0 l/m² 4,8 km/h (1 Bft) N 360 ° 0 min 0,000 mm 0,6 UV-I 142 W/m² 10,2 °C 15,4 °C 4,8 km/h (1 Bft) 100,00 %
05.05.2026 07:46 15,4 °C 15,6 °C 11,7 °C 13,3 °C 13,9 °C 71 % 85 cb 52 cb 68 cb 1008,2 hPa 0,0 l/m² 4,8 km/h (1 Bft) N 360 ° 1 min 0,000 mm 0,6 UV-I 234 W/m² 10,2 °C 15,4 °C 6,4 km/h (2 Bft) 95,65 %
05.05.2026 07:45 15,4 °C 15,6 °C 11,7 °C 13,3 °C 13,9 °C 71 % 85 cb 52 cb 68 cb 1008,2 hPa 0,0 l/m² 4,8 km/h (1 Bft) N 360 ° 1 min 0,000 mm 0,5 UV-I 186 W/m² 10,2 °C 15,4 °C 6,4 km/h (2 Bft) 91,30 %
05.05.2026 07:44 15,3 °C 15,6 °C 11,7 °C 13,3 °C 13,9 °C 71 % 85 cb 52 cb 68 cb 1008,1 hPa 0,0 l/m² 4,8 km/h (1 Bft) N 360 ° 0 min 0,000 mm 0,5 UV-I 149 W/m² 10,1 °C 15,3 °C 4,8 km/h (1 Bft) 95,65 %
05.05.2026 07:43 15,3 °C 15,0 °C 11,7 °C 13,3 °C 13,9 °C 72 % 85 cb 52 cb 68 cb 1008,2 hPa 0,0 l/m² 4,8 km/h (1 Bft) N 360 ° 0 min 0,000 mm 0,6 UV-I 149 W/m² 10,3 °C 15,3 °C 4,8 km/h (1 Bft) 95,65 %
05.05.2026 07:42 15,2 °C 15,0 °C 11,7 °C 13,3 °C 13,9 °C 72 % 85 cb 52 cb 68 cb 1008,2 hPa 0,0 l/m² 3,2 km/h (1 Bft) N 360 ° 0 min 0,000 mm 0,5 UV-I 149 W/m² 10,2 °C 15,2 °C 4,8 km/h (1 Bft) 95,65 %
05.05.2026 07:41 15,2 °C 15,0 °C 11,7 °C 13,3 °C 13,9 °C 72 % 85 cb 52 cb 68 cb 1008,3 hPa 0,0 l/m² 3,2 km/h (1 Bft) N 360 ° 1 min 0,000 mm 0,5 UV-I 178 W/m² 10,2 °C 15,2 °C 4,8 km/h (1 Bft) 95,65 %
05.05.2026 07:40 15,2 °C 14,4 °C 11,7 °C 13,3 °C 13,9 °C 72 % 85 cb 52 cb 68 cb 1008,2 hPa 0,0 l/m² 3,2 km/h (1 Bft) N 360 ° 0 min 0,000 mm 0,5 UV-I 134 W/m² 10,2 °C 15,2 °C 4,8 km/h (1 Bft) 95,65 %
05.05.2026 07:39 15,2 °C 14,4 °C 11,7 °C 13,3 °C 13,9 °C 72 % 85 cb 52 cb 68 cb 1008,2 hPa 0,0 l/m² 3,2 km/h (1 Bft) N 360 ° 0 min 0,000 mm 0,5 UV-I 134 W/m² 10,2 °C 15,2 °C 4,8 km/h (1 Bft) 95,65 %
05.05.2026 07:38 15,2 °C 14,4 °C 11,7 °C 13,3 °C 13,9 °C 72 % 85 cb 52 cb 68 cb 1008,3 hPa 0,0 l/m² 1,6 km/h (1 Bft) N 360 ° 0 min 0,000 mm 0,5 UV-I 114 W/m² 10,2 °C 15,2 °C 3,2 km/h (1 Bft) 91,30 %
05.05.2026 07:37 15,2 °C 14,4 °C 11,7 °C 13,3 °C 13,9 °C 72 % 85 cb 52 cb 68 cb 1008,3 hPa 0,0 l/m² 3,2 km/h (1 Bft) N 360 ° 0 min 0,000 mm 0,0 UV-I 114 W/m² 10,2 °C 15,2 °C 4,8 km/h (1 Bft) 95,65 %
05.05.2026 07:36 15,1 °C 14,4 °C 11,7 °C 13,3 °C 13,9 °C 72 % 85 cb 52 cb 68 cb 1008,3 hPa 0,0 l/m² 3,2 km/h (1 Bft) N 360 ° 0 min 0,000 mm 0,0 UV-I 100 W/m² 10,1 °C 15,1 °C 4,8 km/h (1 Bft) 95,65 %
05.05.2026 07:35 15,2 °C 14,4 °C 11,7 °C 13,3 °C 13,9 °C 72 % 85 cb 52 cb 68 cb 1008,2 hPa 0,0 l/m² 3,2 km/h (1 Bft) N 360 ° 0 min 0,000 mm 0,0 UV-I 125 W/m² 10,2 °C 15,2 °C 4,8 km/h (1 Bft) 100,00 %
05.05.2026 07:34 15,2 °C 14,4 °C 11,7 °C 13,3 °C 13,9 °C 72 % 85 cb 52 cb 68 cb 1008,3 hPa 0,0 l/m² 4,8 km/h (1 Bft) N 360 ° 0 min 0,000 mm 0,0 UV-I 98 W/m² 10,2 °C 15,2 °C 4,8 km/h (1 Bft) 95,65 %
05.05.2026 07:33 15,1 °C 14,4 °C 11,7 °C 13,3 °C 13,9 °C 72 % 85 cb 52 cb 68 cb 1008,3 hPa 0,0 l/m² 4,8 km/h (1 Bft) N 360 ° 0 min 0,000 mm 0,0 UV-I 86 W/m² 10,1 °C 15,1 °C 4,8 km/h (1 Bft) 95,65 %
05.05.2026 07:32 15,2 °C 14,4 °C 11,7 °C 13,3 °C 13,9 °C 72 % 85 cb 52 cb 68 cb 1008,2 hPa 0,0 l/m² 4,8 km/h (1 Bft) N 360 ° 0 min 0,000 mm 0,0 UV-I 84 W/m² 10,2 °C 15,2 °C 6,4 km/h (2 Bft) 91,30 %
05.05.2026 07:31 15,2 °C 14,4 °C 11,7 °C 13,9 °C 13,9 °C 72 % 85 cb 52 cb 68 cb 1008,3 hPa 0,0 l/m² 4,8 km/h (1 Bft) N 360 ° 0 min 0,000 mm 0,0 UV-I 105 W/m² 10,2 °C 15,2 °C 6,4 km/h (2 Bft) 100,00 %
05.05.2026 07:30 15,2 °C 14,4 °C 11,7 °C 13,9 °C 13,9 °C 72 % 85 cb 52 cb 68 cb 1008,3 hPa 0,0 l/m² 4,8 km/h (1 Bft) N 360 ° 0 min 0,000 mm 0,0 UV-I 88 W/m² 10,2 °C 15,2 °C 6,4 km/h (2 Bft) 95,65 %
05.05.2026 07:29 15,1 °C 14,4 °C 11,7 °C 13,9 °C 13,9 °C 72 % 85 cb 52 cb 68 cb 1008,2 hPa 0,0 l/m² 6,4 km/h (2 Bft) N 360 ° 0 min 0,000 mm 0,0 UV-I 83 W/m² 10,1 °C 15,1 °C 6,4 km/h (2 Bft) 17,39 %
05.05.2026 07:28 15,1 °C 14,4 °C 11,7 °C 13,9 °C 13,9 °C 72 % 85 cb 52 cb 68 cb 1008,3 hPa 0,0 l/m² 4,8 km/h (1 Bft) N 360 ° 0 min 0,000 mm 0,0 UV-I 84 W/m² 10,1 °C 15,1 °C 6,4 km/h (2 Bft) 52,17 %
05.05.2026 07:27 15,1 °C 14,4 °C 11,7 °C 13,9 °C 13,9 °C 72 % 85 cb 52 cb 68 cb 1008,3 hPa 0,0 l/m² 4,8 km/h (1 Bft) N 360 ° 0 min 0,000 mm 0,0 UV-I 84 W/m² 10,1 °C 15,1 °C 4,8 km/h (1 Bft) 95,65 %
05.05.2026 07:26 15,1 °C 14,4 °C 11,7 °C 13,9 °C 13,9 °C 72 % 85 cb 52 cb 68 cb 1008,3 hPa 0,0 l/m² 3,2 km/h (1 Bft) N 360 ° 0 min 0,000 mm 0,0 UV-I 88 W/m² 10,1 °C 15,1 °C 4,8 km/h (1 Bft) 91,30 %
05.05.2026 07:25 15,0 °C 14,4 °C 11,7 °C 13,9 °C 13,9 °C 73 % 85 cb 52 cb 68 cb 1008,3 hPa 0,0 l/m² 3,2 km/h (1 Bft) N 360 ° 0 min 0,000 mm 0,0 UV-I 88 W/m² 10,2 °C 15,0 °C 4,8 km/h (1 Bft) 95,65 %
05.05.2026 07:24 15,0 °C 14,4 °C 11,7 °C 13,9 °C 13,9 °C 73 % 85 cb 52 cb 68 cb 1008,3 hPa 0,0 l/m² 3,2 km/h (1 Bft) N 360 ° 0 min 0,000 mm 0,0 UV-I 90 W/m² 10,2 °C 15,0 °C 4,8 km/h (1 Bft) 95,65 %
05.05.2026 07:23 15,0 °C 14,4 °C 11,7 °C 13,9 °C 13,9 °C 72 % 85 cb 52 cb 68 cb 1008,3 hPa 0,0 l/m² 4,8 km/h (1 Bft) N 360 ° 0 min 0,000 mm 0,0 UV-I 93 W/m² 10,0 °C 15,0 °C 4,8 km/h (1 Bft) 91,30 %
05.05.2026 07:22 14,9 °C 14,4 °C 11,7 °C 13,9 °C 13,9 °C 73 % 85 cb 52 cb 68 cb 1008,3 hPa 0,0 l/m² 3,2 km/h (1 Bft) N 360 ° 0 min 0,000 mm 0,0 UV-I 105 W/m² 10,1 °C 14,9 °C 4,8 km/h (1 Bft) 100,00 %
05.05.2026 07:21 14,9 °C 14,4 °C 11,7 °C 13,9 °C 13,9 °C 73 % 85 cb 52 cb 68 cb 1008,3 hPa 0,0 l/m² 4,8 km/h (1 Bft) N 360 ° 0 min 0,000 mm 0,0 UV-I 93 W/m² 10,1 °C 14,9 °C 4,8 km/h (1 Bft) 95,65 %
05.05.2026 07:20 14,9 °C 14,4 °C 11,7 °C 13,9 °C 13,9 °C 73 % 85 cb 52 cb 68 cb 1008,2 hPa 0,0 l/m² 3,2 km/h (1 Bft) N 360 ° 0 min 0,000 mm 0,0 UV-I 93 W/m² 10,1 °C 14,9 °C 4,8 km/h (1 Bft) 91,30 %
05.05.2026 07:19 14,8 °C 14,4 °C 11,7 °C 13,9 °C 13,9 °C 73 % 85 cb 52 cb 68 cb 1008,2 hPa 0,0 l/m² 3,2 km/h (1 Bft) N 360 ° 0 min 0,000 mm 0,0 UV-I 91 W/m² 10,0 °C 14,8 °C 4,8 km/h (1 Bft) 95,65 %
05.05.2026 07:18 14,8 °C 14,4 °C 11,7 °C 13,9 °C 13,9 °C 73 % 84 cb 52 cb 68 cb 1008,2 hPa 0,0 l/m² 4,8 km/h (1 Bft) N 360 ° 0 min 0,000 mm 0,0 UV-I 90 W/m² 10,0 °C 14,8 °C 4,8 km/h (1 Bft) 95,65 %
05.05.2026 07:17 14,8 °C 14,4 °C 11,7 °C 13,9 °C 13,9 °C 73 % 85 cb 52 cb 68 cb 1008,2 hPa 0,0 l/m² 4,8 km/h (1 Bft) N 360 ° 0 min 0,000 mm 0,0 UV-I 88 W/m² 10,0 °C 14,8 °C 4,8 km/h (1 Bft) 95,65 %
05.05.2026 07:16 14,8 °C 14,4 °C 11,7 °C 13,9 °C 13,9 °C 73 % 85 cb 52 cb 68 cb 1008,2 hPa 0,0 l/m² 4,8 km/h (1 Bft) N 360 ° 0 min 0,000 mm 0,0 UV-I 88 W/m² 10,0 °C 14,8 °C 6,4 km/h (2 Bft) 100,00 %
05.05.2026 07:15 14,8 °C 14,4 °C 11,7 °C 13,9 °C 13,9 °C 74 % 85 cb 52 cb 68 cb 1008,0 hPa 0,0 l/m² 3,2 km/h (1 Bft) N 360 ° 0 min 0,000 mm 0,0 UV-I 90 W/m² 10,2 °C 14,8 °C 4,8 km/h (1 Bft) 91,30 %
05.05.2026 07:14 14,7 °C 14,4 °C 11,7 °C 13,9 °C 13,9 °C 73 % 85 cb 52 cb 68 cb 1008,2 hPa 0,0 l/m² 4,8 km/h (1 Bft) N 360 ° 0 min 0,000 mm 0,0 UV-I 91 W/m² 9,9 °C 14,7 °C 6,4 km/h (2 Bft) 95,65 %
05.05.2026 07:13 14,7 °C 14,4 °C 11,7 °C 13,9 °C 13,9 °C 74 % 85 cb 52 cb 68 cb 1008,0 hPa 0,0 l/m² 4,8 km/h (1 Bft) N 360 ° 0 min 0,000 mm 0,0 UV-I 93 W/m² 10,1 °C 14,7 °C 6,4 km/h (2 Bft) 100,00 %
05.05.2026 07:12 14,6 °C 14,4 °C 11,7 °C 13,9 °C 13,9 °C 74 % 85 cb 52 cb 68 cb 1008,0 hPa 0,0 l/m² 4,8 km/h (1 Bft) N 360 ° 0 min 0,000 mm 0,0 UV-I 142 W/m² 10,0 °C 14,6 °C 4,8 km/h (1 Bft) 91,30 %
05.05.2026 07:11 14,6 °C 14,4 °C 11,7 °C 13,9 °C 13,9 °C 74 % 85 cb 52 cb 68 cb 1008,1 hPa 0,0 l/m² 4,8 km/h (1 Bft) N 360 ° 0 min 0,000 mm 0,0 UV-I 130 W/m² 10,0 °C 14,6 °C 6,4 km/h (2 Bft) 95,65 %
05.05.2026 07:10 14,6 °C 14,4 °C 11,7 °C 13,9 °C 13,9 °C 74 % 85 cb 52 cb 68 cb 1008,0 hPa 0,0 l/m² 4,8 km/h (1 Bft) N 360 ° 0 min 0,000 mm 0,0 UV-I 121 W/m² 10,0 °C 14,6 °C 4,8 km/h (1 Bft) 100,00 %
05.05.2026 07:09 14,6 °C 14,4 °C 11,7 °C 13,9 °C 13,9 °C 74 % 84 cb 52 cb 68 cb 1008,0 hPa 0,0 l/m² 4,8 km/h (1 Bft) N 360 ° 0 min 0,000 mm 0,0 UV-I 125 W/m² 10,0 °C 14,6 °C 6,4 km/h (2 Bft) 91,30 %
05.05.2026 07:08 14,5 °C 13,9 °C 11,7 °C 13,9 °C 13,9 °C 75 % 84 cb 52 cb 68 cb 1008,0 hPa 0,0 l/m² 4,8 km/h (1 Bft) N 360 ° 0 min 0,000 mm 0,0 UV-I 113 W/m² 10,1 °C 14,5 °C 6,4 km/h (2 Bft) 91,30 %
05.05.2026 07:07 14,6 °C 13,9 °C 11,7 °C 13,9 °C 13,9 °C 74 % 85 cb 52 cb 68 cb 1008,0 hPa 0,0 l/m² 4,8 km/h (1 Bft) N 360 ° 0 min 0,000 mm 0,0 UV-I 111 W/m² 10,0 °C 14,6 °C 6,4 km/h (2 Bft) 100,00 %
05.05.2026 07:06 14,5 °C 13,9 °C 11,7 °C 13,9 °C 13,9 °C 74 % 84 cb 52 cb 68 cb 1008,0 hPa 0,0 l/m² 4,8 km/h (1 Bft) N 360 ° 0 min 0,000 mm 0,0 UV-I 134 W/m² 9,9 °C 14,5 °C 6,4 km/h (2 Bft) 95,65 %
05.05.2026 07:05 14,5 °C 13,3 °C 11,7 °C 13,9 °C 13,9 °C 74 % 85 cb 52 cb 68 cb 1008,1 hPa 0,0 l/m² 4,8 km/h (1 Bft) N 360 ° 0 min 0,000 mm 0,0 UV-I 135 W/m² 9,9 °C 14,5 °C 6,4 km/h (2 Bft) 91,30 %
05.05.2026 07:04 14,5 °C 13,3 °C 11,7 °C 13,9 °C 13,9 °C 74 % 85 cb 52 cb 68 cb 1008,0 hPa 0,0 l/m² 6,4 km/h (2 Bft) N 360 ° 0 min 0,000 mm 0,0 UV-I 107 W/m² 9,9 °C 14,5 °C 6,4 km/h (2 Bft) 100,00 %
05.05.2026 07:03 14,5 °C 13,3 °C 11,7 °C 13,9 °C 13,9 °C 74 % 84 cb 52 cb 68 cb 1008,0 hPa 0,0 l/m² 6,4 km/h (2 Bft) N 360 ° 0 min 0,000 mm 0,0 UV-I 107 W/m² 9,9 °C 14,5 °C 8,0 km/h (2 Bft) 95,65 %
05.05.2026 07:02 14,5 °C 13,3 °C 11,7 °C 13,9 °C 13,9 °C 74 % 84 cb 52 cb 68 cb 1008,0 hPa 0,0 l/m² 6,4 km/h (2 Bft) N 360 ° 0 min 0,000 mm 0,0 UV-I 102 W/m² 9,9 °C 14,5 °C 8,0 km/h (2 Bft) 95,65 %
05.05.2026 07:01 14,5 °C 12,8 °C 11,7 °C 13,9 °C 13,9 °C 74 % 84 cb 52 cb 68 cb 1008,1 hPa 0,0 l/m² 6,4 km/h (2 Bft) N 360 ° 0 min 0,000 mm 0,0 UV-I 97 W/m² 9,9 °C 14,5 °C 8,0 km/h (2 Bft) 100,00 %
05.05.2026 07:00 14,6 °C 12,8 °C 11,7 °C 13,9 °C 13,9 °C 74 % 85 cb 52 cb 68 cb 1008,0 hPa 0,0 l/m² 6,4 km/h (2 Bft) N 360 ° 0 min 0,051 mm 0,0 UV-I 100 W/m² 10,0 °C 14,6 °C 8,0 km/h (2 Bft) 91,30 %
05.05.2026 06:59 14,6 °C 12,8 °C 11,7 °C 13,9 °C 13,9 °C 74 % 84 cb 52 cb 68 cb 1008,0 hPa 0,0 l/m² 6,4 km/h (2 Bft) N 360 ° 0 min 0,000 mm 0,0 UV-I 77 W/m² 10,0 °C 14,6 °C 8,0 km/h (2 Bft) 95,65 %
05.05.2026 06:58 14,6 °C 12,8 °C 11,7 °C 13,9 °C 13,9 °C 73 % 84 cb 52 cb 68 cb 1008,0 hPa 0,0 l/m² 6,4 km/h (2 Bft) N 360 ° 0 min 0,000 mm 0,0 UV-I 69 W/m² 9,8 °C 14,6 °C 8,0 km/h (2 Bft) 95,65 %
05.05.2026 06:57 14,7 °C 12,8 °C 11,7 °C 13,9 °C 13,9 °C 73 % 85 cb 52 cb 68 cb 1008,1 hPa 0,0 l/m² 8,0 km/h (2 Bft) N 360 ° 0 min 0,000 mm 0,0 UV-I 65 W/m² 9,9 °C 13,8 °C 8,0 km/h (2 Bft) 95,65 %
05.05.2026 06:56 14,8 °C 12,8 °C 11,7 °C 13,9 °C 13,9 °C 73 % 84 cb 52 cb 69 cb 1008,1 hPa 0,0 l/m² 6,4 km/h (2 Bft) N 360 ° 0 min 0,000 mm 0,0 UV-I 76 W/m² 10,0 °C 14,8 °C 8,0 km/h (2 Bft) 95,65 %
05.05.2026 06:55 14,8 °C 12,8 °C 11,7 °C 13,9 °C 13,9 °C 73 % 84 cb 52 cb 69 cb 1008,1 hPa 0,0 l/m² 6,4 km/h (2 Bft) N 360 ° 0 min 0,000 mm 0,0 UV-I 63 W/m² 10,0 °C 14,8 °C 8,0 km/h (2 Bft) 100,00 %
05.05.2026 06:54 14,8 °C 12,8 °C 11,7 °C 13,9 °C 13,9 °C 72 % 84 cb 52 cb 69 cb 1008,0 hPa 0,0 l/m² 6,4 km/h (2 Bft) N 360 ° 0 min 0,000 mm 0,0 UV-I 67 W/m² 9,8 °C 14,8 °C 8,0 km/h (2 Bft) 95,65 %
05.05.2026 06:53 14,9 °C 12,8 °C 11,7 °C 13,9 °C 13,9 °C 72 % 84 cb 52 cb 69 cb 1008,1 hPa 0,0 l/m² 6,4 km/h (2 Bft) N 360 ° 0 min 0,000 mm 0,0 UV-I 58 W/m² 9,9 °C 14,9 °C 8,0 km/h (2 Bft) 86,96 %
05.05.2026 06:52 14,9 °C 12,8 °C 11,7 °C 13,9 °C 13,9 °C 72 % 84 cb 52 cb 68 cb 1008,1 hPa 0,0 l/m² 6,4 km/h (2 Bft) N 360 ° 0 min 0,000 mm 0,0 UV-I 47 W/m² 9,9 °C 14,9 °C 8,0 km/h (2 Bft) 100,00 %
05.05.2026 06:51 14,9 °C 12,8 °C 11,7 °C 13,9 °C 13,9 °C 72 % 84 cb 52 cb 69 cb 1008,0 hPa 0,0 l/m² 6,4 km/h (2 Bft) N 360 ° 0 min 0,000 mm 0,0 UV-I 44 W/m² 9,9 °C 14,9 °C 8,0 km/h (2 Bft) 91,30 %
05.05.2026 06:50 15,0 °C 12,8 °C 11,7 °C 13,9 °C 13,9 °C 71 % 84 cb 52 cb 69 cb 1008,2 hPa 0,0 l/m² 6,4 km/h (2 Bft) N 360 ° 0 min 0,000 mm 0,0 UV-I 46 W/m² 9,8 °C 15,0 °C 8,0 km/h (2 Bft) 91,30 %
05.05.2026 06:49 15,1 °C 12,8 °C 11,7 °C 13,9 °C 13,9 °C 71 % 84 cb 52 cb 69 cb 1008,0 hPa 0,0 l/m² 6,4 km/h (2 Bft) N 360 ° 0 min 0,000 mm 0,0 UV-I 39 W/m² 9,9 °C 15,1 °C 8,0 km/h (2 Bft) 95,65 %
05.05.2026 06:48 15,1 °C 12,8 °C 11,7 °C 13,9 °C 13,9 °C 71 % 84 cb 52 cb 69 cb 1008,0 hPa 0,0 l/m² 8,0 km/h (2 Bft) N 360 ° 0 min 0,000 mm 0,0 UV-I 39 W/m² 9,9 °C 14,2 °C 8,0 km/h (2 Bft) 95,65 %
05.05.2026 06:47 15,1 °C 12,8 °C 11,7 °C 13,9 °C 13,9 °C 71 % 84 cb 52 cb 69 cb 1008,0 hPa 0,0 l/m² 8,0 km/h (2 Bft) N 360 ° 0 min 0,000 mm 0,0 UV-I 44 W/m² 9,9 °C 14,2 °C 9,7 km/h (2 Bft) 95,65 %
05.05.2026 06:46 15,1 °C 12,8 °C 11,7 °C 13,9 °C 13,9 °C 71 % 84 cb 52 cb 69 cb 1008,0 hPa 0,0 l/m² 8,0 km/h (2 Bft) N 360 ° 0 min 0,000 mm 0,0 UV-I 39 W/m² 9,9 °C 14,2 °C 8,0 km/h (2 Bft) 100,00 %
05.05.2026 06:45 15,1 °C 12,8 °C 11,7 °C 13,9 °C 13,9 °C 71 % 84 cb 52 cb 69 cb 1008,1 hPa 0,0 l/m² 8,0 km/h (2 Bft) N 360 ° 0 min 0,000 mm 0,0 UV-I 46 W/m² 9,9 °C 14,2 °C 8,0 km/h (2 Bft) 95,65 %
05.05.2026 06:44 15,1 °C 12,8 °C 11,7 °C 13,9 °C 13,9 °C 71 % 84 cb 52 cb 69 cb 1008,1 hPa 0,0 l/m² 6,4 km/h (2 Bft) N 360 ° 0 min 0,000 mm 0,0 UV-I 63 W/m² 9,9 °C 15,1 °C 8,0 km/h (2 Bft) 95,65 %
05.05.2026 06:43 15,1 °C 12,8 °C 11,7 °C 13,9 °C 13,9 °C 71 % 84 cb 52 cb 69 cb 1008,0 hPa 0,0 l/m² 6,4 km/h (2 Bft) N 360 ° 0 min 0,000 mm 0,0 UV-I 67 W/m² 9,9 °C 15,1 °C 8,0 km/h (2 Bft) 91,30 %
05.05.2026 06:42 15,1 °C 12,8 °C 11,7 °C 13,9 °C 13,9 °C 71 % 84 cb 52 cb 69 cb 1008,0 hPa 0,0 l/m² 8,0 km/h (2 Bft) N 360 ° 0 min 0,000 mm 0,0 UV-I 67 W/m² 9,9 °C 14,2 °C 8,0 km/h (2 Bft) 100,00 %
05.05.2026 06:41 15,1 °C 12,8 °C 11,7 °C 13,9 °C 13,9 °C 71 % 84 cb 52 cb 69 cb 1008,0 hPa 0,0 l/m² 6,4 km/h (2 Bft) N 360 ° 0 min 0,000 mm 0,0 UV-I 51 W/m² 9,9 °C 15,1 °C 8,0 km/h (2 Bft) 91,30 %
05.05.2026 06:40 15,1 °C 12,8 °C 11,7 °C 13,9 °C 13,9 °C 71 % 84 cb 52 cb 69 cb 1008,0 hPa 0,0 l/m² 6,4 km/h (2 Bft) N 360 ° 0 min 0,000 mm 0,0 UV-I 44 W/m² 9,9 °C 15,1 °C 6,4 km/h (2 Bft) 95,65 %
05.05.2026 06:39 15,1 °C 12,8 °C 11,7 °C 13,9 °C 13,9 °C 71 % 84 cb 52 cb 69 cb 1008,0 hPa 0,0 l/m² 6,4 km/h (2 Bft) N 360 ° 0 min 0,000 mm 0,0 UV-I 46 W/m² 9,9 °C 15,1 °C 8,0 km/h (2 Bft) 100,00 %
05.05.2026 06:38 15,1 °C 12,8 °C 11,7 °C 13,9 °C 13,9 °C 71 % 84 cb 52 cb 69 cb 1008,0 hPa 0,0 l/m² 6,4 km/h (2 Bft) N 360 ° 0 min 0,000 mm 0,0 UV-I 47 W/m² 9,9 °C 15,1 °C 6,4 km/h (2 Bft) 95,65 %
05.05.2026 06:37 15,2 °C 12,8 °C 11,7 °C 13,9 °C 13,9 °C 71 % 84 cb 52 cb 69 cb 1008,1 hPa 0,0 l/m² 6,4 km/h (2 Bft) N 360 ° 0 min 0,000 mm 0,0 UV-I 49 W/m² 10,0 °C 15,2 °C 8,0 km/h (2 Bft) 91,30 %
05.05.2026 06:36 15,1 °C 12,8 °C 11,7 °C 13,9 °C 13,9 °C 71 % 84 cb 52 cb 69 cb 1008,1 hPa 0,0 l/m² 8,0 km/h (2 Bft) N 360 ° 0 min 0,000 mm 0,0 UV-I 49 W/m² 9,9 °C 14,2 °C 9,7 km/h (2 Bft) 100,00 %
05.05.2026 06:35 15,2 °C 12,8 °C 11,7 °C 13,9 °C 13,9 °C 71 % 84 cb 52 cb 69 cb 1008,0 hPa 0,0 l/m² 8,0 km/h (2 Bft) N 360 ° 0 min 0,000 mm 0,0 UV-I 47 W/m² 10,0 °C 14,3 °C 8,0 km/h (2 Bft) 95,65 %
05.05.2026 06:34 15,2 °C 12,8 °C 11,7 °C 13,9 °C 13,9 °C 71 % 84 cb 52 cb 69 cb 1008,1 hPa 0,0 l/m² 8,0 km/h (2 Bft) N 360 ° 0 min 0,000 mm 0,0 UV-I 46 W/m² 10,0 °C 14,3 °C 9,7 km/h (2 Bft) 91,30 %
05.05.2026 06:33 15,2 °C 12,8 °C 11,7 °C 13,9 °C 13,9 °C 70 % 84 cb 52 cb 69 cb 1008,1 hPa 0,0 l/m² 8,0 km/h (2 Bft) N 360 ° 0 min 0,000 mm 0,0 UV-I 46 W/m² 9,8 °C 14,3 °C 9,7 km/h (2 Bft) 100,00 %
05.05.2026 06:32 15,2 °C 12,8 °C 11,7 °C 13,9 °C 13,9 °C 70 % 84 cb 52 cb 69 cb 1008,0 hPa 0,0 l/m² 8,0 km/h (2 Bft) N 360 ° 0 min 0,000 mm 0,0 UV-I 46 W/m² 9,8 °C 14,3 °C 8,0 km/h (2 Bft) 95,65 %
05.05.2026 06:31 15,2 °C 12,8 °C 11,7 °C 13,9 °C 13,9 °C 70 % 84 cb 52 cb 69 cb 1008,2 hPa 0,0 l/m² 6,4 km/h (2 Bft) N 360 ° 0 min 0,000 mm 0,0 UV-I 46 W/m² 9,8 °C 15,2 °C 9,7 km/h (2 Bft) 91,30 %
05.05.2026 06:30 15,2 °C 12,8 °C 11,7 °C 13,9 °C 13,9 °C 70 % 84 cb 52 cb 69 cb 1008,2 hPa 0,0 l/m² 8,0 km/h (2 Bft) N 360 ° 0 min 0,000 mm 0,0 UV-I 44 W/m² 9,8 °C 14,3 °C 9,7 km/h (2 Bft) 100,00 %
05.05.2026 06:29 15,2 °C 12,2 °C 11,7 °C 13,9 °C 13,9 °C 70 % 84 cb 52 cb 69 cb 1008,1 hPa 0,0 l/m² 8,0 km/h (2 Bft) N 360 ° 0 min 0,000 mm 0,0 UV-I 40 W/m² 9,8 °C 14,3 °C 9,7 km/h (2 Bft) 95,65 %
05.05.2026 06:28 15,2 °C 12,2 °C 11,7 °C 13,9 °C 13,9 °C 70 % 84 cb 52 cb 69 cb 1008,2 hPa 0,0 l/m² 9,7 km/h (2 Bft) N 360 ° 0 min 0,000 mm 0,0 UV-I 39 W/m² 9,8 °C 13,5 °C 12,9 km/h (3 Bft) 95,65 %
05.05.2026 06:27 15,2 °C 12,2 °C 11,7 °C 13,9 °C 13,9 °C 70 % 84 cb 52 cb 69 cb 1008,1 hPa 0,0 l/m² 9,7 km/h (2 Bft) N 360 ° 0 min 0,000 mm 0,0 UV-I 37 W/m² 9,8 °C 13,5 °C 12,9 km/h (3 Bft) 100,00 %
05.05.2026 06:26 15,1 °C 12,2 °C 11,7 °C 13,9 °C 13,9 °C 70 % 84 cb 52 cb 69 cb 1008,1 hPa 0,0 l/m² 8,0 km/h (2 Bft) N 360 ° 0 min 0,000 mm 0,0 UV-I 35 W/m² 9,7 °C 14,2 °C 9,7 km/h (2 Bft) 95,65 %
05.05.2026 06:25 15,2 °C 12,2 °C 11,7 °C 13,9 °C 13,9 °C 70 % 84 cb 52 cb 69 cb 1008,1 hPa 0,0 l/m² 8,0 km/h (2 Bft) N 360 ° 0 min 0,000 mm 0,0 UV-I 30 W/m² 9,8 °C 14,3 °C 12,9 km/h (3 Bft) 95,65 %
05.05.2026 06:24 15,2 °C 12,2 °C 11,7 °C 13,9 °C 13,9 °C 70 % 84 cb 52 cb 69 cb 1008,1 hPa 0,0 l/m² 8,0 km/h (2 Bft) N 360 ° 0 min 0,000 mm 0,0 UV-I 26 W/m² 9,8 °C 14,3 °C 9,7 km/h (2 Bft) 100,00 %
05.05.2026 06:23 15,2 °C 12,2 °C 11,7 °C 13,9 °C 13,9 °C 70 % 84 cb 52 cb 69 cb 1008,2 hPa 0,0 l/m² 11,3 km/h (2 Bft) N 360 ° 0 min 0,000 mm 0,0 UV-I 23 W/m² 9,8 °C 12,8 °C 12,9 km/h (3 Bft) 95,65 %
05.05.2026 06:22 15,2 °C 12,2 °C 11,7 °C 13,9 °C 13,9 °C 70 % 84 cb 52 cb 69 cb 1008,1 hPa 0,0 l/m² 11,3 km/h (2 Bft) N 360 ° 0 min 0,000 mm 0,0 UV-I 23 W/m² 9,8 °C 12,8 °C 14,5 km/h (3 Bft) 91,30 %
05.05.2026 06:21 15,2 °C 12,2 °C 11,7 °C 13,9 °C 13,9 °C 70 % 84 cb 52 cb 69 cb 1008,2 hPa 0,0 l/m² 9,7 km/h (2 Bft) N 360 ° 0 min 0,000 mm 0,0 UV-I 21 W/m² 9,8 °C 13,5 °C 14,5 km/h (3 Bft) 100,00 %
05.05.2026 06:20 15,2 °C 12,2 °C 11,7 °C 13,9 °C 13,9 °C 70 % 84 cb 52 cb 69 cb 1008,2 hPa 0,0 l/m² 9,7 km/h (2 Bft) N 360 ° 0 min 0,000 mm 0,0 UV-I 21 W/m² 9,8 °C 13,5 °C 12,9 km/h (3 Bft) 95,65 %
05.05.2026 06:19 15,2 °C 12,2 °C 11,7 °C 13,9 °C 13,9 °C 70 % 84 cb 52 cb 69 cb 1008,2 hPa 0,0 l/m² 11,3 km/h (2 Bft) N 360 ° 0 min 0,000 mm 0,0 UV-I 21 W/m² 9,8 °C 12,8 °C 14,5 km/h (3 Bft) 91,30 %
05.05.2026 06:18 15,3 °C 12,2 °C 11,7 °C 13,9 °C 13,9 °C 70 % 84 cb 52 cb 69 cb 1008,2 hPa 0,0 l/m² 9,7 km/h (2 Bft) N 360 ° 0 min 0,000 mm 0,0 UV-I 19 W/m² 9,9 °C 13,6 °C 14,5 km/h (3 Bft) 100,00 %
05.05.2026 06:17 15,3 °C 12,2 °C 11,7 °C 13,9 °C 13,9 °C 69 % 84 cb 52 cb 69 cb 1008,1 hPa 0,0 l/m² 11,3 km/h (2 Bft) N 360 ° 0 min 0,000 mm 0,0 UV-I 19 W/m² 9,6 °C 12,9 °C 14,5 km/h (3 Bft) 95,65 %
05.05.2026 06:16 15,3 °C 12,2 °C 11,7 °C 13,9 °C 13,9 °C 69 % 84 cb 52 cb 69 cb 1008,2 hPa 0,0 l/m² 9,7 km/h (2 Bft) N 360 ° 0 min 0,000 mm 0,0 UV-I 18 W/m² 9,6 °C 13,6 °C 12,9 km/h (3 Bft) 95,65 %
05.05.2026 06:15 15,3 °C 12,2 °C 11,7 °C 13,9 °C 13,9 °C 70 % 84 cb 52 cb 69 cb 1008,2 hPa 0,0 l/m² 9,7 km/h (2 Bft) N 360 ° 0 min 0,000 mm 0,0 UV-I 18 W/m² 9,9 °C 13,6 °C 12,9 km/h (3 Bft) 100,00 %
05.05.2026 06:14 15,3 °C 12,2 °C 11,7 °C 13,9 °C 13,9 °C 70 % 84 cb 52 cb 69 cb 1008,2 hPa 0,0 l/m² 8,0 km/h (2 Bft) N 360 ° 0 min 0,000 mm 0,0 UV-I 18 W/m² 9,9 °C 14,4 °C 12,9 km/h (3 Bft) 91,30 %
05.05.2026 06:13 15,3 °C 12,2 °C 11,7 °C 13,9 °C 13,9 °C 70 % 84 cb 52 cb 69 cb 1008,2 hPa 0,0 l/m² 8,0 km/h (2 Bft) N 360 ° 0 min 0,000 mm 0,0 UV-I 18 W/m² 9,9 °C 14,4 °C 9,7 km/h (2 Bft) 86,96 %
05.05.2026 06:12 15,3 °C 12,2 °C 11,7 °C 13,9 °C 13,9 °C 70 % 84 cb 52 cb 69 cb 1008,2 hPa 0,0 l/m² 11,3 km/h (2 Bft) N 360 ° 0 min 0,000 mm 0,0 UV-I 18 W/m² 9,9 °C 12,9 °C 14,5 km/h (3 Bft) 100,00 %
05.05.2026 06:11 15,3 °C 12,2 °C 11,7 °C 13,9 °C 13,9 °C 70 % 84 cb 52 cb 69 cb 1008,3 hPa 0,0 l/m² 9,7 km/h (2 Bft) N 360 ° 0 min 0,000 mm 0,0 UV-I 16 W/m² 9,9 °C 13,6 °C 12,9 km/h (3 Bft) 95,65 %
05.05.2026 06:10 15,3 °C 12,2 °C 11,7 °C 13,9 °C 13,9 °C 70 % 84 cb 52 cb 69 cb 1008,2 hPa 0,0 l/m² 9,7 km/h (2 Bft) N 360 ° 0 min 0,000 mm 0,0 UV-I 16 W/m² 9,9 °C 13,6 °C 12,9 km/h (3 Bft) 95,65 %
05.05.2026 06:09 15,3 °C 12,2 °C 11,7 °C 13,9 °C 13,9 °C 70 % 84 cb 52 cb 69 cb 1008,2 hPa 0,0 l/m² 9,7 km/h (2 Bft) N 360 ° 0 min 0,000 mm 0,0 UV-I 16 W/m² 9,9 °C 13,6 °C 12,9 km/h (3 Bft) 95,65 %
05.05.2026 06:08 15,3 °C 12,2 °C 11,7 °C 13,9 °C 13,9 °C 70 % 84 cb 52 cb 69 cb 1008,2 hPa 0,0 l/m² 8,0 km/h (2 Bft) N 360 ° 0 min 0,000 mm 0,0 UV-I 16 W/m² 9,9 °C 14,4 °C 12,9 km/h (3 Bft) 91,30 %
05.05.2026 06:07 15,3 °C 11,7 °C 11,7 °C 13,9 °C 13,9 °C 70 % 84 cb 52 cb 69 cb 1008,3 hPa 0,0 l/m² 8,0 km/h (2 Bft) N 360 ° 0 min 0,000 mm 0,0 UV-I 16 W/m² 9,9 °C 14,4 °C 9,7 km/h (2 Bft) 95,65 %
05.05.2026 06:06 15,2 °C 11,7 °C 11,7 °C 13,9 °C 13,9 °C 70 % 84 cb 52 cb 69 cb 1008,2 hPa 0,0 l/m² 8,0 km/h (2 Bft) N 360 ° 0 min 0,000 mm 0,0 UV-I 16 W/m² 9,8 °C 14,3 °C 12,9 km/h (3 Bft) 100,00 %
05.05.2026 06:05 15,3 °C 11,7 °C 11,7 °C 13,9 °C 13,9 °C 70 % 84 cb 52 cb 69 cb 1008,2 hPa 0,0 l/m² 8,0 km/h (2 Bft) N 360 ° 0 min 0,000 mm 0,0 UV-I 16 W/m² 9,9 °C 14,4 °C 12,9 km/h (3 Bft) 91,30 %
05.05.2026 06:04 15,3 °C 11,7 °C 11,7 °C 13,9 °C 13,9 °C 70 % 84 cb 52 cb 69 cb 1008,3 hPa 0,0 l/m² 8,0 km/h (2 Bft) N 360 ° 0 min 0,000 mm 0,0 UV-I 16 W/m² 9,9 °C 14,4 °C 12,9 km/h (3 Bft) 95,65 %
05.05.2026 06:03 15,3 °C 11,7 °C 11,7 °C 13,9 °C 13,9 °C 70 % 84 cb 52 cb 69 cb 1008,2 hPa 0,0 l/m² 8,0 km/h (2 Bft) N 360 ° 0 min 0,000 mm 0,0 UV-I 16 W/m² 9,9 °C 14,4 °C 12,9 km/h (3 Bft) 95,65 %
05.05.2026 06:02 15,3 °C 11,7 °C 11,7 °C 13,9 °C 13,9 °C 70 % 84 cb 52 cb 69 cb 1008,2 hPa 0,0 l/m² 9,7 km/h (2 Bft) N 360 ° 0 min 0,000 mm 0,0 UV-I 16 W/m² 9,9 °C 13,6 °C 12,9 km/h (3 Bft) 95,65 %
05.05.2026 06:01 15,3 °C 11,7 °C 11,7 °C 13,9 °C 13,9 °C 70 % 84 cb 52 cb 69 cb 1008,2 hPa 0,0 l/m² 8,0 km/h (2 Bft) N 360 ° 0 min 0,000 mm 0,0 UV-I 14 W/m² 9,9 °C 14,4 °C 12,9 km/h (3 Bft) 95,65 %
05.05.2026 06:00 15,3 °C 12,2 °C 11,7 °C 13,9 °C 13,9 °C 70 % 84 cb 52 cb 69 cb 1008,3 hPa 0,0 l/m² 9,7 km/h (2 Bft) N 360 ° 0 min 0,051 mm 0,0 UV-I 14 W/m² 9,9 °C 13,6 °C 12,9 km/h (3 Bft) 95,65 %
05.05.2026 05:59 15,3 °C 12,2 °C 11,7 °C 13,9 °C 13,9 °C 70 % 84 cb 52 cb 69 cb 1008,2 hPa 0,0 l/m² 8,0 km/h (2 Bft) N 360 ° 0 min 0,000 mm 0,0 UV-I 12 W/m² 9,9 °C 14,4 °C 12,9 km/h (3 Bft) 95,65 %
05.05.2026 05:58 15,2 °C 12,2 °C 11,7 °C 13,9 °C 13,9 °C 70 % 84 cb 52 cb 69 cb 1008,2 hPa 0,0 l/m² 9,7 km/h (2 Bft) N 360 ° 0 min 0,000 mm 0,0 UV-I 12 W/m² 9,8 °C 13,5 °C 12,9 km/h (3 Bft) 91,30 %
05.05.2026 05:57 15,2 °C 12,2 °C 11,7 °C 13,9 °C 13,9 °C 70 % 84 cb 52 cb 69 cb 1008,2 hPa 0,0 l/m² 9,7 km/h (2 Bft) N 360 ° 0 min 0,000 mm 0,0 UV-I 12 W/m² 9,8 °C 13,5 °C 12,9 km/h (3 Bft) 95,65 %
05.05.2026 05:56 15,2 °C 12,2 °C 11,7 °C 13,9 °C 13,9 °C 70 % 84 cb 52 cb 69 cb 1008,2 hPa 0,0 l/m² 8,0 km/h (2 Bft) N 360 ° 0 min 0,000 mm 0,0 UV-I 12 W/m² 9,8 °C 14,3 °C 12,9 km/h (3 Bft) 95,65 %
05.05.2026 05:55 15,3 °C 12,2 °C 11,7 °C 13,9 °C 13,9 °C 70 % 84 cb 52 cb 69 cb 1008,2 hPa 0,0 l/m² 9,7 km/h (2 Bft) N 360 ° 0 min 0,000 mm 0,0 UV-I 12 W/m² 9,9 °C 13,6 °C 12,9 km/h (3 Bft) 95,65 %
05.05.2026 05:54 15,2 °C 12,2 °C 11,7 °C 13,9 °C 13,9 °C 70 % 84 cb 52 cb 69 cb 1008,2 hPa 0,0 l/m² 9,7 km/h (2 Bft) N 360 ° 0 min 0,000 mm 0,0 UV-I 11 W/m² 9,8 °C 13,5 °C 14,5 km/h (3 Bft) 95,65 %
05.05.2026 05:53 15,3 °C 12,2 °C 11,7 °C 13,9 °C 13,9 °C 70 % 84 cb 52 cb 69 cb 1008,2 hPa 0,0 l/m² 9,7 km/h (2 Bft) N 360 ° 0 min 0,000 mm 0,0 UV-I 11 W/m² 9,9 °C 13,6 °C 14,5 km/h (3 Bft) 100,00 %
05.05.2026 05:52 15,2 °C 12,2 °C 11,7 °C 13,9 °C 13,9 °C 70 % 84 cb 52 cb 69 cb 1008,1 hPa 0,0 l/m² 9,7 km/h (2 Bft) N 360 ° 0 min 0,000 mm 0,0 UV-I 11 W/m² 9,8 °C 13,5 °C 12,9 km/h (3 Bft) 86,96 %
05.05.2026 05:51 15,2 °C 12,2 °C 11,7 °C 13,9 °C 13,9 °C 70 % 84 cb 52 cb 69 cb 1008,2 hPa 0,0 l/m² 8,0 km/h (2 Bft) N 360 ° 0 min 0,000 mm 0,0 UV-I 11 W/m² 9,8 °C 14,3 °C 12,9 km/h (3 Bft) 82,61 %
05.05.2026 05:50 15,2 °C 12,2 °C 11,7 °C 13,9 °C 13,9 °C 70 % 84 cb 52 cb 69 cb 1008,3 hPa 0,0 l/m² 11,3 km/h (2 Bft) N 360 ° 0 min 0,000 mm 0,0 UV-I 9 W/m² 9,8 °C 12,8 °C 14,5 km/h (3 Bft) 95,65 %
05.05.2026 05:49 15,2 °C 12,2 °C 11,7 °C 13,9 °C 13,9 °C 70 % 84 cb 52 cb 68 cb 1008,2 hPa 0,0 l/m² 11,3 km/h (2 Bft) N 360 ° 0 min 0,000 mm 0,0 UV-I 9 W/m² 9,8 °C 12,8 °C 16,1 km/h (3 Bft) 95,65 %
05.05.2026 05:48 15,3 °C 12,2 °C 11,7 °C 13,9 °C 13,9 °C 70 % 84 cb 52 cb 69 cb 1008,2 hPa 0,0 l/m² 9,7 km/h (2 Bft) N 360 ° 0 min 0,000 mm 0,0 UV-I 9 W/m² 9,9 °C 13,6 °C 12,9 km/h (3 Bft) 91,30 %
05.05.2026 05:47 15,3 °C 12,2 °C 11,7 °C 13,9 °C 13,9 °C 70 % 84 cb 52 cb 68 cb 1008,2 hPa 0,0 l/m² 9,7 km/h (2 Bft) N 360 ° 0 min 0,000 mm 0,0 UV-I 7 W/m² 9,9 °C 13,6 °C 14,5 km/h (3 Bft) 95,65 %
05.05.2026 05:46 15,3 °C 12,2 °C 11,7 °C 13,9 °C 13,9 °C 70 % 84 cb 52 cb 68 cb 1008,1 hPa 0,0 l/m² 9,7 km/h (2 Bft) N 360 ° 0 min 0,000 mm 0,0 UV-I 7 W/m² 9,9 °C 13,6 °C 12,9 km/h (3 Bft) 95,65 %
05.05.2026 05:45 15,3 °C 12,2 °C 11,7 °C 13,9 °C 13,9 °C 70 % 84 cb 52 cb 68 cb 1008,3 hPa 0,0 l/m² 11,3 km/h (2 Bft) N 360 ° 0 min 0,000 mm 0,0 UV-I 7 W/m² 9,9 °C 12,9 °C 14,5 km/h (3 Bft) 91,30 %
05.05.2026 05:44 15,3 °C 12,2 °C 11,7 °C 13,9 °C 13,9 °C 70 % 84 cb 52 cb 68 cb 1008,2 hPa 0,0 l/m² 11,3 km/h (2 Bft) N 360 ° 0 min 0,000 mm 0,0 UV-I 5 W/m² 9,9 °C 12,9 °C 14,5 km/h (3 Bft) 95,65 %
05.05.2026 05:43 15,4 °C 12,2 °C 11,7 °C 13,9 °C 13,9 °C 70 % 84 cb 52 cb 68 cb 1008,3 hPa 0,0 l/m² 11,3 km/h (2 Bft) N 360 ° 0 min 0,000 mm 0,0 UV-I 5 W/m² 10,0 °C 13,0 °C 16,1 km/h (3 Bft) 95,65 %
05.05.2026 05:42 15,3 °C 12,2 °C 11,7 °C 13,9 °C 13,9 °C 70 % 84 cb 52 cb 68 cb 1008,2 hPa 0,0 l/m² 11,3 km/h (2 Bft) N 360 ° 0 min 0,000 mm 0,0 UV-I 0 W/m² 9,9 °C 12,9 °C 14,5 km/h (3 Bft) 95,65 %
05.05.2026 05:41 15,4 °C 12,2 °C 11,7 °C 13,9 °C 13,9 °C 70 % 84 cb 52 cb 68 cb 1008,3 hPa